[[{"header":{"parameterUnit":"m.s-1","parameterCategory":1,"la1":30.6,"la2":28.766,"lo1":-90.7593,"lo2":-88.6598,"dy":0.0162,"dx":0.0183,"nx":116,"ny":114,"refTime":"2023-09-22T00:00:00:Z","depth":0,"parameterNumber":2,"parameterNumberName":"U-component_of_WINDS"},"data":[0.0,0.0,0.0,0.0,0.0,0.0,0.0,0.0,0.0,0.0,0.0,0.0,0.0,0.0,0.0,0.0,0.0,0.0,0.0,0.0,0.0,0.0,0.0,0.0,0.0,0.0,0.0,0.0,0.0,0.0,0.0,0.0,0.0,0.0,0.0,0.0,0.0,0.0,0.0,0.0,0.0,0.0,0.0,0.0,0.0,0.0,0.0,0.0,0.0,0.0,0.0,0.0,0.0,0.0,0.0,0.0,0.0,0.0,0.0,0.0,0.0,0.0,0.0,0.0,0.0,0.0,0.0,0.0,0.0,0.0,0.0,0.0,0.0,0.0,0.0,0.0,0.0,0.0,0.0,0.0,0.0,0.0,0.0,0.0,0.0,0.0,0.0,0.0,0.0,0.0,0.0,0.0,0.0,0.0,0.0,0.0,0.0,0.0,0.0,0.0,0.0,0.0,0.0,0.0,0.0,0.0,0.0,0.0,0.0,0.0,0.0,0.0,0.0,0.0,0.0,0.0,0.0,0.0,0.0,0.0,0.0,0.0,0.0,0.0,0.0,0.0,0.0,0.0,0.0,0.0,0.0,0.0,0.0,0.0,0.0,0.0,0.0,0.0,0.0,0.0,0.0,0.0,0.0,0.0,0.0,0.0,0.0,0.0,0.0,0.0,0.0,0.0,0.0,0.0,0.0,0.0,0.0,0.0,0.0,0.0,0.0,0.0,0.0,0.0,0.0,0.0,0.0,0.0,0.0,0.0,0.0,0.0,0.0,0.0,0.0,0.0,0.0,0.0,0.0,0.0,0.0,0.0,0.0,0.0,0.0,0.0,0.0,0.0,0.0,0.0,0.0,0.0,0.0,0.0,0.0,0.0,0.0,0.0,0.0,0.0,0.0,0.0,0.0,0.0,0.0,0.0,0.0,0.0,0.0,0.0,0.0,0.0,0.0,0.0,0.0,0.0,0.0,0.0,0.0,0.0,0.0,0.0,0.0,0.0,0.0,0.0,0.0,0.0,0.0,0.0,0.0,0.0,0.0,0.0,0.0,0.0,0.0,0.0,0.0,0.0,0.0,0.0,0.0,0.0,0.0,0.0,0.0,0.0,0.0,0.0,0.0,0.0,0.0,0.0,0.0,0.0,0.0,0.0,0.0,0.0,0.0,0.0,0.0,0.0,0.0,0.0,0.0,0.0,0.0,0.0,0.0,0.0,0.0,0.0,0.0,0.0,0.0,0.0,0.0,0.0,0.0,0.0,0.0,0.0,0.0,0.0,0.0,0.0,0.0,0.0,0.0,0.0,0.0,0.0,0.0,0.0,0.0,0.0,0.0,0.0,0.0,0.0,0.0,0.0,0.0,0.0,0.0,0.0,0.0,0.0,0.0,0.0,0.0,0.0,0.0,0.0,0.0,0.0,0.0,0.0,0.0,0.0,0.0,0.0,0.0,0.0,0.0,0.0,0.0,0.0,0.0,0.0,0.0,0.0,0.0,0.0,0.0,0.0,0.0,0.0,0.0,0.0,0.0,0.0,0.0,0.0,0.0,0.0,0.0,0.0,0.0,0.0,0.0,0.0,0.0,0.0,0.0,0.0,0.0,0.0,0.0,0.0,0.0,0.0,0.0,0.0,0.0,0.0,0.0,0.0,0.0,0.0,0.0,0.0,0.0,0.0,0.0,0.0,0.0,0.0,0.0,0.0,0.0,0.0,0.0,0.0,0.0,0.0,0.0,0.0,0.0,0.0,0.0,0.0,0.0,0.0,0.0,0.0,0.0,0.0,0.0,0.0,0.0,0.0,0.0,0.0,0.0,0.0,0.0,0.0,0.0,0.0,0.0,0.0,0.0,0.0,0.0,0.0,0.0,0.0,0.0,0.0,0.0,0.0,0.0,0.0,0.0,0.0,0.0,0.0,0.0,0.0,0.0,0.0,0.0,0.0,0.0,0.0,0.0,0.0,0.0,0.0,0.0,0.0,0.0,0.0,0.0,0.0,0.0,0.0,0.0,0.0,0.0,0.0,0.0,0.0,0.0,0.0,0.0,0.0,0.0,0.0,0.0,0.0,0.0,0.0,0.0,0.0,0.0,0.0,0.0,0.0,0.0,0.0,0.0,0.0,0.0,0.0,0.0,0.0,0.0,0.0,0.0,0.0,0.0,0.0,0.0,0.0,0.0,0.0,0.0,0.0,0.0,0.0,0.0,0.0,0.0,0.0,0.0,0.0,0.0,0.0,0.0,0.0,0.0,0.0,0.0,0.0,0.0,0.0,0.0,0.0,0.0,0.0,0.0,0.0,0.0,0.0,0.0,0.0,0.0,0.0,0.0,0.0,0.0,0.0,0.0,0.0,0.0,0.0,0.0,0.0,0.0,0.0,0.0,0.0,0.0,0.0,0.0,0.0,0.0,0.0,0.0,0.0,0.0,0.0,0.0,0.0,0.0,0.0,0.0,0.0,0.0,0.0,0.0,0.0,0.0,0.0,0.0,0.0,0.0,0.0,0.0,0.0,0.0,0.0,0.0,0.0,0.0,0.0,0.0,0.0,0.0,0.0,0.0,0.0,0.0,0.0,0.0,0.0,0.0,0.0,0.0,0.0,0.0,0.0,0.0,0.0,0.0,0.0,0.0,0.0,0.0,0.0,0.0,0.0,0.0,0.0,0.0,0.0,0.0,0.0,0.0,0.0,0.0,0.0,0.0,0.0,0.0,0.0,0.0,0.0,0.0,0.0,0.0,0.0,0.0,0.0,0.0,0.0,0.0,0.0,0.0,0.0,0.0,0.0,0.0,0.0,0.0,0.0,0.0,0.0,0.0,0.0,0.0,0.0,0.0,0.0,0.0,0.0,0.0,0.0,0.0,0.0,0.0,0.0,0.0,0.0,0.0,0.0,0.0,0.0,0.0,0.0,0.0,0.0,0.0,0.0,0.0,0.0,0.0,0.0,0.0,0.0,0.0,0.0,0.0,0.0,0.0,0.0,0.0,0.0,0.0,0.0,0.0,0.0,0.0,0.0,0.0,0.0,0.0,0.0,0.0,0.0,0.0,0.0,0.0,0.0,0.0,0.0,0.0,0.0,0.0,0.0,0.0,0.0,0.0,0.0,0.0,0.0,0.0,0.0,0.0,0.0,0.0,0.0,0.0,0.0,0.0,0.0,0.0,0.0,0.0,0.0,0.0,0.0,0.0,0.0,0.0,0.0,0.0,0.0,0.0,0.0,0.0,0.0,0.0,0.0,0.0,0.0,0.0,0.0,0.0,0.0,0.0,0.0,0.0,0.0,0.0,0.0,0.0,0.0,0.0,0.0,0.0,0.0,0.0,0.0,0.0,0.0,0.0,0.0,0.0,0.0,0.0,0.0,0.0,0.0,0.0,0.0,0.0,0.0,0.0,0.0,0.0,0.0,0.0,0.0,0.0,0.0,0.0,0.0,0.0,0.0,0.0,0.0,0.0,0.0,0.0,0.0,0.0,0.0,0.0,0.0,0.0,0.0,0.0,0.0,0.0,0.0,0.0,0.0,0.0,0.0,0.0,0.0,0.0,0.0,0.0,0.0,0.0,0.0,0.0,0.0,0.0,0.0,0.0,0.0,0.0,0.0,0.0,0.0,0.0,0.0,0.0,0.0,0.0,0.0,0.0,0.0,0.0,0.0,0.0,0.0,0.0,0.0,0.0,0.0,0.0,0.0,0.0,0.0,0.0,0.0,0.0,0.0,0.0,0.0,0.0,0.0,0.0,0.0,0.0,0.0,0.0,0.0,0.0,0.0,0.0,0.0,0.0,0.0,0.0,0.0,0.0,0.0,0.0,0.0,0.0,0.0,0.0,0.0,0.0,0.0,0.0,0.0,0.0,0.0,0.0,0.0,0.0,0.0,0.0,0.0,0.0,0.0,0.0,0.0,0.0,0.0,0.0,0.0,0.0,0.0,0.0,0.0,0.0,0.0,0.0,0.0,0.0,0.0,0.0,0.0,0.0,0.0,0.0,0.0,0.0,0.0,0.0,0.0,0.0,0.0,0.0,0.0,0.0,0.0,0.0,0.0,0.0,0.0,0.0,0.0,0.0,0.0,0.0,0.0,0.0,0.0,0.0,0.0,0.0,0.0,0.0,0.0,0.0,0.0,0.0,0.0,0.0,0.0,0.0,0.0,0.0,0.0,0.0,0.0,0.0,0.0,0.0,0.0,0.0,0.0,0.0,0.0,0.0,0.0,0.0,0.0,0.0,0.0,0.0,0.0,0.0,0.0,0.0,0.0,0.0,0.0,0.0,0.0,0.0,0.0,0.0,0.0,0.0,0.0,0.0,0.0,0.0,0.0,0.0,0.0,0.0,0.0,0.0,0.0,0.0,0.0,0.0,0.0,0.0,0.0,0.0,0.0,0.0,0.0,0.0,0.0,0.0,0.0,0.0,0.0,0.0,0.0,0.0,0.0,0.0,0.0,0.0,0.0,0.0,0.0,0.0,0.0,0.0,0.0,0.0,0.0,0.0,0.0,0.0,0.0,0.0,0.0,0.0,0.0,0.0,0.0,0.0,0.0,0.0,0.0,0.0,0.0,0.0,0.0,0.0,0.0,0.0,0.0,0.0,0.0,0.0,0.0,0.0,0.0,0.0,0.0,0.0,0.0,0.0,0.0,0.0,0.0,0.0,0.0,0.0,0.0,0.0,0.0,0.0,0.0,0.0,0.0,0.0,0.0,0.0,0.0,0.0,0.0,0.0,0.0,0.0,0.0,0.0,0.0,0.0,0.0,0.0,0.0,0.0,0.0,0.0,0.0,0.0,0.0,0.0,0.0,0.0,0.0,0.0,0.0,0.0,0.0,0.0,0.0,0.0,0.0,0.0,0.0,0.0,0.0,0.0,0.0,0.0,0.0,0.0,0.0,0.0,0.0,0.0,0.0,0.0,0.0,0.0,0.0,0.0,0.0,0.0,0.0,0.0,0.0,0.0,0.0,0.0,0.0,0.0,0.0,0.0,0.0,0.0,0.0,0.0,0.0,0.0,0.0,0.0,0.0,0.0,0.0,0.0,0.0,0.0,0.0,0.0,0.0,0.0,0.0,0.0,0.0,0.0,0.0,0.0,0.0,0.0,0.0,0.0,0.0,0.0,0.0,0.0,0.0,0.0,0.0,0.0,0.0,0.0,0.0,0.0,0.0,0.0,0.0,0.0,0.0,0.0,0.0,0.0,0.0,0.0,0.0,0.0,0.0,0.0,0.0,0.0,0.0,0.0,0.0,0.0,0.0,0.0,0.0,0.0,0.0,0.0,0.0,0.0,0.0,0.0,0.0,0.0,0.0,0.0,0.0,0.0,0.0,0.0,0.0,0.0,0.0,0.0,0.0,0.0,0.0,0.0,0.0,0.0,0.0,0.0,0.0,0.0,0.0,0.0,0.0,0.0,0.0,0.0,0.0,0.0,0.0,0.0,0.0,0.0,0.0,0.0,0.0,0.0,0.0,0.0,0.0,0.0,0.0,0.0,0.0,0.0,0.0,0.0,0.0,0.0,0.0,0.0,0.0,0.0,0.0,0.0,0.0,0.0,0.0,0.0,0.0,0.0,0.0,0.0,0.0,0.0,0.0,0.0,0.0,0.0,0.0,0.0,0.0,0.0,0.0,0.0,0.0,0.0,0.0,0.0,0.0,0.0,0.0,0.0,0.0,0.0,0.0,0.0,0.0,0.0,0.0,0.0,0.0,0.0,0.0,0.0,0.0,0.0,0.0,0.0,0.0,0.0,0.0,0.0,0.0,0.0,0.0,0.0,0.0,0.0,0.0,0.0,0.0,0.0,0.0,0.0,0.0,0.0,0.0,0.0,0.0,0.0,0.0,0.0,0.0,0.0,0.0,0.0,0.0,0.0,0.0,0.0,0.0,0.0,0.0,0.0,0.0,0.0,0.0,0.0,0.0,0.0,0.0,0.0,0.0,0.0,0.0,0.0,0.0,0.0,0.0,0.0,0.0,0.0,0.0,0.0,0.0,0.0,0.0,0.0,0.0,0.0,0.0,0.0,0.0,0.0,0.0,0.0,0.0,0.0,0.0,0.0,0.0,0.0,0.0,0.0,0.0,0.0,0.0,0.0,0.0,0.0,0.0,0.0,0.0,0.0,0.0,0.0,0.0,-2.45,0.0,0.0,0.0,0.0,0.0,0.0,0.0,0.0,0.0,0.0,0.0,0.0,0.0,0.0,0.0,0.0,0.0,0.0,0.0,0.0,0.0,0.0,0.0,0.0,0.0,0.0,0.0,0.0,0.0,0.0,0.0,0.0,0.0,0.0,0.0,0.0,0.0,0.0,-1.4782,-1.538,-1.6201,-1.7196,-1.6847,-1.6618,-1.6528,0.0,0.0,0.0,0.0,0.0,0.0,0.0,0.0,0.0,0.0,0.0,0.0,0.0,0.0,0.0,0.0,0.0,0.0,0.0,0.0,0.0,0.0,0.0,0.0,0.0,0.0,0.0,0.0,0.0,0.0,0.0,0.0,0.0,0.0,0.0,0.0,0.0,0.0,0.0,0.0,0.0,0.0,0.0,0.0,0.0,0.0,0.0,0.0,0.0,0.0,0.0,0.0,0.0,0.0,0.0,0.0,0.0,0.0,0.0,0.0,0.0,0.0,0.0,0.0,0.0,0.0,0.0,0.0,0.0,0.0,0.0,-2.4264,0.0,0.0,0.0,0.0,0.0,0.0,0.0,0.0,0.0,0.0,0.0,0.0,0.0,0.0,0.0,0.0,0.0,0.0,0.0,0.0,0.0,0.0,0.0,-0.8497,-0.8941,-0.9481,-0.9833,-1.0348,0.0,0.0,0.0,0.0,0.0,0.0,-1.2893,-1.3738,-1.4607,-1.5463,-1.6354,-1.747,-1.8736,-1.8931,-1.8584,-1.7782,-1.7763,0.0,0.0,0.0,0.0,0.0,0.0,0.0,0.0,0.0,0.0,0.0,0.0,0.0,0.0,0.0,0.0,0.0,0.0,0.0,0.0,0.0,0.0,0.0,0.0,0.0,0.0,0.0,0.0,0.0,0.0,0.0,0.0,0.0,0.0,0.0,0.0,0.0,0.0,0.0,0.0,0.0,0.0,0.0,0.0,0.0,0.0,0.0,0.0,0.0,0.0,0.0,0.0,0.0,0.0,0.0,0.0,0.0,0.0,0.0,0.0,0.0,0.0,0.0,-2.7679,-2.7314,-2.6926,-2.7169,-2.7134,-2.6804,-2.6472,-2.5638,-2.4521,0.0,0.0,0.0,0.0,0.0,0.0,0.0,0.0,0.0,0.0,0.0,0.0,0.0,0.0,0.0,0.0,0.0,0.0,0.0,0.0,0.0,0.0,-0.9843,-1.0664,-1.113,-1.1493,-1.207,-1.2973,0.0,0.0,0.0,0.0,0.0,-1.4484,-1.5015,-1.5582,-1.6179,-1.7382,-1.8537,-1.9626,-1.9886,-2.0337,-2.0848,-1.9677,-1.9999,-2.1387,0.0,0.0,0.0,0.0,0.0,0.0,0.0,0.0,0.0,0.0,0.0,0.0,0.0,0.0,0.0,0.0,0.0,0.0,0.0,0.0,0.0,0.0,0.0,0.0,0.0,0.0,0.0,0.0,0.0,0.0,0.0,0.0,0.0,0.0,0.0,0.0,0.0,0.0,0.0,0.0,0.0,-2.7774,-2.8587,0.0,0.0,0.0,0.0,0.0,0.0,0.0,0.0,0.0,0.0,0.0,0.0,0.0,-2.8009,-2.8276,-2.7738,-2.7931,-2.8752,-2.8585,-2.8667,-2.89,-2.8624,-2.8352,-2.8147,-2.8286,0.0,-2.5065,-2.5597,0.0,0.0,0.0,0.0,0.0,0.0,0.0,0.0,0.0,0.0,0.0,0.0,0.0,0.0,0.0,0.0,0.0,0.0,0.0,0.0,0.0,-1.117,-1.2115,-1.284,-1.311,-1.3593,-1.44,-1.4136,0.0,0.0,0.0,-1.473,-1.4811,-1.5199,-1.5834,-1.6808,-1.7774,-1.8773,-1.9743,-1.9953,-2.0666,-2.1816,-2.1341,-2.1491,-2.2015,-2.1234,0.0,0.0,0.0,0.0,0.0,0.0,0.0,0.0,0.0,0.0,0.0,0.0,0.0,0.0,0.0,0.0,0.0,0.0,0.0,0.0,0.0,0.0,0.0,0.0,0.0,0.0,0.0,0.0,0.0,0.0,0.0,0.0,0.0,0.0,0.0,0.0,0.0,0.0,0.0,-2.708,-2.7832,-2.8039,-2.77,-2.757,0.0,0.0,0.0,0.0,0.0,0.0,0.0,0.0,0.0,-2.871,-2.8731,-2.8867,-2.9137,-2.9052,-2.9087,-2.9244,-2.9057,-2.8978,-2.8967,-2.8877,-2.871,-2.8524,-2.8913,-2.8312,-2.7035,-2.675,-2.5906,-2.4801,0.0,0.0,0.0,0.0,-2.4803,-2.4797,0.0,0.0,0.0,0.0,0.0,0.0,0.0,0.0,0.0,0.0,0.0,0.0,-1.1435,-1.2424,-1.3402,-1.4277,-1.4472,-1.4778,-1.5378,-1.4959,-1.4767,-1.488,-1.4891,-1.4857,-1.4834,-1.5345,-1.6237,-1.7513,-1.8214,-1.9107,-2.015,-2.0323,-2.1043,-2.2243,-2.2505,-2.2566,-2.2474,-2.2375,-2.2175,-2.1929,0.0,0.0,0.0,0.0,0.0,0.0,0.0,0.0,0.0,0.0,0.0,0.0,0.0,0.0,0.0,0.0,0.0,0.0,0.0,0.0,0.0,0.0,0.0,0.0,0.0,0.0,0.0,0.0,0.0,0.0,0.0,0.0,0.0,0.0,0.0,0.0,0.0,-2.7497,-2.7976,-2.7822,-2.7723,-2.7713,0.0,0.0,0.0,0.0,0.0,0.0,-2.8122,-2.8376,-2.8856,-2.9628,-2.9701,-2.9828,-2.9985,-3.0158,-3.0065,-2.9733,-2.947,-2.9248,-2.9065,-2.9113,-2.9025,-2.8835,-2.9245,-2.9069,-2.8474,-2.7713,-2.688,-2.6061,-2.569,-2.5429,-2.5339,-2.5721,-2.5575,-2.5199,0.0,0.0,0.0,0.0,0.0,0.0,0.0,0.0,0.0,0.0,0.0,-1.1669,-1.2619,-1.3608,-1.452,-1.5259,-1.5384,-1.5524,-1.577,-1.5458,-1.5153,-1.4903,-1.5017,-1.504,-1.4915,-1.5923,-1.7063,-1.8342,-1.8948,-1.9986,-2.1415,-2.1621,-2.2046,-2.2674,-2.2809,-2.312,-2.3509,-2.3117,-2.2909,-2.2752,-2.1869,0.0,0.0,0.0,0.0,0.0,0.0,0.0,0.0,0.0,0.0,0.0,0.0,0.0,0.0,0.0,0.0,0.0,0.0,0.0,0.0,0.0,0.0,0.0,0.0,0.0,0.0,0.0,0.0,0.0,0.0,0.0,0.0,0.0,0.0,0.0,0.0,0.0,0.0,-2.9363,-2.8925,0.0,0.0,0.0,0.0,-2.7361,-2.8474,-2.9014,-2.8598,-2.9769,-3.0574,-3.0812,-3.0528,-3.0433,-3.0569,-3.0054,-2.9998,-3.0339,-2.9949,-2.9878,-3.0037,-2.9845,-2.9613,-2.9381,-2.9406,-2.9005,-2.8319,-2.8474,-2.8313,-2.7935,-2.752,-2.7348,-2.7275,-2.6744,-2.613,-2.5478,0.0,0.0,0.0,0.0,0.0,0.0,0.0,0.0,-0.9228,-0.9853,-1.1084,-1.2238,-1.3082,-1.4316,-1.5233,-1.5616,-1.5754,-1.5891,-1.6035,-1.5659,-1.5311,-1.5028,-1.5085,-1.5394,-1.6043,-1.6724,-1.7626,-1.8732,-1.9233,-1.9985,-2.0991,-2.1068,-2.1526,-2.2263,-2.2217,-2.2324,-2.2592,-2.2839,-2.263,-2.2118,-2.1992,-2.1628,0.0,0.0,0.0,0.0,0.0,0.0,0.0,0.0,0.0,0.0,0.0,0.0,0.0,0.0,0.0,0.0,0.0,0.0,0.0,0.0,0.0,0.0,0.0,0.0,0.0,0.0,0.0,0.0,0.0,0.0,0.0,0.0,0.0,0.0,0.0,0.0,0.0,-2.9275,-2.9515,0.0,-2.9446,-2.9201,-2.9091,-2.9282,-2.9502,-2.9592,-2.9511,-2.9696,-3.0006,-3.037,-3.029,-3.0197,-3.021,-3.0456,-3.0316,-2.9745,-2.9859,-2.9808,-2.9625,-2.9326,-2.9079,-2.8988,-2.8764,-2.8548,-2.8418,-2.8222,-2.7821,-2.7273,-2.7285,-2.7049,-2.6697,-2.6966,-2.6465,-2.5655,0.0,0.0,0.0,0.0,0.0,0.0,0.0,0.0,-0.941,-1.0157,-1.1522,-1.2721,-1.3603,-1.4844,-1.5647,-1.5792,-1.5957,-1.6057,-1.6025,-1.5714,-1.5401,-1.5108,-1.5234,-1.5788,-1.6859,-1.7338,-1.8086,-1.9152,-1.9567,-2.0174,-2.0957,-2.0887,-2.1185,-2.1722,-2.1688,-2.1674,-2.1684,-2.2133,-2.2192,-2.1971,-2.1894,-2.1663,-2.1319,0.0,0.0,0.0,0.0,0.0,0.0,0.0,0.0,0.0,0.0,0.0,0.0,0.0,0.0,0.0,0.0,0.0,0.0,0.0,0.0,0.0,0.0,0.0,0.0,0.0,0.0,0.0,0.0,0.0,0.0,0.0,0.0,0.0,0.0,0.0,-2.9684,-2.9334,-2.9901,-3.0154,-2.9728,-2.9602,-2.9706,-2.9979,-2.9997,-2.9998,-3.0007,-2.9957,-3.003,-3.0275,-3.0325,-3.0275,-3.0101,-3.0465,-3.0239,-2.9419,-2.9613,-2.9457,-2.8988,-2.8803,-2.8605,-2.8498,-2.8127,-2.8007,-2.8059,-2.7777,-2.7259,-2.6644,-2.7198,-2.7152,-2.6809,-2.7256,-2.6788,-2.5905,0.0,0.0,0.0,0.0,0.0,0.0,0.0,-0.8663,-0.9402,-1.0454,-1.1874,-1.3175,-1.4165,-1.5196,-1.5792,-1.5792,-1.6013,-1.6025,-1.5693,-1.5603,-1.5424,-1.5131,-1.5483,-1.6165,-1.7178,-1.7678,-1.8454,-1.9594,-1.994,-2.0518,-2.1337,-2.1229,-2.1155,-2.118,-2.1302,-2.1215,-2.0993,-2.1118,-2.1664,-2.2376,-2.1556,-2.1423,-2.1599,0.0,0.0,0.0,0.0,0.0,0.0,0.0,0.0,0.0,0.0,0.0,0.0,0.0,0.0,0.0,0.0,0.0,0.0,0.0,0.0,0.0,0.0,0.0,0.0,0.0,0.0,0.0,0.0,0.0,0.0,0.0,0.0,0.0,-2.8775,-2.9404,-2.9767,-2.9722,-3.0116,-3.0181,-2.9592,-2.9539,-2.9455,-2.9252,-2.9968,-3.0296,-3.0127,-3.0649,-3.0848,-3.0581,-3.0752,-3.0665,-3.0291,-3.009,-2.9754,-2.938,-2.9197,-2.8776,-2.8219,-2.8431,-2.8271,-2.7881,-2.7615,-2.7348,-2.7185,-2.7185,-2.6787,-2.631,-2.7412,-2.7859,-2.7813,-2.7692,-2.7111,-2.62,0.0,0.0,0.0,0.0,0.0,0.0,0.0,-0.8644,-0.9461,-1.0339,-1.1734,-1.3045,-1.4049,-1.5005,-1.5592,-1.5588,-1.5568,-1.5424,-1.513,-1.5006,-1.505,-1.5233,-1.5688,-1.637,-1.7317,-1.794,-1.8596,-1.9317,-1.9788,-2.0141,-2.0371,-2.0359,-2.0384,-2.0485,-2.041,-2.041,-2.0422,-2.0447,-2.081,-2.1342,-2.1496,-2.1595,-2.1593,0.0,0.0,0.0,0.0,0.0,0.0,0.0,0.0,0.0,0.0,0.0,0.0,0.0,0.0,0.0,0.0,0.0,0.0,0.0,0.0,0.0,0.0,0.0,0.0,0.0,0.0,0.0,0.0,0.0,0.0,0.0,0.0,-2.7953,-2.8343,-2.9013,-2.9556,-2.9958,-3.0477,-3.076,-3.0603,-3.059,-3.049,-3.0229,-3.016,-3.0074,-3.0049,-2.9782,-2.9783,-3.0149,-2.9783,-2.9606,-2.9577,-2.9276,-2.8919,-2.8526,-2.9211,-2.8988,-2.8002,-2.8645,-2.8435,-2.7574,-2.7208,-2.7044,-2.6962,-2.6839,-2.6539,-2.6268,-2.6699,-2.6694,-2.6438,-2.6425,-2.595,-2.5222,0.0,0.0,0.0,0.0,0.0,0.0,0.0,-0.8362,-0.925,-1.0228,-1.1471,-1.2711,-1.3841,-1.4606,-1.5062,-1.5107,-1.504,-1.488,-1.471,-1.456,-1.4646,-1.4992,-1.5611,-1.6328,-1.7144,-1.8028,-1.8674,-1.904,-1.9462,-1.9695,-1.9759,-1.9695,-1.9721,-1.9785,-1.9746,-1.972,-1.9694,-1.9759,-2.002,-2.0463,-2.1026,-2.1358,-2.1546,-2.1452,-2.1506,-2.1574,-2.1237,-2.0875,-2.0411,-1.9247,0.0,0.0,0.0,0.0,0.0,0.0,0.0,0.0,0.0,0.0,0.0,0.0,0.0,0.0,0.0,0.0,0.0,0.0,0.0,0.0,0.0,0.0,0.0,0.0,-2.7229,-2.8047,-2.8482,-2.9109,-2.9686,-3.0157,-3.0671,-3.0986,-3.0874,-3.0949,-3.0823,-3.0419,-3.0165,-2.9973,-2.9767,-2.9275,-2.9269,-2.9992,-2.9238,-2.8958,-2.9353,-2.8804,-2.8285,-2.7805,-2.8462,-2.8263,-2.7383,-2.7926,-2.7794,0.0,-2.6685,-2.6479,-2.6437,-2.6135,-2.5915,0.0,0.0,0.0,0.0,0.0,-2.5289,-2.4714,0.0,0.0,0.0,0.0,0.0,0.0,0.0,-0.7772,-0.8686,-0.981,-1.0954,-1.2124,-1.3356,-1.3988,-1.4351,-1.4458,-1.4422,-1.4363,-1.432,-1.4213,-1.428,-1.4527,-1.5358,-1.6037,-1.6585,-1.7739,-1.8429,-1.8536,-1.8857,-1.9107,-1.9237,-1.9081,-1.9042,-1.9042,-1.9172,-1.9093,-1.8881,-1.9028,-1.9227,-1.9543,-2.0148,-2.0807,-2.1384,-2.1219,-2.1243,-2.1414,-2.1345,-2.1349,-2.1235,-2.0135,0.0,0.0,0.0,0.0,0.0,0.0,0.0,0.0,0.0,0.0,0.0,0.0,0.0,0.0,0.0,0.0,0.0,0.0,0.0,0.0,0.0,0.0,0.0,0.0,-2.7338,-2.8234,-2.8973,-2.9535,-2.9982,-3.0361,-3.071,-3.0836,-3.066,-3.0798,-3.0634,-3.0075,-2.9998,-2.9754,-2.9341,0.0,0.0,0.0,0.0,-2.8605,-2.9231,-2.8399,-2.7695,-2.7185,-2.7429,-2.7185,-2.655,-2.6839,-2.6798,-2.6437,-2.6021,-2.5812,-2.5812,-2.5369,-2.5158,-2.52,-2.585,-2.5954,-2.5697,-2.5318,-2.4872,-2.4385,0.0,0.0,0.0,0.0,0.0,0.0,0.0,-0.6411,-0.7199,-0.7804,-0.9568,-1.0985,-1.1628,-1.2935,-1.3718,-1.364,-1.3717,-1.3771,-1.3766,-1.3881,-1.4021,-1.4109,-1.4742,-1.5143,-1.5256,-1.6301,-1.69,-1.7027,-1.767,-1.805,-1.8197,-1.805,-1.7995,-1.7984,-1.8143,-1.8143,-1.8116,-1.8267,-1.8298,-1.8311,-1.8844,-1.9808,-2.1003,-2.1704,-2.183,-2.1665,-2.1934,-2.1705,-2.1271,-2.0926,-2.02,-1.9366,-1.901,-1.8227,0.0,0.0,0.0,0.0,0.0,0.0,0.0,0.0,0.0,0.0,0.0,0.0,0.0,0.0,0.0,0.0,0.0,0.0,0.0,-2.717,-2.7877,-2.86,-2.9523,-2.9893,-3.0139,-3.0353,-3.0456,-3.0444,-3.0228,-3.0228,-3.0062,-2.9586,-2.9223,-2.8988,-2.891,-2.8379,0.0,-2.895,-2.8114,-2.785,-2.8266,-2.7505,-2.7064,-2.6962,0.0,0.0,-2.6321,-2.6994,-2.6719,-2.5706,-2.5454,-2.5327,-2.5327,-2.5242,-2.4999,-2.4658,-2.4808,-2.4512,-2.398,-2.4058,-2.378,-2.3431,0.0,0.0,0.0,0.0,0.0,0.0,0.0,-0.5577,-0.6363,-0.7058,-0.8414,-0.9605,-1.0416,-1.1374,-1.2119,-1.2559,-1.3,-1.3199,-1.3064,-1.3111,-1.3114,-1.3049,-1.3704,-1.4086,-1.4146,-1.5002,-1.5552,-1.5741,-1.6319,-1.6672,-1.6792,-1.6937,-1.7017,-1.7017,-1.7168,-1.7234,-1.7262,-1.7401,-1.7506,-1.7634,-1.7961,-1.8578,-1.9415,-2.0437,-2.0887,-2.0985,-2.1202,-2.1275,-2.119,-2.0858,-2.0434,-1.9982,-1.9584,-1.9139,-1.8612,0.0,0.0,0.0,0.0,0.0,0.0,0.0,0.0,0.0,0.0,0.0,0.0,0.0,0.0,-2.3019,0.0,0.0,-2.6023,-2.7462,-2.8196,-2.8786,-2.9396,-2.9859,-3.019,-3.0495,-3.0444,-3.033,-3.0113,-3.019,-3.0101,-2.9793,-2.9236,-2.8961,-2.8961,-2.8047,-2.7905,-2.8677,-2.7629,-2.7371,-2.8044,-2.7036,-2.6509,-2.6396,-2.667,-2.6412,-2.5695,-2.611,-2.5944,-2.5327,-2.4999,-2.4871,-2.4828,-2.4615,-2.4219,-2.3797,-2.3797,-2.3667,-2.346,-2.3188,-2.2969,-2.274,0.0,0.0,0.0,0.0,0.0,0.0,0.0,-0.4706,-0.5386,-0.6227,-0.7214,-0.8222,-0.9233,-0.9896,-1.07,-1.1682,-1.2282,-1.2541,-1.2437,-1.2362,-1.2213,-1.1986,-1.2549,-1.2926,-1.3035,-1.3733,-1.4205,-1.4479,-1.4881,-1.5168,-1.5297,-1.5652,-1.5855,-1.5894,-1.612,-1.6257,-1.6285,-1.6428,-1.6665,-1.689,-1.7017,-1.7167,-1.7418,-1.8341,-1.9164,-1.9842,-1.9984,-2.0307,-2.0626,-2.0361,-2.024,-2.0178,-1.9773,-1.9692,-1.9528,-1.8626,-1.8263,0.0,0.0,0.0,0.0,0.0,0.0,0.0,0.0,0.0,-2.1931,-2.2701,-2.309,-2.3677,-2.4997,-2.5518,-2.617,-2.7538,-2.8257,-2.8743,-2.9139,-2.958,-3.0037,-3.0343,-3.0343,-3.019,-2.9882,-3.0024,-3.0024,-2.9754,-2.917,-2.8855,-2.8803,-2.7753,-2.7487,-2.8203,-2.7092,-2.6816,-2.7574,-2.6547,-2.5915,-2.577,-2.5496,-2.5285,-2.5073,-2.5031,-2.4988,-2.4903,-2.4529,-2.4325,-2.4282,-2.3841,-2.3406,-2.296,-2.2882,-2.2969,-2.3101,-2.2574,-2.2397,-2.2318,0.0,0.0,0.0,0.0,0.0,0.0,0.0,0.0,-0.3452,-0.3917,-0.5712,-0.7125,-0.7624,-0.9182,-1.0624,-1.1608,-1.1564,-1.1658,-1.2127,-1.2036,-1.1833,-1.1578,-1.1656,-1.1698,-1.1713,-1.2253,-1.272,-1.3023,-1.3431,-1.3712,-1.383,-1.4054,-1.4251,-1.4459,-1.4772,-1.4971,-1.5098,-1.5294,-1.54,-1.5439,-1.5439,-1.5527,-1.5683,-1.582,-1.6966,-1.8531,-1.8661,-1.8755,-1.8895,-1.9568,-1.9371,-1.9011,-1.9652,-1.9462,-1.8974,-1.8736,-1.8511,-1.8396,-1.8566,-1.9148,-1.9878,-2.0414,-2.087,-2.1421,0.0,0.0,-2.281,-2.3089,-2.3769,-2.4382,-2.4564,-2.5523,-2.6565,-2.7397,-2.7989,-2.8532,-2.9036,-2.9172,-2.9209,-2.9287,-2.9611,-2.9624,-2.9,-2.9118,-2.9013,-2.8447,-2.8191,-2.7909,-2.7684,-2.7208,-2.6787,-2.6505,-2.6166,-2.5926,-2.5768,-2.5485,-2.5285,-2.5285,-2.5073,-2.4828,-2.4583,-2.4368,-2.4196,-2.396,-2.3884,-2.3797,-2.359,-2.3319,-2.2916,-2.2441,-2.1998,-2.1865,-2.1954,-2.2264,-2.2264,-2.2188,0.0,0.0,0.0,0.0,0.0,0.0,0.0,0.0,0.0,-0.3189,-0.4401,-0.5547,-0.6379,-0.8221,-0.96,-1.014,-1.0471,-1.0741,-1.0919,-1.0804,-1.0731,-1.0743,-1.068,-1.0801,-1.1126,-1.1091,-1.1364,-1.1929,-1.1986,-1.2133,-1.2372,-1.2655,-1.2829,-1.2882,-1.3382,-1.3675,-1.381,-1.4182,-1.4401,-1.4499,-1.459,-1.4639,-1.4708,-1.4815,-1.5427,-1.6247,-1.6678,-1.6981,0.0,-1.752,-1.7605,-1.7771,-1.8868,-1.8966,-1.8616,-1.8453,-1.8343,-1.8365,-1.8709,-1.934,0.0,0.0,-2.1333,-2.1941,-2.2621,-2.2918,-2.32,-2.3575,-2.3946,-2.4339,-2.4706,-2.5588,-2.6469,0.0,-2.785,-2.8478,-2.9018,-2.9013,-2.8922,-2.8922,-2.9209,-2.9182,-2.8657,-2.8816,-2.8724,-2.8195,-2.7725,-2.7482,-2.7522,-2.6757,-2.6229,-2.6052,-2.5591,-2.5253,-2.5158,-2.4786,-2.4615,-2.4615,-2.4348,-2.4186,-2.411,-2.3894,-2.359,-2.3232,-2.3232,-2.3057,-2.2838,-2.275,-2.2441,-2.1954,-2.1785,-2.1553,-2.132,-2.1365,-2.141,-2.1482,0.0,0.0,0.0,0.0,0.0,0.0,0.0,0.0,0.0,0.0,-0.3495,-0.4587,-0.598,-0.7509,-0.8637,-0.9081,-0.958,-0.9898,-1.0017,-0.9886,-0.9845,-0.9936,-0.9795,-0.991,-1.0321,-0.9982,-1.0091,-1.0676,-1.0449,-1.0484,-1.0778,-1.1062,-1.1235,-1.1318,-1.1981,-1.2404,-1.2629,-1.3121,-1.342,-1.358,-1.3687,-1.3816,-1.3962,-1.4052,-1.4082,-1.4178,-1.4814,-1.5235,-1.5517,-1.5377,-1.5657,-1.6225,-1.7453,-1.7874,-1.7904,-1.7895,-1.7978,-1.8165,-1.8532,0.0,0.0,-2.0936,-2.1733,-2.2386,-2.274,-2.3154,-2.3525,-2.3793,-2.3991,-2.4272,-2.4708,-2.549,-2.6257,-2.6801,-2.7553,-2.821,-2.8545,-2.8566,-2.8526,-2.8526,-2.8721,-2.8606,-2.8087,-2.8327,-2.8223,-2.7539,-2.7103,-2.6857,-2.694,-2.6207,-2.5675,-2.5517,-2.5041,-2.4743,-2.4605,-2.4272,-2.4067,-2.4067,-2.3754,-2.3624,-2.358,-2.3319,-2.2969,-2.2627,-2.2627,-2.2407,-2.2132,-2.2132,-2.182,-2.1329,-2.1329,-2.1051,-2.0682,-2.0473,-2.06,-2.088,0.0,0.0,0.0,0.0,0.0,0.0,0.0,0.0,0.0,0.0,0.0,0.0,0.0,-0.7301,-0.7975,-0.9097,-0.9105,-0.927,-0.9787,-0.9684,-0.9485,-0.9244,-0.911,-0.8978,-0.8858,-0.8837,-0.8958,-0.9177,-0.8846,-0.8776,-0.8969,-0.9108,-0.94,-0.9811,-1.0607,-1.1186,-1.1595,-1.2128,-1.2428,-1.2544,-1.2544,-1.2864,-1.3326,-1.3125,-1.2844,-1.2637,-1.3321,-1.3584,-1.3575,-1.3503,-1.3714,-1.4184,-1.5342,-1.5989,-1.6465,-1.6996,-1.7412,-1.7779,-1.8138,0.0,-2.0198,-2.1083,-2.2054,-2.2767,-2.2651,-2.3431,-2.4016,-2.3499,-2.3976,-2.4442,-2.4261,-2.5217,-2.6004,-2.6015,-2.6865,-2.7458,-2.7267,-2.7655,-2.7933,-2.7933,-2.8002,-2.7765,0.0,-2.747,-2.7296,-2.6063,-2.5937,-2.5843,-2.5569,-2.5538,-2.52,-2.454,-2.454,-2.4282,-2.3841,-2.3841,-2.3797,-2.3797,-2.3353,-2.3135,-2.3101,-2.2652,-2.2309,-2.2097,-2.2097,-2.1883,-2.1437,-2.1437,-2.0979,-2.0337,-2.0337,-2.0155,-1.9936,-1.9716,-2.0073,-2.0752,0.0,0.0,0.0,0.0,0.0,0.0,0.0,0.0,0.0,0.0,0.0,0.0,0.0,0.0,0.0,0.0,-0.8045,-0.8228,-0.845,-0.8272,-0.812,-0.8082,-0.7694,-0.7472,-0.7472,-0.7417,-0.7517,-0.7782,-0.7612,-0.7653,-0.7841,-0.7982,-0.8191,-0.8477,-0.9292,-0.9837,-1.0215,-1.0833,-1.1257,-1.1524,-1.1756,-1.1679,-1.141,-1.1221,-1.0726,-1.0033,0.0,-1.0095,-1.0958,-1.0859,-1.1101,-1.1781,-1.3743,-1.4449,-1.4812,-1.6032,-1.6645,-1.7216,-1.8256,0.0,-2.0527,-2.135,-2.2267,-2.2974,-2.305,-2.3539,-2.3925,-2.3609,-2.3857,-2.4043,-2.3824,-2.4789,-2.5615,-2.5615,-2.657,-2.7267,-2.7226,-2.7062,-2.6951,-2.6951,-2.6995,0.0,0.0,0.0,0.0,-2.6174,-2.6082,-2.5988,-2.5779,-2.4893,-2.4262,-2.4057,-2.344,-2.3101,-2.3144,-2.2838,-2.275,-2.2872,-2.2574,-2.2264,-2.1963,-2.1785,-2.1597,-2.1365,-2.1365,-2.1186,-2.0934,-2.0934,-2.0564,-2.0019,-2.0019,-1.9891,-1.9671,-1.9633,-1.9533,-1.9487,0.0,0.0,0.0,0.0,0.0,0.0,0.0,0.0,0.0,0.0,0.0,0.0,0.0,0.0,0.0,0.0,0.0,-0.7258,-0.7461,-0.7109,-0.6928,-0.695,-0.6379,-0.5956,-0.5771,-0.5632,-0.558,-0.5647,-0.5403,-0.5367,-0.5525,-0.5838,-0.617,-0.6536,-0.7585,-0.8094,-0.8184,-0.8838,-0.9283,-0.9531,-0.9531,-0.9513,-0.9417,-0.9048,-0.8397,0.0,-0.6888,-0.727,-0.8093,-0.8458,-0.9183,-1.0271,-1.221,-1.3638,-1.47,-1.5493,-1.6282,-1.7075,-1.8008,-1.9183,-2.0323,-2.1156,-2.1834,-2.2381,-2.2759,-2.3095,-2.3343,-2.3375,-2.3482,-2.353,-2.3335,-2.3989,-2.457,-2.4581,-2.5395,-2.6057,-2.6225,-2.6095,-2.6091,-2.6257,-2.6248,-2.6008,0.0,0.0,0.0,-2.5663,-2.5737,-2.56,-2.5052,-2.4176,-2.358,-2.3309,-2.2696,-2.2397,-2.2397,-2.2097,-2.2008,-2.2052,-2.1919,-2.1651,-2.1248,-2.1248,-2.106,-2.0727,-2.0727,-2.0555,-2.03,-2.03,-2.0065,-1.9654,-1.9417,-1.9242,-1.9028,-1.8781,-1.845,-1.8265,0.0,0.0,0.0,0.0,0.0,0.0,0.0,0.0,0.0,0.0,0.0,0.0,0.0,0.0,0.0,0.0,0.0,0.0,-0.6757,-0.6239,-0.591,-0.59,-0.5191,-0.445,-0.3773,-0.3511,-0.3208,-0.2845,-0.2334,-0.2123,-0.2198,-0.2873,-0.3431,-0.3995,-0.551,-0.5922,-0.5557,-0.616,-0.6536,-0.667,-0.6128,-0.6494,-0.7275,-0.6651,-0.5942,-0.5313,-0.5179,-0.5078,-0.515,-0.64,-0.7999,-0.9714,-1.1028,-1.3579,-1.5956,-1.5421,-1.6265,-1.7417,-1.7526,-1.8522,-1.9674,-2.0519,-2.0852,-2.1165,-2.1797,-2.2129,-2.2375,-2.2829,-2.2927,-2.2889,-2.2687,-2.29,-2.3094,-2.3168,-2.3591,-2.4079,-2.4465,-2.4889,-2.5319,0.0,0.0,0.0,0.0,0.0,0.0,-2.4498,0.0,-2.469,-2.359,-2.3503,-2.3101,-2.2344,-2.2299,-2.2087,-2.1642,-2.1651,-2.1517,-2.1347,-2.1347,-2.1195,-2.0952,-2.0952,-2.069,-2.0246,-2.0292,-2.0027,-1.9587,-1.9541,-1.9387,-1.9096,-1.8527,-1.821,-1.7939,-1.7232,-1.699,-1.7131,0.0,0.0,0.0,0.0,0.0,0.0,0.0,0.0,0.0,0.0,0.0,0.0,0.0,0.0,0.0,0.0,0.0,0.0,-0.5374,-0.4944,-0.4618,-0.4525,-0.3649,-0.2742,-0.1831,-0.1699,-0.1299,-0.0603,-0.0785,-0.0809,-0.0733,-0.1172,-0.1528,-0.1842,-0.2715,-0.3105,-0.3145,-0.3835,-0.4212,-0.4309,-0.4493,-0.4329,-0.3935,-0.3921,-0.3475,-0.2835,-0.307,-0.3207,-0.3578,-0.5342,-0.8038,-1.0986,-1.2874,-1.4463,-1.571,-1.5941,-1.6662,-1.7558,-1.8224,-1.8954,-1.9698,-2.0486,-2.0747,-2.0887,-2.1224,-2.1508,-2.1644,-2.1645,-2.188,-2.2147,-2.2232,-2.2572,-2.315,-2.4019,-2.4294,0.0,-2.4775,-2.4734,0.0,-2.4378,0.0,-2.4257,-2.4166,-2.4565,0.0,0.0,-2.4349,-2.4595,-2.3973,-2.3125,-2.2255,-2.1401,-2.123,-2.0961,-2.0654,-2.0654,-2.0609,-2.0564,-2.0382,-2.0164,-1.9936,-2.011,-2.0019,-1.9808,-1.9936,-1.9745,-1.9288,-1.9104,-1.8781,-1.8311,-1.7792,-1.7466,-1.7232,-1.6864,-1.6574,-1.6426,0.0,0.0,0.0,0.0,0.0,0.0,0.0,0.0,0.0,0.0,0.0,0.0,0.0,0.0,0.0,0.0,0.0,0.0,0.0,-0.3652,-0.3378,-0.3216,-0.214,-0.115,-0.0342,0.0233,0.0818,0.1438,0.1486,0.1497,0.1446,0.0999,0.0609,0.0276,-0.072,-0.1036,-0.0894,-0.1546,-0.1908,0.0,0.0,-0.1795,-0.1628,-0.1439,-0.115,-0.0841,-0.1063,-0.1677,-0.2818,-0.5319,0.0,-1.1482,-1.4011,-1.5317,-1.6026,-1.6258,0.0,-1.7388,-1.7697,-1.8286,-1.9022,-1.9747,-1.9811,-1.9897,-2.0449,-2.0557,-2.0598,-2.0745,-2.0861,-2.1032,-2.1223,-2.1498,-2.2084,0.0,0.0,0.0,-2.4087,-2.3939,-2.3671,0.0,-2.344,0.0,-2.3363,-2.3701,-2.3604,0.0,-2.3747,-2.4039,-2.3236,-2.252,-2.1722,-2.0907,-2.0645,-2.0292,-1.9828,-1.9828,-1.9828,-1.9828,-1.9654,-1.9617,-1.9587,-1.9716,-1.9617,-1.9433,0.0,-1.9379,-1.9004,-1.8496,-1.8164,-1.7839,-1.6998,-1.6574,-1.6386,-1.5818,-1.5486,-1.5337,0.0,0.0,0.0,0.0,0.0,0.0,0.0,0.0,0.0,0.0,0.0,0.0,0.0,0.0,0.0,0.0,0.0,0.0,0.0,0.0,-0.2181,-0.1981,-0.0725,0.0283,0.0962,0.2095,0.2873,0.323,0.3837,0.4039,0.3788,0.3219,0.276,0.234,0.1016,0.0753,0.1272,0.0729,0.0326,0.0148,0.0852,0.0723,0.0183,0.0,0.0835,0.0746,0.0593,-0.0538,-0.2459,-0.5544,-0.8502,-1.1406,-1.4382,-1.5852,-1.6489,-1.6357,-1.6706,-1.7044,-1.6798,-1.7282,-1.8061,-1.8626,-1.8635,-1.8684,-1.9469,-1.9485,-1.9448,-1.9852,0.0,-1.9766,-1.9998,-2.0088,-2.0527,-2.16,0.0,-2.203,-2.2879,-2.2852,-2.2686,-2.268,-2.2785,-2.2838,-2.2671,-2.2838,-2.2784,-2.2309,-2.3028,-2.3062,-2.2052,-2.1785,-2.1329,-2.0609,-2.0292,-1.9828,-1.9188,-1.9142,-1.9142,-1.9188,-1.9142,-1.925,-1.945,-1.9496,-1.9342,-1.905,0.0,0.0,-1.8664,-1.7863,-1.7569,-1.7439,-1.6136,-1.5588,-1.5493,-1.4538,-1.4202,-1.4106,0.0,0.0,0.0,0.0,0.0,0.0,0.0,0.0,0.0,0.0,0.2487,0.0,0.0,0.0,0.0,0.0,0.0,0.0,0.0,0.0,0.0,-0.0726,0.0307,0.1341,0.2336,0.3262,0.3962,0.4409,0.4737,0.4873,0.4843,0.4494,0.444,0.451,0.362,0.327,0.3329,0.2758,0.2366,0.2199,0.2336,0.2383,0.2327,0.2028,0.0,0.0,0.0961,-0.0201,-0.1785,-0.4131,-0.7353,-1.0855,-1.3457,-1.5161,-1.6202,-1.6272,-1.65,-1.6804,-1.7157,-1.7364,-1.7608,-1.8037,-1.8237,-1.835,-1.8408,-1.8464,0.0,0.0,-1.8499,-1.8714,-1.9123,-1.9361,-1.9829,-2.0977,0.0,0.0,0.0,0.0,-2.2142,0.0,0.0,0.0,0.0,0.0,0.0,0.0,0.0,-2.1748,-2.1535,-2.1472,-2.1024,-2.0065,-1.9425,-1.9104,-1.9188,-1.8966,-1.8966,-1.9188,-1.8966,-1.8789,-1.8713,-1.8835,-1.8689,-1.8319,-1.8542,0.0,-1.8324,-1.7216,-1.6847,-1.6815,-1.5199,-1.4586,-1.449,-1.3871,-1.3636,-1.3636,0.0,0.0,0.0,0.0,0.0,0.0,0.0,0.0,0.0,0.0,0.4051,0.2686,0.0,0.0,0.0,0.0,0.0,0.0,0.0,0.0,0.0,0.0,0.1423,0.2232,0.2905,0.3788,0.437,0.4605,0.0,0.5018,0.4889,0.4701,0.4594,0.4607,0.389,0.3271,0.2726,0.2913,0.2546,0.1878,0.2779,0.3155,0.3209,0.0,0.0,0.0,0.1868,0.077,-0.0503,-0.2495,-0.5549,-0.9122,-1.2396,-1.3881,-1.4577,-1.5383,-1.5593,-1.5698,-1.6288,-1.6721,-1.7119,-1.7726,-1.7898,-1.7909,-1.7937,0.0,0.0,0.0,-1.7463,-1.7588,-1.8058,-1.8418,0.0,0.0,0.0,0.0,0.0,0.0,0.0,0.0,0.0,0.0,0.0,0.0,0.0,0.0,0.0,-2.0718,-2.1006,-2.0411,-1.9729,-1.9004,-1.8643,-1.8411,-1.8411,-1.8558,-1.8651,-1.8635,-1.8504,-1.8373,-1.828,-1.8234,-1.8087,-1.79,-1.7893,0.0,-1.7712,-1.6465,-1.6014,-1.5892,-1.4292,-1.3775,-1.3823,-1.3147,-1.3001,-1.3104,0.0,0.0,0.0,0.0,0.0,0.0,0.0,0.681,0.6535,0.6371,0.5389,0.416,0.275,0.2014,0.1421,0.0,0.0,0.0,0.0,0.0,0.0,0.0,0.0,0.0,0.0,0.0,0.0,0.0,0.4849,0.0,0.0,0.0,0.0,0.0,0.354,0.277,0.1901,0.2626,0.2331,0.0,0.0,0.3529,0.0,0.0,0.0,0.0,0.0,0.1675,0.0602,-0.1175,-0.3841,-0.7093,-1.0785,-1.2293,-1.2967,-1.4245,-1.4553,-1.4628,-1.5348,-1.6009,-1.6649,-1.7303,-1.7462,-1.7408,-1.731,-1.714,0.0,0.0,-1.6436,-1.6607,-1.6984,-1.7408,-1.8019,0.0,-1.9121,0.0,0.0,0.0,0.0,0.0,0.0,0.0,0.0,0.0,0.0,0.0,0.0,0.0,-2.0138,-1.9117,-1.8334,-1.7846,-1.7893,-1.7854,-1.7714,-1.8102,-1.8288,-1.8187,-1.8133,-1.804,-1.79,-1.7714,-1.7581,-1.7441,-1.7239,0.0,0.0,-1.5744,-1.521,-1.4968,-1.3505,-1.3098,-1.3201,-1.2565,-1.2419,-1.2467,0.0,0.0,0.0,0.0,0.0,0.0,0.0,0.7663,0.7391,0.6893,0.6161,0.5288,0.4295,0.3072,0.2213,0.0,0.0,0.0,0.0,0.0,0.0,0.0,0.0,0.0,0.0,0.0,0.0,0.0,0.0,0.0,0.0,0.0,0.0,0.0,0.0,0.0,0.27,0.2727,0.0,0.0,0.0,0.0,0.0,0.0,0.0,0.0,0.0,0.1978,0.084,-0.0723,0.0,-0.5444,-0.8011,-1.0317,-1.2251,-1.3174,0.0,0.0,-1.5112,-1.5721,-1.6175,-1.6395,-1.6857,-1.6968,-1.5929,0.0,-1.6223,-1.5366,-1.5518,-1.5816,-1.5858,-1.6394,-1.6779,-1.6721,-1.744,-1.8204,0.0,0.0,0.0,0.0,0.0,0.0,0.0,0.0,0.0,0.0,0.0,0.0,-1.8326,-1.801,-1.7544,-1.703,-1.7225,-1.7466,-1.7692,-1.7761,-1.8009,-1.8481,-1.8234,-1.7846,-1.7372,-1.7333,-1.7099,-1.6676,-1.6683,0.0,0.0,-1.5145,-1.4527,-1.4117,-1.2903,-1.2467,-1.2467,-1.2175,-1.1883,-1.1683,0.0,0.0,0.0,0.0,0.0,0.0,0.0,0.8057,0.7704,0.7426,0.6528,0.569,0.5064,0.4141,0.3272,0.0,0.0,0.0,0.0,0.0,0.0,0.0,0.0,0.0,0.0,0.0,0.0,0.0,0.0,0.0,0.0,0.0,0.0,0.0,0.0,0.0,0.0,0.0,0.0,0.0,0.0,0.0,0.0,0.0,0.0,0.0,0.0,0.0,0.0,0.0,0.0,0.0,-0.7098,-0.8696,0.0,0.0,-1.2651,-1.3172,-1.4156,-1.498,-1.5713,-1.6184,-1.6577,-1.6568,-1.5551,0.0,-1.5734,-1.4676,-1.4793,-1.511,-1.511,-1.545,-1.5831,-1.6162,-1.656,-1.7064,-1.7839,0.0,0.0,0.0,0.0,0.0,0.0,0.0,0.0,0.0,0.0,0.0,-1.6089,-1.6379,-1.6332,-1.5805,-1.6048,-1.6143,-1.6082,-1.6224,-1.6419,-1.6622,-1.6379,-1.6136,-1.5954,-1.5622,-1.5575,-1.5676,-1.5194,0.0,0.0,-1.4231,-1.3808,-1.3772,-1.2266,-1.1785,-1.1834,-1.1243,-1.1047,-1.11,0.0,0.0,0.0,0.0,0.0,0.0,0.8724,0.8275,0.7884,0.7773,0.6859,0.6011,0.5475,0.4893,0.4078,0.2928,0.0,0.0,0.0,0.0,0.0,0.0,0.0,0.0,0.0,0.0,0.0,0.3408,0.0,0.0,0.0,0.0,0.0,0.0,0.0,0.0,0.0,0.0,0.0,0.0,0.0,0.0,0.0,0.0,0.0,0.0,0.0,0.0,0.0,0.0,0.0,-0.4893,-0.6693,-0.7752,-0.8741,-1.0843,-1.1664,-1.2177,-1.3216,-1.4109,-1.4915,-1.5535,-1.5815,-1.5755,0.0,0.0,-1.4917,-1.4054,-1.4172,-1.4405,-1.4405,-1.4657,-1.5082,-1.5582,-1.579,-1.6152,-1.6988,0.0,0.0,0.0,0.0,0.0,0.0,0.0,0.0,0.0,0.0,0.0,0.0,-1.4867,-1.4867,-1.4526,-1.4813,-1.4854,-1.4704,-1.4841,-1.5086,-1.5289,-1.4848,-1.4704,-1.4717,-1.4292,-1.4286,-1.4717,0.0,0.0,0.0,-1.3521,-1.3087,-1.3068,-1.1642,-1.1145,-1.1145,-1.0413,-1.0265,-1.0413,0.0,0.0,0.0,0.0,0.0,0.0,0.0,0.8386,0.7979,0.7912,0.7196,0.638,0.5578,0.5255,0.451,0.3024,0.0,0.0,0.0,0.0,0.0,0.0,0.0,0.0,0.0,0.0,0.2183,0.2521,0.2043,0.1959,0.0,0.0,0.0,0.0,0.0,0.0,0.0,0.0,0.0,0.0,0.0,0.0,0.0,0.0,0.0,0.0,0.0,0.0,0.0,0.0,0.0,0.0,0.0,-0.7621,-0.8426,-1.0113,-1.086,-1.1371,-1.2492,-1.3165,-1.3649,-1.4185,-1.4386,-1.4291,0.0,-1.3724,-1.3657,-1.337,-1.3535,-1.3695,-1.3695,-1.4104,-1.4482,-1.4692,-1.511,-1.5511,-1.5876,0.0,0.0,0.0,0.0,0.0,0.0,0.0,0.0,0.0,0.0,0.0,0.0,-1.3667,-1.3147,-1.3098,-1.3619,-1.3896,-1.3926,-1.3896,-1.4286,-1.4997,-1.4262,-1.3932,-1.3902,-1.3613,-1.3661,0.0,0.0,0.0,0.0,-1.3137,-1.2411,-1.1836,-1.1109,-1.0659,-1.0364,-0.9826,-0.9628,-0.9579,0.0,0.0,0.0,0.0,0.0,0.0,0.0,0.8537,0.8118,0.7676,0.693,0.6096,0.524,0.4707,0.4069,0.3171,0.0,0.0,0.0,0.0,0.0,0.0,0.0,0.0,0.0,0.0,0.1372,0.1874,0.1462,0.1494,0.2007,0.1934,0.1701,0.0,0.0,0.0,0.0,0.0,0.0,0.0,0.0,0.0,0.0,0.0,0.0,0.0,0.0,0.0,0.0,0.0,0.0,0.0,0.0,0.0,0.0,-0.9965,-1.0642,-1.1175,-1.2056,-1.2505,-1.2952,-1.4014,-1.4134,-1.389,-1.357,-1.3725,-1.3703,-1.2788,-1.2991,-1.3222,-1.3052,-1.313,-1.3464,-1.4181,-1.4258,-1.4461,0.0,0.0,0.0,0.0,0.0,0.0,0.0,0.0,0.0,0.0,0.0,0.0,0.0,-1.2608,-1.2419,-1.2613,-1.2802,-1.2797,-1.2597,-1.2257,-1.2257,-1.2689,-1.2058,-1.1868,-1.2019,-1.1575,0.0,0.0,0.0,0.0,0.0,-1.1766,-1.1509,-1.1946,-1.0316,-0.9768,-0.9772,-0.9031,-0.8783,-0.8779,0.0,0.0,0.0,0.0,0.0,0.0,0.0,0.8291,0.785,0.7377,0.6662,0.5886,0.5096,0.4514,0.3887,0.3183,0.0,0.0,0.0,0.0,0.0,0.0,0.0,0.0,0.0,0.0628,0.0771,0.1255,0.0944,0.1114,0.1699,0.1551,0.1371,0.1157,0.0,0.0,0.0,0.0,0.0,0.0,0.0,0.0,0.047,0.0,0.0,0.0,0.0,0.0,0.0,0.0,0.0,0.0,0.0,0.0,0.0,0.0,-1.0293,-1.0807,-1.1548,-1.1834,-1.2155,-1.3271,-1.327,0.0,-1.2994,-1.3076,-1.2968,-1.2227,-1.2337,-1.2518,-1.2349,-1.2258,-1.2457,-1.3408,-1.3372,-1.3372,0.0,0.0,0.0,0.0,0.0,0.0,0.0,0.0,0.0,0.0,0.0,0.0,0.0,-1.178,-1.1683,-1.1639,-1.1731,-1.1683,-1.1389,-1.1047,-1.1047,-1.1292,-1.0659,-1.0511,-1.0708,-1.0167,0.0,0.0,0.0,0.0,0.0,-1.0708,-1.0601,-1.117,-0.9543,-0.8977,-0.9031,-0.8233,-0.8031,-0.8081,0.0,0.0,0.0,0.0,0.0,0.0,0.0,0.0,0.0,0.0,0.6355,0.569,0.5009,0.4509,0.3882,0.0,0.0,0.0,0.0,0.0,0.0,0.0,0.0,0.0,0.0,0.0235,0.0323,0.0675,0.0547,0.0791,0.1333,0.1103,0.1131,0.1309,0.0948,0.0,0.0,0.0,0.0,0.0,-0.084,-0.0984,0.0,0.0,0.0,0.0,0.0,0.0,0.0,0.0,0.0,0.0,0.0,0.0,0.0,0.0,0.0,0.0,0.0,-1.1173,-1.1347,-1.2104,0.0,0.0,-1.2282,-1.1951,0.0,-1.1641,-1.1629,-1.163,-1.1613,-1.1411,-1.1542,-1.245,-1.24,0.0,0.0,0.0,0.0,0.0,0.0,0.0,0.0,0.0,0.0,0.0,0.0,0.0,0.0,-1.1096,-1.0855,-1.0364,-1.0556,-1.0556,-1.0413,-1.0364,-1.0511,-1.0752,-0.992,-0.9673,-0.9969,-0.9381,0.0,0.0,0.0,0.0,0.0,-0.9885,-0.9657,-0.974,-0.8709,-0.8283,-0.8233,-0.7434,-0.7285,-0.7431,0.0,0.0,0.0,0.0,0.0,0.0,0.0,0.0,0.0,0.0,0.5852,0.5161,0.4386,0.3802,0.331,0.0,0.0,0.0,0.0,0.0,0.0,0.0,0.0,0.0,0.0,-0.0142,0.0028,0.0312,0.0451,0.0615,0.0857,0.1006,0.0883,0.057,0.0557,0.0264,0.0,0.0,0.0,0.0,-0.1795,-0.2035,0.0,0.0,0.0,0.0,-0.3006,-0.337,0.0,0.0,0.0,0.0,0.0,0.0,0.0,0.0,-0.9992,-1.0304,-1.0782,0.0,-1.119,-1.2063,-1.1828,-1.156,0.0,-1.187,-1.1341,-1.1203,-1.1169,-1.1107,-1.0978,-1.0879,-1.101,-1.1531,-1.1456,0.0,0.0,0.0,0.0,0.0,0.0,0.0,0.0,0.0,0.0,0.0,0.0,0.0,0.0,-1.0216,-0.992,-0.9772,-0.9472,-0.9616,-1.0413,-0.9969,-1.0019,-1.0462,-0.9468,-0.9225,-0.9677,-0.8931,0.0,0.0,0.0,0.0,-0.9296,-0.8852,-0.8822,-0.8916,-0.7674,-0.7291,-0.7388,-0.6589,-0.6339,-0.6339,0.0,0.0,0.0,0.0,0.0,0.0,0.0,0.0,0.0,0.0,0.0,0.0,0.0,0.0,0.0,0.0,0.0,0.0,0.0,0.0,0.0,0.0,0.0,-0.017,-0.0315,-0.0172,0.0,0.0235,0.037,0.0536,0.0757,0.0748,0.0622,0.0388,0.0295,0.0,0.0,0.0,0.0,0.0,-0.2418,0.0,0.0,0.0,0.0,0.0,-0.3672,-0.3953,0.0,-0.5054,-0.597,-0.6893,0.0,0.0,0.0,0.0,-0.9695,-0.9884,-1.0406,-1.0707,-1.1059,-1.1764,-1.1456,-1.1109,-1.1621,-1.1244,-1.0783,-1.0559,0.0,-1.0666,-1.0548,-1.0329,-1.031,-1.0621,-1.0424,0.0,0.0,0.0,0.0,0.0,0.0,0.0,0.0,0.0,0.0,0.0,0.0,0.0,0.0,-0.9579,-0.9381,-0.9229,-0.8829,-0.8973,-0.9665,-0.9373,-0.9373,-0.9665,-0.8829,-0.8581,-0.8832,-0.8038,-0.7587,0.0,0.0,0.0,-0.7511,-0.7674,-0.772,-0.7612,-0.6608,-0.6389,-0.6589,-0.5892,-0.5641,-0.5591,0.0,0.0,0.0,0.0,0.0,0.0,0.0,0.0,0.0,0.0,0.0,0.0,0.0,0.0,0.0,0.0,0.0,0.0,0.0,0.0,0.0,0.0,0.0,0.0057,-0.0234,-0.0117,0.003,0.0245,0.0221,0.0418,0.0743,0.0422,0.0293,0.0357,0.0097,-0.0259,0.0,0.0,0.0,0.0,-0.2857,0.0,0.0,0.0,0.0,0.0,0.0,0.0,0.0,-0.5393,-0.6167,-0.698,-0.7553,0.0,0.0,0.0,0.0,0.0,-0.996,-1.0418,-1.0807,-1.1276,-1.0965,-1.0613,-1.0846,-1.0548,-1.0138,0.0,0.0,-1.0184,-1.0154,-0.9799,0.0,0.0,0.0,0.0,0.0,0.0,0.0,0.0,0.0,0.0,0.0,0.0,0.0,0.0,0.0,0.0,0.0,-0.9084,-0.8931,-0.8676,-0.8382,-0.8329,-0.8577,-0.8577,-0.8627,-0.8673,-0.8035,-0.7789,-0.7789,-0.6939,-0.6389,0.0,0.0,0.0,-0.5732,-0.6423,-0.6489,-0.6034,-0.5584,-0.5539,-0.5691,-0.519,-0.5039,-0.4989,0.0,0.0,0.0,0.0,0.0,0.0,0.0,0.0,0.0,0.0,0.0,0.0,0.0,0.0,0.0,0.0,0.0,0.0,0.0,0.0,0.0,0.0,0.0221,-0.0084,-0.0367,-0.0339,-0.0201,0.0059,-0.0061,0.0095,0.0549,0.0199,-0.0033,-0.0167,-0.0228,-0.0589,-0.1236,0.0,0.0,-0.2423,-0.3129,0.0,0.0,0.0,0.0,0.0,0.0,0.0,0.0,-0.5583,-0.6212,-0.6753,-0.7369,0.0,0.0,0.0,0.0,0.0,-0.9622,-0.9751,-1.0004,-1.0774,-1.0692,-1.0454,-1.0879,-1.0319,-0.9756,0.0,0.0,0.0,0.0,-0.9194,0.0,0.0,0.0,0.0,0.0,0.0,0.0,0.0,0.0,0.0,0.0,0.0,0.0,0.0,0.0,0.0,0.0,-0.8435,-0.8187,-0.8137,-0.7637,-0.7385,-0.7434,-0.7683,-0.7875,-0.8124,-0.7132,-0.6783,-0.693,-0.5929,-0.5284,0.0,0.0,-0.5018,-0.4383,-0.5166,-0.5166,-0.468,-0.4636,-0.4589,-0.4589,-0.4286,-0.4183,-0.4133,0.0,0.0,0.0,0.0,0.0,0.0,0.0,0.0,0.0,0.0,0.0,0.0,0.0,0.0,0.0,0.0,0.0,0.0,0.0,0.0,0.0,0.0851,0.0649,0.0275,-0.028,-0.0224,-0.0058,0.0151,0.0,0.0126,0.0496,0.0268,0.01,0.0,-0.0198,-0.0632,-0.121,-0.1681,-0.222,-0.2757,0.0,0.0,0.0,0.0,0.0,0.0,0.0,0.0,0.0,0.0,-0.656,-0.7026,-0.7488,0.0,0.0,0.0,0.0,0.0,-0.9082,-0.9121,-0.9246,-0.9735,-0.9828,-0.9805,-0.9984,-0.9545,-0.9056,0.0,0.0,0.0,0.0,0.0,0.0,0.0,0.0,0.0,0.0,0.0,0.0,0.0,0.0,0.0,0.0,0.0,0.0,0.0,0.0,0.0,0.0,0.0,-0.7587,-0.7587,-0.7039,-0.6786,-0.6786,-0.6334,-0.6379,-0.6924,-0.6129,-0.5682,-0.5479,-0.4678,-0.4178,-0.3925,0.0,-0.3791,-0.3173,-0.3785,-0.3741,-0.3325,-0.3176,-0.3126,-0.3075,-0.2621,-0.2469,-0.242,0.0,0.0,0.0,0.0,0.0,0.0,0.0,0.0,0.0,0.0,0.0,0.0,0.0,0.0,0.0,0.0,0.0,0.0,0.0,0.0,0.1617,0.1037,0.0966,0.0603,-0.0085,-0.0028,0.0087,0.0216,0.0031,0.0096,0.0371,0.0337,0.0233,0.0131,-0.0167,-0.0606,-0.1109,-0.1513,-0.2084,-0.2757,0.0,0.0,0.0,0.0,0.0,0.0,0.0,0.0,0.0,0.0,0.0,0.0,0.0,0.0,0.0,-0.8218,-0.8319,-0.8495,-0.8537,-0.8493,-0.8526,-0.8812,-0.9067,-0.9192,-0.9224,-0.8862,-0.8461,0.0,0.0,0.0,0.0,0.0,0.0,0.0,0.0,0.0,0.0,0.0,0.0,0.0,0.0,0.0,0.0,0.0,0.0,0.0,0.0,0.0,0.0,0.0,-0.6839,-0.6736,-0.6234,-0.5884,-0.5834,-0.4983,-0.4883,-0.5632,-0.5029,-0.4427,-0.3927,-0.3377,-0.2975,-0.2719,-0.2779,-0.2487,-0.2066,-0.2431,-0.2338,-0.2019,-0.1875,-0.1777,-0.1674,-0.1269,-0.1012,-0.0857,0.0,0.0,0.0,0.0,0.0,0.0,0.0,0.0,0.0,0.0,0.0,0.0,0.0,0.0,0.0,0.0,0.0,0.0,0.0,0.0,0.1386,0.101,0.0824,0.0539,0.0176,0.0057,0.0,0.0031,-0.0123,-0.0096,0.0034,0.0202,0.0101,-0.0269,-0.0303,-0.0606,-0.1143,-0.1648,-0.1918,-0.2056,-0.2766,0.0,0.0,0.0,0.0,0.0,0.0,0.0,0.0,0.0,0.0,0.0,0.0,0.0,-0.7577,-0.7561,-0.7718,-0.7919,-0.8085,-0.791,-0.785,-0.8476,-0.878,-0.9007,-0.9239,-0.8751,0.0,-0.8464,0.0,0.0,0.0,0.0,0.0,0.0,0.0,0.0,0.0,0.0,0.0,0.0,0.0,0.0,0.0,0.0,0.0,0.0,0.0,0.0,0.0,0.0,0.0,-0.5381,-0.483,-0.4431,-0.4183,-0.383,-0.3982,-0.4489,-0.3728,-0.3074,-0.2521,-0.1969,-0.1616,-0.1313,-0.1109,-0.0958,-0.096,-0.121,-0.116,-0.0961,-0.1182,-0.1086,-0.0879,-0.0828,-0.0512,-0.0101,0.0,0.0,0.0,0.0,0.0,0.0,0.0,0.0,0.0,0.0,0.0,0.0,0.0,0.0,0.0,0.0,0.0,0.0,0.0,0.202,0.1685,0.126,0.1149,0.0928,0.0647,0.0437,0.0266,0.0185,0.0126,0.013,0.0202,0.0135,0.0101,0.0067,-0.027,-0.0606,-0.0941,-0.1277,-0.1681,-0.2124,-0.2462,-0.275,0.0,0.0,0.0,0.0,0.0,0.0,0.0,0.0,-0.6602,-0.6641,-0.6795,-0.706,-0.7277,-0.7014,-0.7332,-0.7745,-0.7533,-0.7558,-0.7729,-0.7943,-0.7889,-0.7897,-0.8273,-0.7848,-0.725,-0.7041,-0.6694,0.0,0.0,0.0,0.0,0.0,0.0,0.0,0.0,0.0,0.0,0.0,0.0,0.0,0.0,0.0,0.0,0.0,0.0,0.0,0.0,0.0,0.0,-0.4481,-0.3927,-0.3626,-0.3527,-0.2722,-0.247,-0.2671,-0.252,-0.2169,-0.1615,-0.1111,-0.0808,-0.0657,-0.0253,-0.0051,-0.0051,0.0,0.0153,0.0309,0.0576,0.068,0.0777,0.114,0.1332,0.1513,0.0,0.0,0.0,0.0,0.0,0.0,0.0,0.0,0.0,0.0,0.0,0.0,0.0,0.0,0.0,0.0,0.0,0.0,0.2317,0.2124,0.1902,0.1565,0.1453,0.1331,0.1176,0.1001,0.0748,0.0463,0.0509,0.0557,0.0539,0.0337,0.0269,0.027,-0.0067,-0.0404,-0.0706,-0.0908,-0.1446,-0.2127,-0.2275,-0.2613,0.0,0.0,0.0,0.0,0.0,0.0,0.0,0.0,-0.6093,-0.6131,-0.6247,-0.6475,-0.6659,-0.6557,-0.687,-0.7238,-0.7114,-0.7148,-0.7255,-0.7356,-0.7027,-0.6786,-0.7231,-0.6877,-0.639,-0.6127,-0.5725,0.0,0.0,0.0,0.0,0.0,0.0,0.0,0.0,0.0,0.0,0.0,0.0,0.0,0.0,0.0,0.0,0.0,0.0,0.0,0.0,0.0,0.0,0.0,-0.2873,-0.252,-0.242,-0.1613,-0.1211,-0.1211,-0.1253,-0.1104,-0.0808,-0.0455,-0.0202,0.0,0.0354,0.0558,0.0561,0.0764,0.0982,0.1216,0.1818,0.2026,0.2003,0.2411,0.2585,0.2695,0.0,0.0,0.0,0.0,0.0,0.0,0.0,0.0,0.0,0.0,0.0,0.0,0.0,0.0,0.0,0.0,0.0,0.0,0.2301,0.205,0.1892,0.1892,0.1708,0.1678,0.179,0.1792,0.1464,0.0803,0.1016,0.1111,0.1109,0.0908,0.0605,0.0303,0.0303,0.0,-0.0506,-0.0706,-0.1211,-0.1927,-0.2246,-0.2797,-0.3387,0.0,0.0,0.0,0.0,0.0,0.0,0.0,-0.5004,-0.5043,-0.5467,-0.5583,-0.5664,-0.6141,-0.6208,-0.6241,-0.6918,-0.6654,-0.6322,-0.6787,0.0,0.0,-0.6251,-0.603,-0.5766,-0.6038,-0.5329,-0.4467,-0.3733,0.0,0.0,0.0,0.0,0.0,0.0,0.0,0.0,0.0,0.0,0.0,0.0,0.0,0.0,0.0,0.0,0.0,0.0,0.0,0.0,0.0,-0.1464,-0.1061,-0.0808,-0.0505,-0.0404,-0.0404,0.0149,0.0248,0.0,0.0,0.0303,0.0808,0.0808,0.0868,0.0935,0.0935,0.1273,0.1859,0.2407,0.2626,0.262,0.2628,0.2898,0.3313,0.0,0.0,0.0,0.0,0.0,0.0,0.0,0.0,0.0,0.0,0.0,0.0,0.0,0.0,0.0,0.0,0.0,0.0,0.2342,0.2348,0.2253,0.1971,0.1914,0.1801,0.1674,0.1697,0.1572,0.1304,0.0975,0.0834,0.0874,0.0673,0.0539,0.0438,0.0202,0.0,-0.0169,-0.0472,-0.0783,-0.1146,-0.1437,-0.176,-0.2081,0.0,0.0,0.0,0.0,0.0,0.0,0.0,0.0,0.0,-0.4496,-0.4587,-0.4731,-0.5334,-0.5624,-0.5823,-0.617,-0.6087,0.0,-0.5602,0.0,0.0,0.0,-0.4832,0.0,0.0,-0.3888,-0.3362,0.0,0.0,0.0,0.0,0.0,0.0,0.0,0.0,0.0,0.0,0.0,0.0,0.0,0.0,0.0,0.0,0.0,0.0,0.0,0.0,0.0,0.0,-0.0656,-0.0303,-0.0253,0.0202,0.0455,0.0455,0.0804,0.0703,0.0303,0.0648,0.1047,0.1365,0.1587,0.1858,0.2027,0.2079,0.2329,0.2734,0.3157,0.337,0.3551,0.3805,0.3917,0.4006,0.0,0.0,0.0,0.0,0.0,0.0,0.0,0.0,0.0,0.0,0.0,0.0,0.0,0.0,0.0,0.0,0.0,0.0,0.0,0.2321,0.223,0.1978,0.2052,0.2094,0.2038,0.1984,0.1883,0.1773,0.1354,0.1158,0.1244,0.0942,0.0741,0.0607,0.0404,0.0202,0.0,-0.0205,-0.0553,-0.0949,-0.1131,-0.1344,-0.1631,0.0,0.0,0.0,0.0,0.0,0.0,0.0,0.0,0.0,-0.3642,-0.3768,-0.394,-0.463,-0.4924,-0.5064,-0.5392,-0.5272,0.0,-0.4636,-0.4208,-0.3771,-0.3532,0.0,0.0,0.0,0.0,0.0,0.0,0.0,0.0,0.0,0.0,0.0,0.0,0.0,0.0,0.0,0.0,0.0,0.0,0.0,0.0,0.0,0.0,0.0,0.0,0.0,0.0,0.0,0.0101,0.0303,0.0303,0.0758,0.101,0.1111,0.1404,0.1409,0.1224,0.1452,0.1655,0.1993,0.2289,0.2569,0.2734,0.305,0.3367,0.37,0.4018,0.4287,0.4521,0.4709,0.4775,0.4882,0.0,0.0,0.0,0.0,0.0,0.0,0.0,0.0,0.0,0.0,0.4755,0.0,0.0,0.0,0.0,0.0,0.0,0.0,0.0,0.0,0.2004,0.1934,0.2137,0.2387,0.2676,0.2441,0.2273,0.2188,0.1901,0.1794,0.185,0.145,0.1115,0.0812,0.0778,0.0507,0.0068,0.0069,-0.0351,-0.0989,-0.104,-0.1288,-0.1635,-0.1714,0.0,0.0,0.0,0.0,0.0,0.0,0.0,0.0,-0.2853,-0.3083,-0.3229,-0.3962,-0.4097,-0.413,-0.4517,-0.4276,-0.3805,-0.376,-0.3409,0.0,-0.2263,-0.3018,-0.3575,0.0,0.0,0.0,0.0,0.0,0.0,0.0,0.0,0.0,0.0,0.0,0.0,0.0,0.0,0.0,0.0,0.0,0.0,0.0,0.0,0.0,0.0,0.0,0.0,0.0455,0.0757,0.0908,0.0857,0.1161,0.1413,0.0,0.1984,0.2258,0.254,0.2239,0.2295,0.2653,0.2958,0.3139,0.3206,0.3808,0.4305,0.4637,0.4869,0.5206,0.5472,0.5442,0.5576,0.5782,0.0,0.0,0.0,0.0,0.0,0.0,0.0,0.0,0.0,0.0,0.0,0.0,0.0,0.0,0.0,0.0,0.0,0.0,0.0,0.0,0.2303,0.2069,0.2008,0.2193,0.2607,0.2358,0.2212,0.2188,0.1709,0.1473,0.1412,0.1066,0.0938,0.1008,0.0695,0.0625,0.0695,0.0524,0.0213,-0.0217,-0.0075,-0.0459,-0.1053,-0.0745,-0.1021,0.0,0.0,0.0,0.0,0.0,0.0,0.0,-0.1896,-0.2109,-0.2422,-0.3144,-0.3368,-0.3426,-0.3515,-0.3436,0.0,0.0,-0.2498,-0.2264,-0.1746,-0.2014,0.0,0.0,0.0,0.0,0.0,0.0,0.0,0.0,0.0,0.0,0.0,0.0,0.0,0.0,0.0,0.0,0.0,0.0,0.0,0.0,0.0,0.0,0.0,0.0,0.0,0.0707,0.1363,0.1604,0.1334,0.1854,0.2154,0.0,0.2695,0.2996,0.3112,0.285,0.303,0.3597,0.3771,0.3993,0.4262,0.4519,0.4941,0.5383,0.5569,0.5824,0.6158,0.6354,0.6292,0.6277,0.0,0.0,0.0,0.0,0.0,0.0,0.0,0.0,0.0,0.0,0.0,0.0,0.0,0.0,0.0,0.0,0.0,0.0,0.0,0.0,0.1783,0.1856,0.1666,0.1778,0.2255,0.2065,0.1868,0.172,0.1369,0.1268,0.1338,0.1079,0.1023,0.1142,0.0714,0.0638,0.0737,0.0324,0.0036,-0.0146,-0.0152,-0.0311,-0.0589,-0.0471,-0.0589,-0.0825,-0.0786,0.0,0.0,0.0,0.0,0.0,0.0,0.0,-0.1663,-0.2292,-0.2515,-0.2523,-0.2549,0.0,0.0,-0.1635,0.0,-0.1416,-0.1204,-0.1072,0.0,0.0,0.0,0.0,0.0,0.0,0.0,0.0,0.0,0.0,0.0,0.0,0.0,0.0,0.0,0.0,0.0,0.0,0.0,0.0,0.0,0.0,0.0,0.1314,0.1465,0.1564,0.1868,0.196,0.194,0.236,0.2661,0.2734,0.3162,0.3684,0.4199,0.3745,0.38,0.4255,0.4463,0.4725,0.4996,0.5245,0.5607,0.599,0.6204,0.6478,0.6856,0.7128,0.7163,0.7152,0.0,0.0,0.0,0.0,0.0,0.0,0.0,0.0,0.0,0.0,0.0,0.0,0.0,0.0,0.0,0.0,0.0,0.0,0.0,0.0,0.0,0.1453,0.1246,0.1316,0.1724,0.1708,0.1516,0.1159,0.1012,0.104,0.1137,0.0959,0.0937,0.1034,0.0594,0.0439,0.0463,-0.0037,-0.03,-0.0368,-0.0502,-0.051,-0.0471,-0.051,-0.0471,-0.0354,-0.0473,-0.0512,-0.0511,-0.0513,0.0,0.0,0.0,0.0,-0.1025,-0.1488,-0.1637,-0.1649,-0.159,-0.1379,-0.1123,-0.0739,-0.0659,0.0,-0.0589,-0.0247,0.0,0.0,0.0,0.0,0.0,0.0,0.0,0.0,0.0,0.0,0.0,0.0,0.0,0.0,0.0,0.0,0.0,0.0,0.0,0.0,0.0,0.0,0.1717,0.1768,0.202,0.2472,0.2323,0.237,0.2611,0.287,0.3123,0.3314,0.3687,0.4387,0.5346,0.4813,0.472,0.486,0.5118,0.5357,0.555,0.5894,0.6193,0.6516,0.6848,0.7141,0.7519,0.7789,0.798,0.81,0.0,0.0,0.0,0.0,0.0,0.0,0.0,0.0,0.0,0.0,0.0,0.0,0.0,0.0,0.0,0.0,0.0,0.0,0.0943,0.0,0.0,0.0979,0.0836,0.0868,0.1117,0.1431,0.1386,0.0952,0.0878,0.0592,0.0112,0.0075,0.019,0.0389,-0.008,-0.0157,0.0075,-0.0077,-0.0347,-0.0642,-0.0427,-0.0668,-0.11,-0.055,-0.0432,-0.0512,-0.0201,-0.008,-0.0079,-0.008,-0.02,0.0,0.0,0.0,-0.0774,-0.082,-0.1,-0.1101,-0.0679,0.0,-0.0532,0.0,-0.0428,-0.0337,0.0,0.0,0.0,0.0,0.0,0.0,0.0,0.0,0.0,0.0,0.0,0.0,0.0,0.0,0.0,0.0,0.0,0.0,0.0,0.0,0.0,0.0,0.0,0.0,0.227,0.2522,0.2675,0.2725,0.318,0.3357,0.3349,0.3653,0.3851,0.3837,0.4472,0.5206,0.5985,0.5877,0.5868,0.5901,0.5786,0.5862,0.6112,0.638,0.6646,0.6972,0.734,0.7621,0.7786,0.8116,0.8314,0.8484,0.0,0.0,0.0,0.0,0.0,0.0,0.0,0.0,0.0,0.0,0.0,0.0,0.0,0.0,0.0,0.0294,0.0474,0.0431,0.0077,-0.0258,-0.0227,0.0262,0.0151,0.0209,0.0479,0.0828,0.0743,0.0241,0.0297,0.0035,-0.0557,-0.0784,-0.0606,-0.0082,-0.0289,-0.0323,-0.0233,-0.0483,-0.0635,-0.0608,-0.0401,-0.0405,-0.0522,-0.0081,0.0041,0.0041,0.0,0.0,0.0,0.0754,0.0702,0.0441,0.0441,0.0,0.0,0.0,-0.0041,-0.0125,-0.0043,0.0088,0.0227,0.0,0.0288,0.0341,0.0594,0.0,0.0,0.0,0.0,0.0,0.0,0.0,0.0,0.0,0.0,0.0,0.0,0.0,0.0,0.0,0.0,0.0,0.0,0.0,0.0,0.0,0.0,0.2522,0.2826,0.2975,0.3176,0.3479,0.3682,0.3819,0.3788,0.4067,0.4368,0.463,0.527,0.5829,0.6294,0.6582,0.6551,0.6322,0.6442,0.6574,0.6772,0.7087,0.7299,0.7464,0.7938,0.8206,0.8437,0.8871,0.9128,0.9206,0.0,0.0,0.0,0.0,0.0,0.0,0.0,0.0,0.0,0.0,0.0,0.0,0.0,0.0,0.0,0.0,-0.0076,-0.0281,-0.069,-0.098,-0.097,-0.0564,-0.0548,-0.0405,-0.0162,0.0117,0.0061,-0.0358,-0.0333,-0.0534,-0.0996,-0.1373,-0.1264,-0.0763,-0.0864,-0.0889,-0.089,0.0,0.0,-0.0744,-0.0378,-0.0212,-0.0082,0.0,0.0,0.0,0.0,0.0,0.0,0.0,0.0,0.0,0.0,0.0,0.0,0.0,0.0,0.0821,0.0,0.0,0.1008,0.1128,0.1196,0.1259,0.0,0.0,0.0,0.0,0.0,0.0,0.0,0.0,0.0,0.0,0.0,0.0,0.0,0.0,0.0,0.0,0.0,0.0,0.0,0.0,0.0,0.0,0.0,0.2976,0.338,0.3428,0.3629,0.4085,0.4183,0.4234,0.4284,0.4609,0.5048,0.5558,0.6025,0.6435,0.6733,0.7183,0.7216,0.6912,0.7103,0.7305,0.7422,0.7663,0.7839,0.7913,0.8416,0.8712,0.8983,0.9444,0.9671,0.9761,0.0,0.0,0.0,0.0,0.0,0.0,0.0,0.0,0.0,0.0,0.0,0.0,-0.0338,-0.0648,-0.0816,-0.0765,-0.051,-0.0584,-0.1036,-0.1206,-0.1375,-0.1513,-0.1097,0.0,-0.0839,-0.058,-0.0449,-0.0493,-0.0908,-0.1187,-0.1287,-0.1547,-0.17,-0.174,-0.208,-0.2156,-0.2081,0.0,0.0,0.0,0.0,0.0,0.0,0.0,0.0,0.0,0.0,0.0,0.0,0.0,0.0,0.0,0.0,0.0,0.0,0.0,0.0,0.0,0.0,0.1456,0.0,0.2065,0.2318,0.0,0.0,0.0,0.0,0.0,0.0,0.0,0.0,0.0,0.0,0.0,0.0,0.0,0.0,0.0,0.0,0.0,0.0,0.0,0.0,0.0,0.0,0.0,0.0,0.3932,0.3934,0.3982,0.4085,0.4388,0.4636,0.4887,0.514,0.5535,0.5993,0.6519,0.6797,0.7136,0.7531,0.7817,0.7931,0.7916,0.7898,0.7837,0.7876,0.8014,0.8141,0.833,0.8734,0.9063,0.9305,0.9511,0.9671,0.9761,0.0,0.0,0.0,0.0,0.0,0.0,0.0,0.0,0.0,0.0,0.0,0.0,0.0,-0.1116,-0.1242,-0.1126,-0.1312,-0.1538,-0.1777,-0.2064,-0.2051,-0.1678,-0.1633,-0.1472,-0.1216,-0.1046,-0.0956,-0.1015,-0.1279,-0.1415,-0.1445,-0.1807,-0.1984,-0.2003,-0.2015,-0.1927,-0.169,-0.1856,0.0,0.0,0.0,0.0,0.0,0.0,0.0,0.0,0.0,0.0,0.0,0.0,0.0,0.0,0.0,0.0,0.0,0.0,0.0,0.0,0.0,0.0,0.0,0.3304,0.3417,0.3516,0.0,0.0,0.0,0.0,0.0,0.0,0.0,0.0,0.0,0.0,0.0,0.0,0.0,0.0,0.0,0.0,0.0,0.0,0.0,0.0,0.0,0.0,0.0,0.0,0.4853,0.5003,0.5085,0.5186,0.5438,0.5672,0.5897,0.6264,0.6621,0.7077,0.7421,0.7651,0.781,0.8332,0.8592,0.8589,0.8982,0.8903,0.8565,0.8849,0.9068,0.9283,0.9395,0.9529,0.9649,0.9922,1.0093,1.0091,0.0,0.0,0.0,0.0,0.0,0.0,0.0,0.0,0.0,0.0,0.0,0.0,0.0,0.0,-0.1925,-0.1784,-0.2127,-0.2442,-0.2667,-0.2728,-0.2579,-0.2174,-0.2184,-0.2014,-0.1589,-0.1534,-0.1455,-0.1417,-0.1507,-0.1568,-0.1572,-0.1924,-0.202,-0.1981,-0.1903,-0.1791,0.0,0.0,0.0,-0.0761,0.0,0.0,0.109,0.0,0.0,0.0,0.0,0.0,0.0,0.0,0.0,0.0,0.0,0.0,0.0,0.0,0.0,0.0,0.3681,0.0,0.0,0.0,0.0,0.0,0.0,0.0,0.0,0.0,0.0,0.0,0.0,0.0,0.0,0.0,0.0,0.0,0.0,0.0,0.0,0.0,0.0,0.0,0.0,0.0,0.0,0.0,0.0,0.0,0.5443,0.5549,0.5687,0.5887,0.6176,0.6508,0.6736,0.7015,0.7307,0.7565,0.8027,0.8234,0.8237,0.8934,0.9203,0.9199,0.9647,0.9592,0.9203,0.932,0.9563,0.9843,0.9794,0.9892,1.0015,1.0343,1.0366,1.0312,0.0,0.0,0.0,0.0,0.0,0.0,0.0,0.0,0.0,-0.0702,0.0,0.0,0.0,0.0,0.0,-0.2777,-0.2998,-0.3276,-0.3602,-0.3188,-0.2968,-0.3079,-0.2777,-0.2385,-0.1946,-0.2034,-0.1935,-0.1615,-0.1685,-0.1716,-0.1722,-0.1895,-0.1892,-0.1688,-0.18,-0.185,-0.181,0.0,-0.0865,-0.0187,0.0,0.1342,0.1592,0.0,0.0,0.0,0.4923,0.528,0.0,0.0,0.0,0.0,0.0,0.0,0.0,0.0,0.0,0.0,0.0,0.0,0.0,0.0,0.0,0.0,0.0,0.0,0.0,0.0,0.0,0.0,0.0,0.0,0.0,0.0,0.0,0.0,0.0,0.0,0.0,0.0,0.0,0.0,0.0,0.0,0.0,0.0,0.0,0.5634,0.5632,0.5634,0.5887,0.6387,0.6859,0.7245,0.7589,0.7823,0.7959,0.8033,0.8637,0.8913,0.8916,0.9533,0.9816,0.9816,0.9816,0.9816,0.9816,0.9544,0.9665,1.0015,0.9862,1.0046,1.0411,1.0631,1.0531,1.0374,0.0,0.0,0.0,0.0,0.0,0.0,0.0,0.0,-0.1567,0.0,0.0,0.0,-0.3118,-0.3605,-0.3979,-0.4148,-0.4256,-0.4213,-0.3912,-0.3676,-0.3386,-0.3042,-0.284,-0.2647,-0.242,-0.2302,-0.2172,-0.2022,-0.211,-0.2045,-0.1851,-0.1965,-0.1823,-0.1466,-0.1159,-0.0958,-0.0835,-0.1111,0.0,0.0,0.0566,0.1419,0.0,0.0,0.0,0.0,0.0,0.5158,0.0,0.0,0.6237,0.6931,0.0,0.0,0.0,0.0,0.0,0.0,0.5627,0.0,0.0,0.0,0.0,0.0,0.0,0.0,0.0,0.0,0.0,0.0,0.0,0.0,0.0,0.0,0.0,0.0,0.0,0.0,0.0,0.0,0.0,0.0,0.0,0.0,0.0,0.0,0.5897,0.6004,0.6312,0.6393,0.6639,0.6986,0.7217,0.7458,0.7808,0.7944,0.809,0.8341,0.8608,0.8876,0.915,0.9596,0.9926,1.0143,1.0366,1.0472,1.0417,1.0147,1.0225,1.051,1.0453,1.0499,1.0627,1.0891,1.0888,1.0891,0.0,0.0,0.0,0.0,0.0,0.0,0.0,0.0,-0.2647,0.0,0.0,0.0,-0.4382,-0.47,-0.4961,-0.5114,-0.51,-0.4934,-0.4519,-0.4246,-0.3887,-0.3384,-0.3218,-0.3005,-0.2787,-0.2689,-0.256,-0.2352,-0.2341,-0.2231,-0.2044,-0.2017,-0.1786,-0.1348,0.0,0.0,0.0,0.0,0.0,0.0,0.1099,0.0,0.0,0.3796,0.4438,0.0,0.0,0.0,0.6528,0.674,0.7229,0.0,0.0,0.0,0.0,0.0,0.0,0.0,0.0,0.0,0.0,0.0,0.0,0.0,0.7608,0.7196,0.0,0.0,0.0,0.0,0.0,0.0,0.0,0.0,0.0,0.0,0.0,0.0,0.0,0.0,0.0,0.0,0.0,0.0,0.0,0.6443,0.6504,0.6608,0.6831,0.705,0.7141,0.7188,0.7576,0.7801,0.7901,0.8095,0.8381,0.8647,0.8959,0.9244,0.957,0.9956,1.0363,1.0637,1.0802,1.0966,1.1076,1.0911,1.0857,1.0857,1.0857,1.0966,1.1076,1.1236,1.136,1.1418,0.0,0.0,0.0,0.0,0.0,0.0,0.0,0.0,0.0,0.0,-0.4408,-0.5159,-0.5823,-0.5879,-0.5853,-0.5873,-0.5731,-0.5513,-0.5259,-0.4829,-0.4396,-0.3993,-0.3771,-0.3484,-0.3083,-0.3092,-0.2956,-0.2631,-0.2475,-0.231,-0.2215,-0.2026,-0.1707,-0.1265,0.0,0.0,0.0,0.0,0.0,0.1527,0.2197,0.2962,0.0,0.0,0.5701,0.0,0.7075,0.7602,0.7849,0.8578,0.8633,0.0,0.0,0.0,0.0,0.0,0.7766,0.0,0.0,0.0,0.0,0.0,0.0,0.0,0.829,0.8284,0.8252,0.0,0.0,0.0,0.0,0.0,0.0,0.0,0.0,0.0,0.0,0.0,0.0,0.0,0.0,0.0,0.0,0.6237,0.6489,0.6795,0.7042,0.7238,0.7238,0.7494,0.7543,0.7288,0.7968,0.819,0.7929,0.8315,0.8602,0.8888,0.9409,0.9762,1.0049,1.0552,1.0907,1.1236,1.1236,1.1455,1.1787,1.1787,1.1509,1.1181,1.1181,1.14,1.1623,1.1678,1.1819,1.201,0.0,0.0,0.0,0.0,0.0,0.0,0.0,0.0,-0.4964,-0.5103,-0.5678,-0.6347,-0.7071,-0.7007,-0.6922,-0.691,-0.6654,-0.62,-0.5568,-0.5223,-0.4874,-0.4391,-0.4233,-0.399,-0.3652,-0.3353,-0.3112,-0.293,-0.2463,-0.2269,-0.2284,-0.1706,-0.131,-0.1114,0.0,0.0,0.0,0.0,0.0,0.2589,0.2691,0.0,0.493,0.5716,0.6537,0.7369,0.7746,0.8194,0.8723,0.0,0.9399,0.9369,0.0,0.0,0.0,0.0,0.0,0.0,0.0,0.0,0.0,0.0,0.0,0.0,0.8877,0.8836,0.8768,0.0,0.0,0.0,0.0,0.0,0.0,0.0,0.0,0.0,0.0,0.0,0.0,0.0,0.0,0.0,0.0,0.6387,0.6489,0.6795,0.7042,0.7288,0.7494,0.7793,0.7889,0.7839,0.8215,0.8232,0.7982,0.826,0.8538,0.8724,0.9455,0.9969,1.0424,1.0824,1.1455,1.2169,1.2169,1.2432,1.297,1.2762,1.2169,1.1514,1.1732,1.1841,1.1951,1.2169,1.2344,1.2605,0.0,0.0,0.0,0.0,0.0,0.0,0.0,0.0,-0.6461,-0.6546,-0.7051,-0.7487,-0.7768,-0.77,-0.761,-0.7503,-0.7338,-0.688,0.0,0.0,0.0,-0.4773,-0.4402,-0.41,-0.3854,-0.3452,-0.3122,-0.2891,-0.2565,-0.2195,-0.1808,-0.1461,-0.1016,-0.0547,-0.0182,0.0,0.0,0.0,0.2561,0.3551,0.3332,0.0,0.5281,0.6001,0.6856,0.7713,0.8291,0.9017,0.9765,0.9889,1.0017,0.0,0.0,0.9755,0.9918,0.0,0.9438,0.9668,0.0,0.0,0.0,0.92,0.0,0.0,0.0,0.9442,0.9373,0.0,0.0,0.0,0.0,0.0,0.0,0.0,0.0,0.0,0.0,0.0,0.0,0.0,0.0,0.0,0.0,0.6976,0.7359,0.7584,0.7736,0.7935,0.8187,0.8187,0.8187,0.8187,0.8333,0.8333,0.8187,0.856,0.8942,0.9282,0.9764,1.0261,1.0769,1.1487,1.2114,1.2715,1.3092,1.357,1.3948,1.3684,1.3359,1.3034,1.2436,1.2387,1.2673,1.2939,1.3456,1.4034,-0.3737,0.0,0.0,0.0,0.0,0.0,0.0,0.0,-0.7709,-0.7816,-0.8136,-0.8379,-0.8394,0.0,0.0,0.0,-0.7941,-0.753,0.0,0.0,0.0,0.0,-0.457,-0.4119,-0.388,-0.3522,-0.3132,-0.2746,-0.2513,-0.2032,-0.1303,-0.1122,-0.0669,0.0,0.0,0.0,0.0,0.0,0.0,0.4502,0.0,0.4693,0.5588,0.6384,0.715,0.8001,0.8932,0.9873,1.0654,1.0573,0.0,1.0675,1.0294,1.0439,0.0,0.0,0.0,0.0,0.0,0.0,0.0,0.0,0.0,1.0521,0.0,0.0,0.0,0.9778,0.0,0.0,0.0,0.0,0.0,0.0,0.0,0.0,0.0,0.0,0.0,0.0,0.0,0.0,0.0,0.7783,0.8308,0.8424,0.8534,0.8682,0.8875,0.8691,0.8578,0.8528,0.8607,0.8675,0.8675,0.9107,0.965,1.0297,1.0556,1.1011,1.1626,1.2471,1.308,1.3572,1.419,1.4648,1.4976,1.4654,1.4654,1.4708,1.3359,1.3142,1.3655,1.3892,1.4545,1.5328,-0.488,-0.5068,0.0,0.0,0.0,0.0,0.0,0.0,-0.8185,-0.8541,-0.8432,-0.8612,0.0,0.0,0.0,0.0,0.0,0.0,-0.7337,0.0,0.0,0.0,0.0,0.0,-0.3824,-0.3588,-0.3155,-0.255,-0.205,-0.1624,-0.1304,-0.0526,-0.009,0.0,0.1203,0.0,0.0,0.0,0.4526,0.0,0.5866,0.6303,0.0,0.7459,0.8184,0.8869,0.9832,1.0475,1.1024,0.0,1.1404,1.135,0.0,1.0997,0.0,0.0,0.0,0.0,0.0,0.0,0.0,0.0,1.1338,0.0,0.0,0.0,1.129,1.054,0.0,0.0,0.0,0.0,0.0,0.0,0.0,0.0,0.0,0.0,0.0,0.0,0.0,0.0,0.0,0.0,0.8706,0.8505,0.8951,0.9188,0.9236,0.9337,0.9252,0.9048,0.94,0.9636,0.9636,0.9916,1.0575,1.1578,1.2077,1.2873,1.3821,1.3954,1.4556,1.5577,1.5446,1.5773,1.6411,1.5939,1.5725,1.5672,1.4708,1.4541,1.4804,1.4832,1.5055,1.5391,-0.5622,-0.5848,0.0,0.0,0.0,0.0,0.0,-0.893,-0.9284,-0.9083,-0.9288,0.0,0.0,0.0,0.0,0.0,0.0,-0.8699,0.0,0.0,0.0,0.0,0.0,0.0,0.0,0.0,-0.2704,-0.2162,-0.1693,-0.1211,-0.0687,-0.0088,0.0548,0.0,0.1835,0.0,0.3849,0.0,0.5583,0.0,0.0,0.0,0.0,0.8235,0.8904,1.001,1.0876,1.1407,1.1749,0.0,1.2016,0.0,0.0,0.0,0.0,0.0,0.0,0.0,0.0,0.0,0.0,0.0,0.0,0.0,0.0,0.0,1.217,0.0,0.0,0.0,0.0,0.0,0.0,0.0,0.0,0.0,0.0,0.0,0.0,0.0,0.0,0.0,0.0,0.0,0.0,0.0,1.0037,1.009,0.9923,0.994,0.9929,0.9782,0.9963,1.016,1.0473,1.1046,1.1718,1.2491,1.3014,1.3699,1.449,1.5018,1.5492,1.5983,1.6355,1.669,1.6955,1.6524,1.6471,1.6636,1.6418,1.5986,1.5577,1.5881,1.6386,1.6951,-0.6705,0.0,0.0,0.0,0.0,0.0,-0.882,-0.9584,-0.9927,-0.9431,0.0,0.0,-0.931,-0.9554,0.0,0.0,0.0,-0.933,0.0,0.0,-0.7037,0.0,0.0,0.0,0.0,0.0,0.0,-0.1738,-0.129,-0.0702,-0.0088,0.0448,0.1202,0.2115,0.0,0.3455,0.4723,0.0,0.0,0.7575,0.8368,0.9207,0.9974,0.9354,0.9835,1.0932,1.1635,1.2084,1.2273,1.2607,1.261,0.0,1.2567,0.0,0.0,0.0,0.0,0.0,1.3443,0.0,0.0,0.0,0.0,0.0,0.0,0.0,0.0,0.0,0.0,0.0,0.0,0.0,0.0,0.0,0.0,0.0,0.0,0.0,0.0,0.0,0.0,0.0,0.0,0.0,0.0,1.1151,1.1248,1.1211,1.1023,1.0805,1.0717,1.0713,1.0655,1.0836,1.1357,1.2187,1.2951,1.354,1.4112,1.4744,1.5386,1.5962,1.6275,1.6444,1.6976,1.7226,1.7279,1.7113,1.7219,1.7437,1.7694,1.7318,1.6649,1.7006,1.7567,1.8144,-0.8451,-0.8272,0.0,0.0,0.0,-0.9054,-0.9233,-0.9468,-0.9599,0.0,0.0,0.0,0.0,0.0,0.0,0.0,0.0,-0.9805,-0.866,0.0,-0.7198,0.0,0.0,-0.3894,0.0,0.0,0.0,0.0,-0.0709,-0.0134,0.0493,0.1144,0.1794,0.2449,0.3476,0.4291,0.4973,0.6433,0.7308,0.7823,0.9274,1.0699,1.1815,0.0,1.104,1.152,1.1991,0.0,0.0,1.3012,1.3102,0.0,0.0,0.0,0.0,0.0,0.0,0.0,0.0,0.0,0.0,1.3908,0.0,0.0,0.0,0.0,1.4026,0.0,0.0,0.0,0.0,0.0,0.0,0.0,0.0,0.0,0.0,0.0,0.0,0.0,0.0,0.0,0.0,0.0,0.0,1.2142,1.2386,1.2589,1.2632,1.2009,1.1671,1.1742,1.17,1.1903,1.2363,1.3231,1.4099,1.4917,1.5559,1.6305,1.7107,1.6829,1.6982,1.7516,1.7325,1.7331,1.7635,1.7859,1.7964,1.8016,1.8265,1.837,1.8318,1.8325,1.8384,1.8384,0.0,0.0,0.0,0.0,0.0,-0.96,-0.9685,-1.0124,0.0,0.0,0.0,0.0,0.0,0.0,-1.0505,0.0,0.0,-0.9637,-0.8664,-0.7368,0.0,0.0,0.0,-0.3521,0.0,0.0,0.0,0.0,0.0,0.0047,0.0467,0.1692,0.2631,0.3238,0.0,0.5052,0.0,0.0,0.0,0.0,0.0,1.1606,1.1962,0.0,0.0,1.2393,1.2997,1.3223,0.0,1.3909,1.4035,1.3881,1.408,1.4101,1.4178,1.4302,1.462,0.0,0.0,0.0,1.5218,1.5014,0.0,0.0,0.0,0.0,0.0,0.0,0.0,0.0,0.0,0.0,0.0,0.0,0.0,0.0,0.0,0.0,0.0,0.0,0.0,0.0,0.0,0.0,0.0,1.3444,1.3549,1.346,1.3123,1.3032,1.2861,1.2546,1.267,1.3024,1.357,1.4223,1.4976,1.5879,1.6477,1.7008,1.7483,1.7371,1.7424,1.7582,1.7483,1.7536,1.7635,1.7694,1.7974,1.8371,1.8631,1.9131,1.9596,1.896,1.8757,1.8757,-1.1316,0.0,0.0,0.0,0.0,0.0,0.0,0.0,0.0,0.0,-1.0171,0.0,-1.0105,0.0,-1.045,0.0,-0.9729,-0.9323,-0.8288,-0.6972,0.0,-0.5523,-0.4219,0.0,0.0,0.0,0.0,0.0,0.0,0.0482,0.0867,0.2021,0.3063,0.3915,0.0,0.5505,0.665,0.0,0.8499,0.0,0.0,1.2412,0.0,0.0,1.2847,1.3044,0.0,1.388,1.4005,1.4446,1.4613,1.4588,1.4744,1.4908,1.5075,1.5233,1.5549,1.5934,1.6103,1.6192,0.0,1.5763,1.5752,0.0,1.4921,0.0,0.0,0.0,0.0,0.0,0.0,0.0,0.0,0.0,0.0,0.0,0.0,1.4755,0.0,0.0,0.0,0.0,0.0,0.0,1.4,1.4309,1.4323,1.4213,0.0,0.0,1.3555,1.3419,1.3275,1.3578,1.4326,1.4976,1.5725,1.6458,1.7166,1.7595,1.7747,1.7845,1.7898,1.7898,1.7898,1.7898,1.7905,1.8126,1.845,1.8805,1.9341,1.9892,2.0357,1.9777,1.955,1.9538,0.0,0.0,0.0,0.0,-0.9947,0.0,0.0,0.0,-1.0352,0.0,-1.0236,-0.9932,-1.0076,-1.008,-0.9822,-0.9256,-0.9325,0.0,-0.7545,-0.69,0.0,0.0,-0.3863,-0.3138,-0.2563,0.0,0.0,0.0,0.0,0.0,0.1622,0.221,0.3173,0.4438,0.4995,0.0,0.6755,0.8304,0.9252,0.9885,1.1632,1.3092,1.4144,1.4262,1.3986,1.3527,1.4034,1.4272,1.4356,1.4579,1.4888,1.5138,1.4924,1.5436,1.6132,1.5931,1.6257,1.677,1.6771,1.6745,1.6667,1.6183,0.0,0.0,0.0,0.0,1.6347,0.0,0.0,0.0,0.0,0.0,0.0,0.0,0.0,0.0,0.0,0.0,0.0,0.0,0.0,0.0,0.0,1.4428,1.4482,1.4691,1.4691,1.4894,0.0,0.0,1.3901,1.4496,1.3701,1.3756,1.47,1.5583,1.624,1.6764,1.7635,1.8016,1.8016,1.8272,1.8422,1.8422,1.8422,1.8429,1.8471,1.9046,1.9302,1.946,2.036,2.0704,2.0773,2.0743,2.068,2.0567,-1.1635,-1.0814,-1.0222,0.0,-1.0377,-1.0471,0.0,0.0,0.0,0.0,-0.9989,-0.9808,-0.9796,-0.9853,-0.9683,-0.9193,-0.8644,0.0,0.0,0.0,0.0,-0.3849,-0.2923,-0.2297,-0.1991,-0.1505,0.0,-0.0643,0.0,0.0,0.1686,0.2972,0.3864,0.444,0.0,0.0,0.7191,0.8186,0.9728,1.1546,1.2893,1.3771,0.0,0.0,1.4688,1.4677,1.4798,1.4901,1.4978,1.5526,1.5785,1.5887,1.5992,1.6387,1.6757,1.6776,1.7041,1.7434,1.7668,1.7536,1.7323,1.7221,1.7104,1.6948,0.0,0.0,0.0,0.0,0.0,0.0,0.0,0.0,0.0,0.0,0.0,0.0,0.0,0.0,0.0,1.5039,0.0,0.0,0.0,1.4623,1.4645,1.4894,1.4909,1.5177,0.0,0.0,0.0,1.5861,1.6028,1.6144,1.6225,1.697,1.7448,1.7674,1.8109,1.8325,1.8325,1.837,1.8422,1.8422,1.8422,1.8555,1.8772,1.8963,1.9436,2.0077,2.0608,2.1182,2.1683,2.0963,2.0831,2.0902,-1.1505,0.0,0.0,-1.0356,0.0,0.0,-1.0614,0.0,0.0,-1.0212,-0.9579,0.0,-0.9322,-0.9151,-0.8797,-0.8314,-0.7741,0.0,0.0,0.0,0.0,-0.3349,-0.242,-0.1772,-0.1432,-0.095,0.0,-0.0166,0.0,0.0,0.1941,0.3218,0.4061,0.4645,0.0,0.6398,0.7476,0.8955,1.0701,1.2608,1.3666,0.0,0.0,1.5137,1.5402,1.565,1.5664,1.5623,1.5596,1.5963,1.6259,1.6495,1.6661,1.7079,1.7467,1.749,1.7731,1.7976,1.82,1.8089,1.7968,1.8001,1.7867,1.7659,1.7341,1.7248,1.7172,0.0,0.0,0.0,0.0,0.0,0.0,0.0,0.0,0.0,0.0,0.0,0.0,0.0,0.0,0.0,0.0,1.4927,1.4933,1.5093,1.5101,1.5368,0.0,0.0,0.0,1.6781,1.6707,1.687,1.7216,1.7548,1.7846,1.817,1.8509,1.8698,1.8795,1.8795,1.8945,1.9153,1.9148,1.936,1.9655,1.9939,2.0377,2.0944,2.1533,2.2053,2.2402,2.1904,2.161,2.1456,0.0,0.0,0.0,0.0,0.0,0.0,0.0,-1.0263,0.0,-1.0306,0.0,-0.8555,-0.8833,-0.8341,-0.7779,-0.7201,0.0,-0.6226,-0.5262,-0.4379,-0.3623,-0.2985,-0.2097,-0.1313,-0.0765,-0.0232,0.0,0.0,0.0,0.0,0.2413,0.3201,0.4116,0.5039,0.0,0.0,0.0,1.0111,1.1812,1.3163,1.4107,1.4871,1.5514,1.5756,1.6085,1.6409,1.6508,1.6374,1.6146,1.6298,1.6642,1.7079,1.7138,1.755,1.8083,1.8142,1.8311,1.8545,1.8619,1.8646,1.8621,1.8618,1.8638,1.8523,1.8218,1.807,1.7976,1.7795,1.7714,1.7613,0.0,0.0,0.0,0.0,0.0,0.0,0.0,0.0,0.0,0.0,0.0,0.0,0.0,0.0,1.529,1.524,1.5275,0.0,0.0,0.0,0.0,1.7475,1.6918,1.7002,1.7972,0.0,1.815,1.8568,1.8893,1.9197,1.9494,1.9494,1.9769,2.0231,2.0272,2.0476,2.0765,2.136,2.1683,2.1863,2.2614,2.2958,2.3014,2.3014,2.2592,2.2119,0.0,0.0,0.0,0.0,0.0,-1.045,-1.0369,-0.986,-0.9555,-0.9771,-0.9025,-0.8585,-0.8781,-0.8348,-0.7629,-0.6799,-0.6276,0.0,0.0,0.0,0.0,-0.207,-0.1376,-0.0751,-0.0177,0.0235,0.082,0.0,0.0,0.0,0.3387,0.3886,0.4621,0.5501,0.0,0.0,0.917,1.0605,0.0,1.3225,1.4294,1.5095,1.5632,1.5922,1.6343,1.6729,1.6752,1.6629,1.6571,1.7315,1.7482,1.7485,1.8012,1.8246,1.8421,1.8952,1.9127,1.9274,1.98,2.0002,1.9863,1.9361,1.9221,1.9152,1.8846,1.8536,1.8411,1.8605,1.8294,1.7996,1.8144,0.0,0.0,0.0,0.0,0.0,0.0,0.0,0.0,0.0,0.0,0.0,0.0,0.0,0.0,0.0,0.0,0.0,0.0,0.0,0.0,0.0,1.8924,0.0,0.0,0.0,1.9724,1.9385,1.9751,2.0075,2.0348,2.0348,2.0552,2.0925,2.0925,2.1115,2.1437,2.1551,2.2052,2.2758,2.2716,2.2796,2.3014,2.3014,2.2813,2.2469,0.0,0.0,0.0,0.0,0.0,0.0,0.0,-0.8627,0.0,-0.9408,-0.8434,-0.7819,-0.815,-0.7676,-0.6947,-0.608,-0.5477,-0.4652,-0.3393,-0.2685,-0.1885,-0.112,-0.0472,0.0,0.1025,0.1018,0.1491,0.2444,0.0,0.0,0.0,0.0,0.0,0.5793,0.0,0.8752,0.0,0.0,0.0,1.3712,1.4724,1.5577,1.6375,1.6567,1.7017,1.7548,1.7548,1.7614,1.7709,1.7877,1.7821,1.7843,1.8246,1.8596,1.8946,1.9236,1.9526,1.9897,2.0202,2.0274,2.0203,1.9954,1.9883,1.9743,1.9261,1.9136,1.9045,1.8716,1.8554,1.8519,1.8622,1.8513,0.0,0.0,0.0,0.0,0.0,0.0,0.0,0.0,0.0,0.0,0.0,0.0,0.0,0.0,0.0,0.0,0.0,0.0,0.0,0.0,0.0,0.0,0.0,0.0,0.0,2.0662,2.0754,2.0995,2.133,2.1178,2.1263,2.1596,2.1612,2.1782,2.2056,2.2235,2.2526,2.2796,2.2965,2.3022,2.3014,2.3352,2.3408,2.3247,0.0,-0.8845,0.0,0.0,-0.8283,0.0,-0.823,-0.7337,-0.7183,-0.8668,-0.7719,-0.6955,-0.7293,-0.6974,-0.6287,-0.524,-0.4672,-0.3835,-0.2423,-0.168,-0.0969,-0.0242,0.0303,0.1036,0.1973,0.183,0.2182,0.0,0.0,0.0,0.0,0.0,0.0,0.0,0.0,0.0,0.0,0.0,1.3406,1.4265,1.5162,1.6118,1.705,1.718,1.7742,1.8374,1.8374,1.8609,1.8869,1.8525,1.8313,1.8334,1.8615,1.9004,1.941,1.9584,1.9982,2.0393,2.0444,2.0499,2.0485,2.0413,2.0399,2.0271,1.9784,1.9751,1.9688,1.9017,1.9021,1.9035,1.89,1.8753,0.0,0.0,0.0,0.0,0.0,0.0,0.0,0.0,0.0,0.0,0.0,0.0,0.0,0.0,0.0,0.0,0.0,0.0,0.0,0.0,0.0,2.0515,2.1353,0.0,2.152,0.0,2.1807,2.194,2.2177,2.2077,2.2116,2.2312,2.2427,2.2601,2.2783,2.3015,2.3022,2.2909,2.3247,2.3304,2.3239,2.3576,2.3753,2.3809,0.0,0.0,0.0,0.0,0.0,0.0,-0.813,-0.6643,-0.5924,-0.697,-0.6913,-0.6682,-0.65,-0.669,-0.6107,-0.4453,-0.4223,-0.325,-0.1202,-0.1037,-0.0615,0.037,0.0739,0.1292,0.1973,0.2279,0.2892,0.0,0.0,0.0,0.0,0.0,0.0,0.0,0.0,0.0,0.0,1.279,1.3676,1.449,1.5645,1.6456,1.7001,1.7372,1.8139,1.9036,1.9036,1.9149,1.9354,1.9837,1.9607,1.922,1.9549,1.97,1.9866,2.0436,2.0601,2.0716,2.1052,2.111,2.1037,2.0745,2.0672,2.0657,2.0572,2.0361,2.0223,2.0434,2.0088,1.9534,1.9017,1.9103,1.9074,0.0,0.0,0.0,0.0,0.0,0.0,0.0,0.0,0.0,0.0,0.0,0.0,0.0,0.0,0.0,0.0,0.0,0.0,2.0998,0.0,2.132,2.22,2.2319,2.2391,2.2434,2.2645,2.2794,2.2818,2.3092,2.328,2.3375,2.3631,2.376,2.376,2.3512,2.3585,2.3753,2.3247,2.3352,2.3745,2.3296,2.3304,2.3528,0.0,0.0,0.0,0.0,0.0,0.0,0.0,-0.5615,-0.4835,-0.4364,-0.4608,-0.4991,-0.5426,-0.5463,-0.4899,-0.3406,-0.3498,-0.2583,-0.0244,-0.0062,0.0375,0.1439,0.1766,0.228,0.2976,0.2914,0.3359,0.0,0.0,0.0,0.0,0.0,0.0,0.0,0.0,1.2119,1.2919,1.3817,1.4729,1.5514,1.6239,1.6924,1.7647,1.805,1.8693,1.9386,1.9386,1.9694,2.0125,2.0384,2.0098,1.9654,2.0006,2.0375,2.0618,2.0716,2.0838,2.1024,2.1153,2.1211,2.1181,2.105,2.1013,2.0962,2.0772,2.0772,2.075,2.0486,2.023,1.9993,1.9715,1.9624,1.9509,0.0,0.0,0.0,0.0,0.0,0.0,0.0,0.0,0.0,0.0,0.0,0.0,0.0,0.0,0.0,0.0,0.0,0.0,2.0853,0.0,2.1962,2.2744,2.2904,2.3181,2.3643,2.3653,2.3716,2.3809,2.3928,2.39,2.3753,2.3857,2.3921,2.3913,2.3809,2.3809,2.3865,2.3632,2.3576,2.3641,2.3585,2.3528,2.3472,-0.808,0.0,-0.6663,0.0,-0.6007,-0.5434,-0.5147,-0.4498,-0.3743,-0.2757,-0.2632,-0.2934,-0.3754,-0.3899,-0.3429,-0.213,-0.2272,-0.1518,0.0682,0.0878,0.1327,0.2222,0.2693,0.0,0.3587,0.354,0.399,0.4804,0.4955,0.0,0.0,0.0,0.0,0.0,1.2024,1.3225,1.3976,1.4755,1.5526,1.625,1.671,1.7393,1.8128,1.8472,1.9078,1.9775,1.9775,2.017,2.0773,2.0904,2.0774,2.0499,2.0559,2.085,2.1131,2.0931,2.1024,2.1211,2.1211,2.1268,2.1325,2.1211,2.1268,2.1266,2.0918,2.1042,2.1079,2.0618,2.045,2.0321,2.0321,2.012,1.9915,1.9917,0.0,0.0,0.0,0.0,0.0,0.0,0.0,2.0043,2.0158,0.0,0.0,0.0,0.0,0.0,0.0,0.0,0.0,0.0,0.0,0.0,0.0,2.3604,2.3925,2.4526,2.444,2.4382,2.4376,2.432,2.4209,2.4033,2.4033,2.4033,2.4033,2.4033,2.4033,2.4033,2.3921,2.3865,2.3761,2.3809,2.3697,2.3585,-0.7496,-0.6587,-0.5789,-0.5485,-0.4874,-0.4393,-0.4343,-0.3353,-0.2657,-0.2687,-0.1398,-0.0647,-0.1293,-0.1907,-0.1804,-0.0542,-0.0421,0.0122,0.1384,0.1829,0.2222,0.0,0.0,0.3585,0.3473,0.429,0.4801,0.5105,0.0,0.0,0.6962,0.0,1.059,1.1638,1.2948,1.3995,1.4827,1.5423,1.5903,1.6361,1.7143,1.7763,1.8201,1.8471,1.9212,2.0106,2.0106,2.0552,2.1218,2.1505,2.1839,2.2087,2.1396,2.1195,2.1197,2.1183,2.1211,2.1211,2.1211,2.1439,2.1611,2.1268,2.1439,2.1611,2.1261,2.1203,2.1203,2.1196,2.094,2.072,2.072,2.0394,2.0176,2.0223,0.0,0.0,0.0,0.0,0.0,0.0,2.0682,2.1229,2.2062,0.0,0.0,0.0,0.0,0.0,0.0,0.0,0.0,2.234,2.264,0.0,2.447,2.4427,2.4499,2.4814,2.4763,2.4646,2.4376,2.4033,2.4089,2.4376,2.4376,2.4376,2.4376,2.4376,2.4376,2.4376,2.4033,2.4089,2.432,2.3697,2.3697,2.3865,-0.6808,-0.6325,-0.5818,-0.5353,-0.5073,-0.4605,-0.3767,-0.2871,-0.2129,-0.149,-0.0466,0.0297,0.0607,-0.061,-0.0852,0.0,0.0182,0.0617,0.0,0.2737,0.2963,0.3335,0.3831,0.4174,0.4351,0.4593,0.4985,0.5663,0.0,0.0,0.0,0.9339,1.0577,1.176,1.2895,1.4134,1.5398,1.5443,1.5966,1.688,1.7414,1.7869,1.8258,1.9033,1.9654,2.0106,2.0361,2.0866,2.1547,2.1825,2.2173,2.2417,2.2033,2.1896,2.1795,2.1307,2.1211,2.1268,2.1497,2.1611,2.1725,2.1774,2.1888,2.1888,2.1611,2.1382,2.1211,2.1211,2.113,2.1057,2.1057,2.0786,2.0622,2.0844,2.0554,0.0,0.0,0.0,0.0,0.0,2.1466,2.1768,0.0,2.3065,0.0,0.0,0.0,0.0,0.0,0.0,0.0,0.0,2.3103,0.0,2.423,2.4227,2.4458,2.4772,2.4591,2.4376,2.4033,2.3977,2.3977,2.4089,2.432,2.4376,2.4432,2.4599,2.4654,2.4654,2.4543,2.4487,2.4376,2.3921,2.3697,2.3641,-0.618,-0.5703,-0.52,-0.4806,-0.4496,-0.4,-0.3146,-0.2342,-0.1638,-0.0926,-0.0059,0.0775,0.1416,0.0555,0.0,0.152,0.1479,0.1877,0.3051,0.3353,0.3663,0.3915,0.4286,0.4629,0.5004,0.0,0.0,0.6066,0.6736,0.7624,0.8603,0.9848,1.0959,1.1944,1.3092,1.4343,1.5608,1.5456,1.6092,1.7223,1.7474,1.7906,1.8491,1.9197,1.9814,2.0361,2.0672,2.1235,2.1859,2.2174,2.2487,2.2707,2.2445,2.2271,2.2052,2.1401,2.1268,2.1439,2.1668,2.1896,2.2059,2.2116,2.2173,2.223,2.1945,2.166,2.1546,2.1546,2.1546,2.1546,2.1546,2.1383,2.1298,2.1523,2.1244,2.1127,2.1393,0.0,0.0,0.0,0.0,0.0,0.0,2.4089,0.0,0.0,0.0,0.0,0.0,0.0,0.0,2.2749,2.3619,0.0,2.4465,2.4518,2.4729,2.497,2.471,2.4376,2.4089,2.4089,2.4089,2.4089,2.432,2.4376,2.4432,2.471,2.4821,2.4821,2.4821,2.471,2.4487,2.4209,2.3921,2.3641,-0.5586,-0.4808,0.0,0.0,-0.3384,0.0,-0.2604,-0.1811,-0.1135,-0.0821,0.0,0.0835,0.1539,0.1606,0.1852,0.2529,0.0,0.0,0.0,0.3923,0.4376,0.4372,0.4708,0.501,0.5409,0.6138,0.6535,0.6513,0.7825,0.8614,0.9077,1.0553,1.1588,1.2257,1.3487,1.4622,1.5559,1.5593,1.6255,1.7302,1.7347,1.7962,1.8803,1.9138,1.9852,2.0672,2.0982,2.1544,2.2174,2.2487,2.2793,2.3047,2.2696,2.2403,2.2059,2.143,2.1462,2.1725,2.1725,2.218,2.2513,2.223,2.24,2.2513,2.223,2.2116,2.2116,2.2116,2.2116,2.2116,2.2116,2.2116,2.2116,2.2116,2.1849,2.1731,2.2009,0.0,0.0,0.0,0.0,0.0,0.0,2.5334,2.5517,0.0,0.0,0.0,0.0,0.0,2.3374,2.3116,2.4157,2.4788,2.5058,2.5156,2.5174,2.5119,2.4915,2.4654,2.4376,2.4376,2.4376,2.4376,2.4432,2.4432,2.4487,2.4765,2.4876,2.4876,2.4821,2.4821,2.4765,2.4487,2.4209,2.3921,0.0,0.0,-0.3826,-0.3468,-0.3162,-0.281,-0.2289,-0.1536,-0.0681,0.0117,0.0766,0.155,0.2522,0.2653,0.29,0.3513,0.3376,0.3556,0.4253,0.4771,0.5103,0.5109,0.5444,0.5837,0.6221,0.6308,0.6863,0.8016,0.8368,0.914,1.027,1.0629,1.1807,1.3483,1.3548,1.4553,1.6208,1.5866,1.6293,1.7347,1.7633,1.8155,1.8864,1.9703,2.0235,2.0672,2.1299,2.1734,2.2174,2.2487,2.2793,2.301,2.2462,2.2242,2.2103,2.1701,2.1639,2.1725,2.1945,2.2286,2.2626,2.2732,2.2683,2.257,2.2513,2.2286,2.2116,2.2116,2.2116,2.2116,2.2116,2.2116,2.2173,2.2456,2.2443,2.2426,2.2543,2.298,0.0,0.0,2.4942,2.5632,2.6454,2.66,2.6447,0.0,0.0,0.0,0.0,2.4637,2.4519,2.4222,2.4483,2.4663,2.4726,2.4835,2.4812,2.459,2.4543,2.432,2.4033,2.4033,2.4153,2.4432,2.4637,2.4842,2.5017,2.5357,2.5467,2.5467,2.5238,2.5119,2.5072,2.459,2.4376,2.4264,-0.3895,-0.3627,-0.3349,-0.3108,-0.2721,-0.2297,-0.1992,-0.1221,-0.0343,0.0645,0.1185,0.1863,0.2892,0.3146,0.3393,0.3883,0.4026,0.4283,0.4897,0.552,0.5871,0.5915,0.6248,0.6583,0.6922,0.7069,0.7632,0.875,0.9284,0.9921,1.0721,1.138,1.2305,1.342,1.3748,1.473,1.6273,1.5872,1.6425,1.7514,1.7673,1.8232,1.909,1.9746,2.0375,2.0919,2.1607,2.1922,2.2174,2.2668,2.2918,2.3025,2.2535,2.2406,2.2289,2.1958,2.1864,2.1945,2.223,2.257,2.2796,2.2958,2.2901,2.2796,2.2796,2.2619,2.2505,2.2505,2.2505,2.2505,2.2505,2.2505,2.2562,2.274,2.2935,2.3074,2.2897,2.3809,0.0,2.5117,2.5781,2.647,2.7256,2.6862,2.6471,2.6102,2.5637,0.0,2.4765,2.4657,2.4578,2.442,2.4718,2.4815,2.4668,2.4774,2.4654,2.4376,2.4543,2.4432,2.4144,2.4264,2.4479,2.4748,2.4898,2.5165,2.545,2.5624,2.5688,2.5688,2.5514,2.534,2.5165,2.4851,2.459,2.4376,-0.318,-0.284,-0.2589,-0.2638,-0.2053,-0.1554,-0.1472,-0.0788,0.0116,0.1176,0.1553,0.2123,0.3202,0.3516,0.3766,0.4143,0.4883,0.5345,0.5345,0.6088,0.652,0.6656,0.692,0.7254,0.7593,0.7992,0.8587,0.9316,1.0253,1.0787,1.0986,1.2243,1.2836,1.303,1.4076,1.5122,1.6078,1.6034,1.6723,1.7925,1.7799,1.8435,1.944,1.982,2.0456,2.1235,2.1859,2.2111,2.2299,2.2918,2.3076,2.2981,2.2713,2.2586,2.2505,2.2235,2.2165,2.223,2.2513,2.2796,2.3014,2.3014,2.3014,2.3014,2.3014,2.3014,2.3014,2.3014,2.3014,2.3014,2.3014,2.3014,2.3014,2.3014,2.337,2.349,2.3078,0.0,2.5159,2.5472,2.6043,2.6708,2.7476,2.6717,2.6135,2.6083,2.5256,2.4828,2.5111,2.4696,2.4425,2.4425,2.4945,2.5119,2.4923,2.4868,2.4757,2.4535,2.4761,2.4761,2.4543,2.4761,2.5022,2.5284,2.5284,2.545,2.5743,2.5798,2.5852,2.5852,2.5743,2.5514,2.5284,2.5174,2.4859,2.4432,-0.1865,-0.1596,-0.1473,-0.1449,-0.1212,-0.0858,-0.0327,0.0113,0.0925,0.2408,0.2686,0.3213,0.4495,0.4378,0.4523,0.527,0.5739,0.6052,0.6052,0.6351,0.6721,0.7326,0.7393,0.7591,0.7992,0.8653,0.9452,1.0452,1.0654,1.1181,1.2045,1.2572,1.3161,1.3744,1.4786,1.5704,1.6478,1.7034,1.7799,1.8595,1.8894,1.9447,2.012,2.0423,2.094,2.1544,2.1985,2.2299,2.2613,2.2981,2.2923,2.2645,2.2639,2.2438,2.222,2.2463,2.2503,2.2513,2.2578,2.2796,2.3014,2.3014,2.3014,2.3014,2.3014,2.3014,2.3014,2.3014,2.3014,2.3014,2.3014,2.3014,2.3014,2.3014,2.3204,2.3227,2.2819,0.0,2.5013,2.4701,2.5788,2.6639,2.6769,2.6615,2.6416,2.61,2.5937,2.5801,2.559,2.548,2.548,2.548,2.5305,2.534,2.5578,2.5293,2.5119,2.5072,2.5233,2.5224,2.5072,2.525,2.544,2.5624,2.5624,2.5789,2.6072,2.6354,2.6473,2.6418,2.5907,2.5679,2.5578,2.5034,2.4821,2.4765,-0.1145,-0.0954,-0.0713,-0.0576,-0.0371,-0.0108,0.0166,0.0798,0.1634,0.2764,0.3246,0.3853,0.4807,0.5056,0.5395,0.5851,0.6383,0.6846,0.7092,0.7238,0.7524,0.7791,0.7992,0.8256,0.8653,0.9519,1.0183,1.0721,1.1251,1.1846,1.2309,1.303,1.3744,1.446,1.5308,1.6289,1.7313,1.7771,1.836,1.9031,1.9436,1.9801,2.0247,2.0799,2.1223,2.167,2.2174,2.248,2.2668,2.2988,2.3135,2.3135,2.2938,2.2923,2.2884,2.2894,2.2832,2.2796,2.2796,2.2909,2.3014,2.3014,2.3014,2.3014,2.3014,2.3014,2.3014,2.3014,2.3014,2.3014,2.3014,2.3014,2.3014,2.3014,2.3259,0.0,0.0,2.4477,2.5469,2.5031,2.63,2.7187,2.7187,2.6884,2.6599,2.6433,2.6079,2.5844,2.5688,2.5938,2.6011,2.5916,2.5827,2.5878,2.6045,2.609,2.6139,2.6148,2.6162,2.6211,2.6139,2.5935,2.5989,2.6258,2.5997,2.6081,2.6364,2.6537,2.6591,2.6582,2.6309,2.5962,2.5688,2.5412,2.509,2.4821,-0.0453,-0.0253,-0.0051,0.0159,0.0374,0.0541,0.0726,0.1499,0.2412,0.3118,0.3809,0.4498,0.5179,0.5732,0.6083,0.6317,0.7033,0.7585,0.7918,0.8275,0.8456,0.8323,0.8656,0.9053,0.9452,1.0253,1.0853,1.1052,1.1912,1.2375,1.2572,1.3486,1.4329,1.5043,1.5899,1.6942,1.815,1.8399,1.8884,1.9569,1.9863,2.0211,2.0595,2.1086,2.1534,2.1922,2.2418,2.2668,2.2793,2.3106,2.3373,2.3447,2.3376,2.3389,2.3434,2.322,2.3121,2.3014,2.3014,2.3014,2.3014,2.3014,2.3014,2.3038,2.3117,2.3141,2.3165,2.3244,2.3252,2.3252,2.3252,2.3252,2.3228,2.3149,0.0,0.0,0.0,2.4752,2.5744,2.5465,2.6572,2.7404,2.7404,2.7019,2.6792,2.6848,2.6346,2.6129,2.6176,2.6462,2.6592,2.6526,2.6403,2.639,2.6489,2.6736,2.6884,2.6982,2.7013,2.7004,2.6964,2.6596,2.6513,2.6686,2.6289,2.6245,2.6473,2.6582,2.6591,2.6582,2.6527,2.6136,2.5679,2.5624,2.5247,2.4821,0.0656,0.0768,0.0834,0.085,0.0864,0.1043,0.1622,0.2364,0.3177,0.4058,0.4836,0.5542,0.6219,0.6342,0.6542,0.7051,0.7781,0.8205,0.8097,0.9056,0.9392,0.905,0.9392,0.9927,1.0588,1.0654,1.1185,1.2177,1.2243,1.2642,1.3301,1.3752,1.4394,1.5438,1.6483,1.7518,1.8612,1.9234,1.9871,2.0513,2.0556,2.0936,2.1517,2.158,2.1964,2.255,2.2613,2.2793,2.3106,2.3425,2.334,2.3262,2.3854,2.3645,2.3181,2.3381,2.3235,2.3014,2.3014,2.3014,2.3014,2.3014,2.3014,2.3101,2.337,2.3449,2.3594,2.397,2.4034,2.4034,2.4034,2.4034,2.3872,2.3496,0.0,0.0,2.3934,2.4704,2.5349,2.5449,2.6105,2.6495,2.6495,2.6708,2.6995,2.7224,2.7197,2.7341,2.7625,2.7644,2.771,2.7673,2.6939,2.6747,2.7113,2.6852,2.6891,2.7269,2.7396,2.7378,2.7269,2.7004,2.6781,2.6686,2.6289,2.6127,2.6181,2.6473,2.6591,2.6582,2.6245,2.5962,2.5688,2.534,2.5072,2.4821,0.1588,0.1652,0.1728,0.1941,0.1961,0.198,0.2014,0.3055,0.3882,0.4234,0.5316,0.6219,0.6653,0.6896,0.7227,0.7829,0.8106,0.8466,0.9045,0.9256,0.9455,0.9788,1.0123,1.0522,1.0982,1.1449,1.1912,1.2309,1.2774,1.3104,1.3437,1.3949,1.4856,1.6089,1.6742,1.784,1.9258,1.9711,2.0164,2.0609,2.0862,2.1172,2.1607,2.1859,2.2047,2.2312,2.2559,2.2806,2.3083,2.302,2.3444,2.4063,2.4098,2.3948,2.366,2.3282,2.3117,2.3014,2.3014,2.3014,2.3014,2.3014,2.3014,2.3054,2.3189,2.333,2.352,2.3713,2.3904,2.4114,2.4114,2.4114,2.4125,2.418,0.0,2.4515,2.4589,2.5268,2.5785,2.5831,2.6592,2.7086,2.7086,2.7355,2.7562,2.7687,2.7625,2.766,2.7765,2.7822,2.7884,2.815,2.7609,2.7517,2.793,2.8053,2.8195,2.835,2.8387,2.8378,2.8341,2.7979,2.7643,2.7339,2.6947,2.6637,2.6418,2.6527,2.6591,2.6591,2.6473,2.6136,2.5688,2.5569,2.5191,2.4821,0.171,0.1989,0.2286,0.2287,0.2418,0.2491,0.2464,0.3515,0.4351,0.4586,0.574,0.6712,0.7143,0.7447,0.7849,0.853,0.8681,0.8983,0.9646,0.9655,0.9851,1.0323,1.0654,1.1052,1.1512,1.2045,1.2441,1.2642,1.3169,1.3498,1.3757,1.4403,1.5438,1.6672,1.726,1.8355,1.9775,2.0227,2.0545,2.0799,2.1235,2.1544,2.1796,2.2111,2.2345,2.2469,2.2653,2.2833,2.2959,2.2924,2.3444,2.4122,2.4123,2.3996,2.3777,2.3189,2.3014,2.3014,2.3014,2.3014,2.3014,2.3014,2.3014,2.3046,2.3157,2.3306,2.3552,2.3824,2.4055,2.4313,2.4364,2.438,2.4468,2.472,2.4822,2.499,2.5285,2.5915,2.6415,2.6525,2.7305,2.7831,2.7831,2.8068,2.8269,2.8269,2.819,2.8208,2.8208,2.8208,2.8278,2.8572,2.8297,2.8287,2.8581,2.8728,2.8865,2.8984,2.8984,2.8984,2.8966,2.8572,2.8168,2.7803,2.7343,2.6949,2.6591,2.6591,2.6591,2.6582,2.6473,2.6136,2.5688,2.5569,2.5247,2.4821,0.0938,0.1763,0.2406,0.1804,0.1997,0.2412,0.3026,0.3803,0.4527,0.5114,0.6223,0.7143,0.7811,0.7933,0.8276,0.9227,0.9631,0.9751,0.9709,1.0323,1.0721,1.0721,1.1049,1.1582,1.2309,1.2309,1.2638,1.3371,1.3437,1.3761,1.4403,1.5113,1.5959,1.7071,1.8098,1.913,2.017,2.0792,2.1109,2.1172,2.1859,2.2111,2.2111,2.248,2.2793,2.3106,2.3106,2.2893,2.2676,2.3346,2.3367,2.3211,2.387,2.3816,2.3417,2.3117,2.3014,2.3014,2.3014,2.3014,2.3014,2.3014,2.3014,2.3109,2.3409,2.3488,2.3687,2.4436,2.4587,2.469,2.504,2.5111,2.5114,2.5133,2.5308,2.5666,2.6075,2.6626,2.712,2.7478,2.808,2.8526,2.8526,2.8806,2.8984,2.8984,2.8984,2.8984,2.8984,2.8984,2.8984,2.8984,2.8984,2.8984,2.8984,2.859,2.8599,2.8984,2.8984,2.8984,2.8975,2.8581,2.8168,2.7803,2.7352,2.6958,2.6591,2.6591,2.6591,2.6582,2.6245,2.5907,2.5688,2.534,2.5017,2.4821,0.2377,0.2613,0.2815,0.2715,0.2961,0.332,0.3812,0.4467,0.5193,0.5964,0.6749,0.751,0.8183,0.8058,0.84,0.9542,0.9315,0.9497,1.0369,1.0787,1.1251,1.1776,1.1912,1.2309,1.3038,1.3038,1.3297,1.3752,1.4015,1.4211,1.4403,1.5383,1.6224,1.7071,1.8098,1.913,2.0106,2.0545,2.0862,2.1172,2.1544,2.1922,2.2111,2.248,2.2656,2.2769,2.2769,2.2747,2.2677,2.2875,2.3112,2.3469,2.3652,2.3626,2.3417,2.3117,2.3014,2.3014,2.3014,2.3014,2.3014,2.3014,2.3014,2.3109,2.3409,2.3729,2.4031,2.4484,2.4778,2.4984,2.5087,2.5296,2.5509,2.5753,2.604,2.6463,2.6996,2.7236,2.7459,2.7813,2.8208,2.8526,2.8526,2.8806,2.8984,2.8984,2.8984,2.8984,2.8984,2.8984,2.8984,2.8984,2.8984,2.8984,2.8984,2.8865,2.8865,2.8984,2.8984,2.8984,2.8975,2.8865,2.859,2.8187,2.7822,2.7361,2.6976,2.6701,2.6473,2.6236,2.6127,2.5789,2.534,2.5229,2.5017,2.4821,0.2583,0.2923,0.3175,0.2961,0.3195,0.3606,0.4295,0.4886,0.5556,0.6425,0.7193,0.7814,0.8369,0.8366,0.8708,0.9732,0.98,1.0068,1.084,1.138,1.1909,1.2441,1.2642,1.2972,1.3371,1.3564,1.3752,1.4076,1.4272,1.4539,1.4866,1.5904,1.6742,1.7459,1.8682,1.9711,2.0545,2.0982,2.1299,2.1551,2.1985,2.2237,2.2362,2.2668,2.2802,2.2798,2.2667,2.2546,2.2468,2.2442,2.2774,2.3204,2.3174,2.3225,2.3235,2.3077,2.3014,2.3014,2.3014,2.3014,2.3014,2.3014,2.3014,2.3109,2.3409,2.3705,2.3991,2.4476,2.4754,2.5005,2.5272,2.548,2.5725,2.6197,2.6571,2.6935,2.7461,2.7711,2.796,2.8148,2.8507,2.8696,2.8696,2.8865,2.9044,2.9213,2.9213,2.9331,2.9677,2.9618,2.9677,2.9903,2.9785,2.9618,2.934,2.934,2.9139,2.8755,2.8911,2.8902,2.8755,2.8911,2.8764,2.837,2.7948,2.7601,2.7141,2.6747,2.6473,2.6245,2.6017,2.5734,2.534,2.5128,2.4923,2.4821,0.2083,0.2874,0.3408,0.2859,0.3027,0.3551,0.4648,0.5125,0.5795,0.6739,0.7501,0.8058,0.843,0.8671,0.9146,0.9799,1.0675,1.1247,1.1314,1.1978,1.2507,1.2836,1.3235,1.3498,1.3498,1.3818,1.4141,1.4469,1.4473,1.4866,1.5593,1.6558,1.7389,1.8098,1.9456,2.0482,2.1172,2.1796,2.2048,2.2174,2.2793,2.2856,2.2613,2.2981,2.3106,2.3062,2.274,2.2432,2.2192,2.2111,2.2253,2.257,2.257,2.2732,2.2901,2.2958,2.2981,2.3005,2.3062,2.3085,2.3109,2.3109,2.3109,2.3197,2.3457,2.3552,2.3824,2.4492,2.4687,2.4851,2.5485,2.5672,2.5908,2.651,2.6943,2.7246,2.7521,2.814,2.8517,2.8526,2.8806,2.8984,2.8984,2.9044,2.9153,2.9509,2.9568,2.9962,3.0772,3.0548,3.0665,3.1227,3.0937,3.048,2.9981,2.9922,2.9371,2.8397,2.8792,2.8773,2.8407,2.8801,2.8783,2.8425,2.7967,2.762,2.7196,2.6765,2.6591,2.6473,2.5907,2.5688,2.5578,2.5034,2.4821,2.4821,0.3436,0.3469,0.3421,0.3404,0.3866,0.4468,0.5358,0.5981,0.6648,0.7562,0.7795,0.8116,0.8732,0.8613,0.8967,1.0059,1.0809,1.1449,1.2045,1.2441,1.2836,1.3235,1.3888,1.4211,1.4211,1.4272,1.4469,1.48,1.5132,1.5458,1.5909,1.6947,1.7781,1.8547,1.9584,2.0482,2.1109,2.1551,2.1859,2.2111,2.2543,2.2668,2.2613,2.2981,2.3106,2.3062,2.274,2.2432,2.2156,2.1859,2.1949,2.223,2.223,2.223,2.2335,2.2626,2.2879,2.3148,2.3312,2.3626,2.3883,2.3883,2.3883,2.3906,2.392,2.4158,2.4476,2.4905,2.5184,2.5452,2.5594,2.6031,2.6518,2.6952,2.7237,2.759,2.8208,2.8397,2.8576,2.8865,2.8984,2.8984,2.8984,2.9213,2.9509,2.9804,3.0039,3.0372,3.0762,3.0772,3.0772,3.0878,3.0606,3.0548,3.0597,2.9912,2.9186,2.8397,2.8792,2.8773,2.8407,2.8801,2.8938,2.881,2.8086,2.7776,2.7581,2.6875,2.6473,2.6181,2.5852,2.5569,2.5284,2.4923,2.4821,2.4821,0.4139,0.4062,0.3949,0.4021,0.4455,0.503,0.5795,0.6389,0.7013,0.7787,0.8058,0.8244,0.861,0.8732,0.9273,1.0443,1.1322,1.2022,1.2305,1.2964,1.3424,1.3625,1.4146,1.4473,1.467,1.48,1.5001,1.5197,1.5403,1.5849,1.6488,1.733,1.8232,1.9124,2.0157,2.0919,2.1607,2.1922,2.2299,2.2606,2.2793,2.2856,2.2863,2.305,2.3106,2.3062,2.274,2.2432,2.2192,2.2024,2.2139,2.2364,2.2364,2.2539,2.2836,2.301,2.3301,2.3617,2.3726,2.392,2.4114,2.4114,2.4241,2.436,2.436,2.4444,2.4743,2.5224,2.5488,2.5672,2.6031,2.6336,2.6753,2.7237,2.753,2.7891,2.8457,2.8636,2.8806,2.8984,2.8984,2.9103,2.94,2.9853,3.0255,3.0567,3.0743,3.1082,3.17,3.1594,3.1652,3.195,3.1662,3.1441,3.1305,3.085,3.017,2.9249,2.9077,2.8773,2.8407,2.9096,2.945,2.9422,2.8779,2.8396,2.8173,2.728,2.6582,2.6072,2.5798,2.5514,2.5221,2.5247,2.5255,2.5255,0.4646,0.4582,0.4576,0.4589,0.4942,0.5485,0.6094,0.6669,0.7261,0.7919,0.8305,0.8491,0.8552,0.9139,0.994,1.089,1.1978,1.2609,1.2499,1.3486,1.4076,1.4076,1.4469,1.48,1.5062,1.5393,1.5533,1.5468,1.5598,1.6174,1.7195,1.7781,1.8746,1.9896,2.0722,2.1481,2.2174,2.2487,2.2793,2.3106,2.3106,2.3106,2.3106,2.3106,2.3106,2.3062,2.274,2.2432,2.2184,2.2184,2.2363,2.2535,2.2587,2.3004,2.3487,2.3479,2.3807,2.4083,2.4083,2.4182,2.4289,2.4289,2.4452,2.4674,2.4735,2.4795,2.4935,2.5546,2.5725,2.5908,2.651,2.664,2.6874,2.7461,2.7831,2.814,2.8517,2.8815,2.9044,2.9163,2.9213,2.9499,3.003,3.0548,3.1014,3.1383,3.1441,3.1845,3.2638,3.2477,3.2602,3.3079,3.2794,3.244,3.196,3.1787,3.1309,3.0484,2.9683,2.9127,2.8746,2.9615,3.0039,3.0011,2.9641,2.9251,2.8908,2.7921,2.7133,2.6491,2.6145,2.578,2.5441,2.5624,2.5688,2.5688,0.5254,0.4983,0.4788,0.486,0.5394,0.5943,0.6152,0.7202,0.8102,0.8291,0.861,0.8915,0.9156,1.0059,1.0865,1.1605,1.235,1.2943,1.3235,1.4216,1.4735,1.4735,1.5448,1.5774,1.5844,1.5909,1.5784,1.5468,1.6049,1.6882,1.784,1.8302,1.9392,2.0919,2.1046,2.1607,2.255,2.2613,2.2793,2.3106,2.3106,2.3106,2.3106,2.3106,2.3106,2.3062,2.274,2.2432,2.2184,2.2184,2.2244,2.2296,2.258,2.2751,2.287,2.31,2.3606,2.4079,2.4079,2.4548,2.4968,2.4968,2.5,2.5101,2.5415,2.5468,2.5546,2.5945,2.6266,2.651,2.6571,2.683,2.7254,2.784,2.796,2.8199,2.8865,2.8984,2.9213,2.9745,3.0255,3.0597,3.0655,3.1024,3.1383,3.173,3.2018,3.2305,3.2669,3.2669,3.2669,3.2794,3.2487,3.243,3.2555,3.1797,3.1469,3.1582,3.0869,3.0374,2.9986,3.0461,3.0655,3.0684,3.0266,3.0052,2.9935,2.9101,2.8513,2.8134,2.7455,2.6881,2.6327,2.5898,2.5688,2.5688,0.5594,0.5345,0.5167,0.5148,0.5836,0.6413,0.6686,0.7617,0.8424,0.8665,0.8915,0.9217,0.9518,1.0494,1.1274,1.1783,1.257,1.3092,1.3202,1.4479,1.5132,1.4931,1.5583,1.5974,1.5974,1.6359,1.6488,1.6364,1.6812,1.7523,1.8372,1.927,2.0227,2.1109,2.167,2.2174,2.2613,2.2793,2.2981,2.3106,2.3106,2.3106,2.3106,2.3106,2.3106,2.3091,2.2945,2.2813,2.2696,2.2696,2.2818,2.3009,2.3178,2.3483,2.3825,2.4139,2.4416,2.4676,2.4873,2.502,2.5111,2.5111,2.5234,2.548,2.5778,2.6022,2.6214,2.6327,2.651,2.664,2.6822,2.7116,2.7478,2.79,2.8148,2.8448,2.8925,2.9281,2.9745,3.0314,3.0956,3.1363,3.1363,3.1787,3.2143,3.2258,3.243,3.2555,3.2669,3.2669,3.2669,3.2669,3.2612,3.2555,3.2669,3.2487,3.2315,3.2315,3.219,3.1552,3.0557,3.11,3.1363,3.1353,3.1001,3.0717,3.0394,2.9513,2.8933,2.8536,2.8078,2.7585,2.7068,2.6409,2.6227,2.6172]},{"header":{"parameterUnit":"m.s-1","parameterCategory":1,"la1":30.6,"la2":28.766,"lo1":-90.7593,"lo2":-88.6598,"dy":0.0162,"dx":0.0183,"nx":116,"ny":114,"refTime":"2023-09-22T00:00:00:Z","depth":0,"parameterNumber":3,"parameterNumberName":"V-component_of_WINDS"},"data":[0.0,0.0,0.0,0.0,0.0,0.0,0.0,0.0,0.0,0.0,0.0,0.0,0.0,0.0,0.0,0.0,0.0,0.0,0.0,0.0,0.0,0.0,0.0,0.0,0.0,0.0,0.0,0.0,0.0,0.0,0.0,0.0,0.0,0.0,0.0,0.0,0.0,0.0,0.0,0.0,0.0,0.0,0.0,0.0,0.0,0.0,0.0,0.0,0.0,0.0,0.0,0.0,0.0,0.0,0.0,0.0,0.0,0.0,0.0,0.0,0.0,0.0,0.0,0.0,0.0,0.0,0.0,0.0,0.0,0.0,0.0,0.0,0.0,0.0,0.0,0.0,0.0,0.0,0.0,0.0,0.0,0.0,0.0,0.0,0.0,0.0,0.0,0.0,0.0,0.0,0.0,0.0,0.0,0.0,0.0,0.0,0.0,0.0,0.0,0.0,0.0,0.0,0.0,0.0,0.0,0.0,0.0,0.0,0.0,0.0,0.0,0.0,0.0,0.0,0.0,0.0,0.0,0.0,0.0,0.0,0.0,0.0,0.0,0.0,0.0,0.0,0.0,0.0,0.0,0.0,0.0,0.0,0.0,0.0,0.0,0.0,0.0,0.0,0.0,0.0,0.0,0.0,0.0,0.0,0.0,0.0,0.0,0.0,0.0,0.0,0.0,0.0,0.0,0.0,0.0,0.0,0.0,0.0,0.0,0.0,0.0,0.0,0.0,0.0,0.0,0.0,0.0,0.0,0.0,0.0,0.0,0.0,0.0,0.0,0.0,0.0,0.0,0.0,0.0,0.0,0.0,0.0,0.0,0.0,0.0,0.0,0.0,0.0,0.0,0.0,0.0,0.0,0.0,0.0,0.0,0.0,0.0,0.0,0.0,0.0,0.0,0.0,0.0,0.0,0.0,0.0,0.0,0.0,0.0,0.0,0.0,0.0,0.0,0.0,0.0,0.0,0.0,0.0,0.0,0.0,0.0,0.0,0.0,0.0,0.0,0.0,0.0,0.0,0.0,0.0,0.0,0.0,0.0,0.0,0.0,0.0,0.0,0.0,0.0,0.0,0.0,0.0,0.0,0.0,0.0,0.0,0.0,0.0,0.0,0.0,0.0,0.0,0.0,0.0,0.0,0.0,0.0,0.0,0.0,0.0,0.0,0.0,0.0,0.0,0.0,0.0,0.0,0.0,0.0,0.0,0.0,0.0,0.0,0.0,0.0,0.0,0.0,0.0,0.0,0.0,0.0,0.0,0.0,0.0,0.0,0.0,0.0,0.0,0.0,0.0,0.0,0.0,0.0,0.0,0.0,0.0,0.0,0.0,0.0,0.0,0.0,0.0,0.0,0.0,0.0,0.0,0.0,0.0,0.0,0.0,0.0,0.0,0.0,0.0,0.0,0.0,0.0,0.0,0.0,0.0,0.0,0.0,0.0,0.0,0.0,0.0,0.0,0.0,0.0,0.0,0.0,0.0,0.0,0.0,0.0,0.0,0.0,0.0,0.0,0.0,0.0,0.0,0.0,0.0,0.0,0.0,0.0,0.0,0.0,0.0,0.0,0.0,0.0,0.0,0.0,0.0,0.0,0.0,0.0,0.0,0.0,0.0,0.0,0.0,0.0,0.0,0.0,0.0,0.0,0.0,0.0,0.0,0.0,0.0,0.0,0.0,0.0,0.0,0.0,0.0,0.0,0.0,0.0,0.0,0.0,0.0,0.0,0.0,0.0,0.0,0.0,0.0,0.0,0.0,0.0,0.0,0.0,0.0,0.0,0.0,0.0,0.0,0.0,0.0,0.0,0.0,0.0,0.0,0.0,0.0,0.0,0.0,0.0,0.0,0.0,0.0,0.0,0.0,0.0,0.0,0.0,0.0,0.0,0.0,0.0,0.0,0.0,0.0,0.0,0.0,0.0,0.0,0.0,0.0,0.0,0.0,0.0,0.0,0.0,0.0,0.0,0.0,0.0,0.0,0.0,0.0,0.0,0.0,0.0,0.0,0.0,0.0,0.0,0.0,0.0,0.0,0.0,0.0,0.0,0.0,0.0,0.0,0.0,0.0,0.0,0.0,0.0,0.0,0.0,0.0,0.0,0.0,0.0,0.0,0.0,0.0,0.0,0.0,0.0,0.0,0.0,0.0,0.0,0.0,0.0,0.0,0.0,0.0,0.0,0.0,0.0,0.0,0.0,0.0,0.0,0.0,0.0,0.0,0.0,0.0,0.0,0.0,0.0,0.0,0.0,0.0,0.0,0.0,0.0,0.0,0.0,0.0,0.0,0.0,0.0,0.0,0.0,0.0,0.0,0.0,0.0,0.0,0.0,0.0,0.0,0.0,0.0,0.0,0.0,0.0,0.0,0.0,0.0,0.0,0.0,0.0,0.0,0.0,0.0,0.0,0.0,0.0,0.0,0.0,0.0,0.0,0.0,0.0,0.0,0.0,0.0,0.0,0.0,0.0,0.0,0.0,0.0,0.0,0.0,0.0,0.0,0.0,0.0,0.0,0.0,0.0,0.0,0.0,0.0,0.0,0.0,0.0,0.0,0.0,0.0,0.0,0.0,0.0,0.0,0.0,0.0,0.0,0.0,0.0,0.0,0.0,0.0,0.0,0.0,0.0,0.0,0.0,0.0,0.0,0.0,0.0,0.0,0.0,0.0,0.0,0.0,0.0,0.0,0.0,0.0,0.0,0.0,0.0,0.0,0.0,0.0,0.0,0.0,0.0,0.0,0.0,0.0,0.0,0.0,0.0,0.0,0.0,0.0,0.0,0.0,0.0,0.0,0.0,0.0,0.0,0.0,0.0,0.0,0.0,0.0,0.0,0.0,0.0,0.0,0.0,0.0,0.0,0.0,0.0,0.0,0.0,0.0,0.0,0.0,0.0,0.0,0.0,0.0,0.0,0.0,0.0,0.0,0.0,0.0,0.0,0.0,0.0,0.0,0.0,0.0,0.0,0.0,0.0,0.0,0.0,0.0,0.0,0.0,0.0,0.0,0.0,0.0,0.0,0.0,0.0,0.0,0.0,0.0,0.0,0.0,0.0,0.0,0.0,0.0,0.0,0.0,0.0,0.0,0.0,0.0,0.0,0.0,0.0,0.0,0.0,0.0,0.0,0.0,0.0,0.0,0.0,0.0,0.0,0.0,0.0,0.0,0.0,0.0,0.0,0.0,0.0,0.0,0.0,0.0,0.0,0.0,0.0,0.0,0.0,0.0,0.0,0.0,0.0,0.0,0.0,0.0,0.0,0.0,0.0,0.0,0.0,0.0,0.0,0.0,0.0,0.0,0.0,0.0,0.0,0.0,0.0,0.0,0.0,0.0,0.0,0.0,0.0,0.0,0.0,0.0,0.0,0.0,0.0,0.0,0.0,0.0,0.0,0.0,0.0,0.0,0.0,0.0,0.0,0.0,0.0,0.0,0.0,0.0,0.0,0.0,0.0,0.0,0.0,0.0,0.0,0.0,0.0,0.0,0.0,0.0,0.0,0.0,0.0,0.0,0.0,0.0,0.0,0.0,0.0,0.0,0.0,0.0,0.0,0.0,0.0,0.0,0.0,0.0,0.0,0.0,0.0,0.0,0.0,0.0,0.0,0.0,0.0,0.0,0.0,0.0,0.0,0.0,0.0,0.0,0.0,0.0,0.0,0.0,0.0,0.0,0.0,0.0,0.0,0.0,0.0,0.0,0.0,0.0,0.0,0.0,0.0,0.0,0.0,0.0,0.0,0.0,0.0,0.0,0.0,0.0,0.0,0.0,0.0,0.0,0.0,0.0,0.0,0.0,0.0,0.0,0.0,0.0,0.0,0.0,0.0,0.0,0.0,0.0,0.0,0.0,0.0,0.0,0.0,0.0,0.0,0.0,0.0,0.0,0.0,0.0,0.0,0.0,0.0,0.0,0.0,0.0,0.0,0.0,0.0,0.0,0.0,0.0,0.0,0.0,0.0,0.0,0.0,0.0,0.0,0.0,0.0,0.0,0.0,0.0,0.0,0.0,0.0,0.0,0.0,0.0,0.0,0.0,0.0,0.0,0.0,0.0,0.0,0.0,0.0,0.0,0.0,0.0,0.0,0.0,0.0,0.0,0.0,0.0,0.0,0.0,0.0,0.0,0.0,0.0,0.0,0.0,0.0,0.0,0.0,0.0,0.0,0.0,0.0,0.0,0.0,0.0,0.0,0.0,0.0,0.0,0.0,0.0,0.0,0.0,0.0,0.0,0.0,0.0,0.0,0.0,0.0,0.0,0.0,0.0,0.0,0.0,0.0,0.0,0.0,0.0,0.0,0.0,0.0,0.0,0.0,0.0,0.0,0.0,0.0,0.0,0.0,0.0,0.0,0.0,0.0,0.0,0.0,0.0,0.0,0.0,0.0,0.0,0.0,0.0,0.0,0.0,0.0,0.0,0.0,0.0,0.0,0.0,0.0,0.0,0.0,0.0,0.0,0.0,0.0,0.0,0.0,0.0,0.0,0.0,0.0,0.0,0.0,0.0,0.0,0.0,0.0,0.0,0.0,0.0,0.0,0.0,0.0,0.0,0.0,0.0,0.0,0.0,0.0,0.0,0.0,0.0,0.0,0.0,0.0,0.0,0.0,0.0,0.0,0.0,0.0,0.0,0.0,0.0,0.0,0.0,0.0,0.0,0.0,0.0,0.0,0.0,0.0,0.0,0.0,0.0,0.0,0.0,0.0,0.0,0.0,0.0,0.0,0.0,0.0,0.0,0.0,0.0,0.0,0.0,0.0,0.0,0.0,0.0,0.0,0.0,0.0,0.0,0.0,0.0,0.0,0.0,0.0,0.0,0.0,0.0,0.0,0.0,0.0,0.0,0.0,0.0,0.0,0.0,0.0,0.0,0.0,0.0,0.0,0.0,0.0,0.0,0.0,0.0,0.0,0.0,0.0,0.0,0.0,0.0,0.0,0.0,0.0,0.0,0.0,0.0,0.0,0.0,0.0,0.0,0.0,0.0,0.0,0.0,0.0,0.0,0.0,0.0,0.0,0.0,0.0,0.0,0.0,0.0,0.0,0.0,0.0,0.0,0.0,0.0,0.0,0.0,0.0,0.0,0.0,0.0,0.0,0.0,0.0,0.0,0.0,0.0,0.0,0.0,0.0,0.0,0.0,0.0,0.0,0.0,0.0,0.0,0.0,0.0,0.0,0.0,0.0,0.0,0.0,0.0,0.0,0.0,0.0,0.0,0.0,0.0,0.0,0.0,0.0,0.0,0.0,0.0,0.0,0.0,0.0,0.0,0.0,0.0,0.0,0.0,0.0,0.0,0.0,0.0,0.0,0.0,0.0,0.0,0.0,0.0,0.0,0.0,0.0,0.0,0.0,0.0,0.0,0.0,0.0,0.0,0.0,0.0,0.0,0.0,0.0,0.0,0.0,0.0,0.0,0.0,0.0,0.0,0.0,0.0,0.0,0.0,0.0,0.0,0.0,0.0,0.0,0.0,0.0,0.0,0.0,0.0,0.0,0.0,0.0,0.0,0.0,0.0,0.0,0.0,0.0,0.0,0.0,0.0,0.0,0.0,0.0,0.0,0.0,0.0,0.0,0.0,0.0,0.0,0.0,0.0,0.0,0.0,0.0,0.0,0.0,0.0,0.0,0.0,0.0,0.0,0.0,0.0,0.0,0.0,0.0,0.0,0.0,0.0,0.0,0.0,0.0,0.0,0.0,0.0,0.0,0.0,0.0,0.0,0.0,0.0,0.0,0.0,0.0,0.0,0.0,0.0,0.0,0.0,0.0,0.0,0.0,0.0,0.0,0.0,0.0,0.0,0.0,0.0,0.0,0.0,0.0,0.0,0.0,0.0,0.0,0.0,0.0,0.0,0.0,0.0,0.0,0.0,0.0,0.0,0.0,0.0,0.0,0.0,0.0,0.0,0.0,0.0,0.0,0.0,0.0,0.0,0.0,0.0,0.0,0.0,0.0,0.0,0.0,0.0,0.0,0.0,0.0,0.0,0.0,0.0,0.0,0.0,0.0,0.0,0.0,0.0,0.0,0.0,0.0,0.0,0.0,0.0,0.0,0.0,0.0,0.0,0.0,0.0,0.0,0.0,0.0,0.0,0.0,0.0,0.0,0.0,0.0,0.0,0.0,0.0,0.0,2.0421,0.0,0.0,0.0,0.0,0.0,0.0,0.0,0.0,0.0,0.0,0.0,0.0,0.0,0.0,0.0,0.0,0.0,0.0,0.0,0.0,0.0,0.0,0.0,0.0,0.0,0.0,0.0,0.0,0.0,0.0,0.0,0.0,0.0,0.0,0.0,0.0,0.0,0.0,1.9528,1.9336,1.8886,1.82,1.7831,1.7321,1.6673,0.0,0.0,0.0,0.0,0.0,0.0,0.0,0.0,0.0,0.0,0.0,0.0,0.0,0.0,0.0,0.0,0.0,0.0,0.0,0.0,0.0,0.0,0.0,0.0,0.0,0.0,0.0,0.0,0.0,0.0,0.0,0.0,0.0,0.0,0.0,0.0,0.0,0.0,0.0,0.0,0.0,0.0,0.0,0.0,0.0,0.0,0.0,0.0,0.0,0.0,0.0,0.0,0.0,0.0,0.0,0.0,0.0,0.0,0.0,0.0,0.0,0.0,0.0,0.0,0.0,0.0,0.0,0.0,0.0,0.0,0.0,2.3431,0.0,0.0,0.0,0.0,0.0,0.0,0.0,0.0,0.0,0.0,0.0,0.0,0.0,0.0,0.0,0.0,0.0,0.0,0.0,0.0,0.0,0.0,0.0,2.0263,2.0562,2.0985,2.0909,2.0811,0.0,0.0,0.0,0.0,0.0,0.0,1.9712,1.9803,1.9562,1.8968,1.9064,1.8693,1.7936,1.7731,1.7444,1.7097,1.6348,0.0,0.0,0.0,0.0,0.0,0.0,0.0,0.0,0.0,0.0,0.0,0.0,0.0,0.0,0.0,0.0,0.0,0.0,0.0,0.0,0.0,0.0,0.0,0.0,0.0,0.0,0.0,0.0,0.0,0.0,0.0,0.0,0.0,0.0,0.0,0.0,0.0,0.0,0.0,0.0,0.0,0.0,0.0,0.0,0.0,0.0,0.0,0.0,0.0,0.0,0.0,0.0,0.0,0.0,0.0,0.0,0.0,0.0,0.0,0.0,0.0,0.0,0.0,2.7619,2.8658,3.0368,3.1117,3.156,3.1662,2.9016,2.7554,2.6936,0.0,0.0,0.0,0.0,0.0,0.0,0.0,0.0,0.0,0.0,0.0,0.0,0.0,0.0,0.0,0.0,0.0,0.0,0.0,0.0,0.0,0.0,2.0579,2.133,2.0715,2.1672,2.2116,2.1644,0.0,0.0,0.0,0.0,0.0,2.0878,2.0572,2.017,1.967,1.8722,1.8336,1.8503,1.8222,1.8072,1.7964,1.6658,1.6486,1.6974,0.0,0.0,0.0,0.0,0.0,0.0,0.0,0.0,0.0,0.0,0.0,0.0,0.0,0.0,0.0,0.0,0.0,0.0,0.0,0.0,0.0,0.0,0.0,0.0,0.0,0.0,0.0,0.0,0.0,0.0,0.0,0.0,0.0,0.0,0.0,0.0,0.0,0.0,0.0,0.0,0.0,2.1072,2.2638,0.0,0.0,0.0,0.0,0.0,0.0,0.0,0.0,0.0,0.0,0.0,0.0,0.0,2.658,2.7485,2.8165,2.9177,3.0498,3.0654,3.1217,3.2167,3.2568,3.2831,3.2956,3.2397,0.0,3.0138,2.8491,0.0,0.0,0.0,0.0,0.0,0.0,0.0,0.0,0.0,0.0,0.0,0.0,0.0,0.0,0.0,0.0,0.0,0.0,0.0,0.0,0.0,2.0627,2.1196,2.1108,2.1447,2.1492,2.1149,2.1256,0.0,0.0,0.0,2.1135,2.1103,2.0776,2.0222,1.942,1.8486,1.8208,1.8492,1.8323,1.8526,1.8964,1.7987,1.7716,1.7907,1.6441,0.0,0.0,0.0,0.0,0.0,0.0,0.0,0.0,0.0,0.0,0.0,0.0,0.0,0.0,0.0,0.0,0.0,0.0,0.0,0.0,0.0,0.0,0.0,0.0,0.0,0.0,0.0,0.0,0.0,0.0,0.0,0.0,0.0,0.0,0.0,0.0,0.0,0.0,0.0,2.1015,2.2487,2.416,2.314,2.293,0.0,0.0,0.0,0.0,0.0,0.0,0.0,0.0,0.0,2.689,2.8111,2.9247,3.0238,3.0348,3.0853,3.1774,3.1919,3.2254,3.2813,3.3513,3.3913,3.4069,3.4381,3.3966,3.2869,3.0705,3.0066,3.0154,0.0,0.0,0.0,0.0,2.6194,2.7844,0.0,0.0,0.0,0.0,0.0,0.0,0.0,0.0,0.0,0.0,0.0,0.0,2.0212,2.0424,2.0687,2.1067,2.091,2.0719,2.0547,2.0685,2.0799,2.091,2.0974,2.1022,2.1038,2.0644,2.0051,1.9238,1.8575,1.8452,1.8914,1.8786,1.9156,1.9897,1.9392,1.9019,1.8733,1.8486,1.7678,1.6562,0.0,0.0,0.0,0.0,0.0,0.0,0.0,0.0,0.0,0.0,0.0,0.0,0.0,0.0,0.0,0.0,0.0,0.0,0.0,0.0,0.0,0.0,0.0,0.0,0.0,0.0,0.0,0.0,0.0,0.0,0.0,0.0,0.0,0.0,0.0,0.0,0.0,2.2466,2.4053,2.555,2.4962,2.5118,0.0,0.0,0.0,0.0,0.0,0.0,2.5713,2.6987,2.8234,2.9371,3.029,3.1091,3.1805,3.1641,3.189,3.2519,3.273,3.3059,3.3583,3.439,3.4821,3.4979,3.5477,3.5343,3.4618,3.2735,3.1752,3.1266,2.9814,2.9317,2.9343,2.9009,3.0144,3.1965,0.0,0.0,0.0,0.0,0.0,0.0,0.0,0.0,0.0,0.0,0.0,2.001,2.0097,1.994,1.9894,1.9976,2.0322,2.0461,2.0321,2.056,2.0761,2.0893,2.086,2.0844,2.0909,2.0152,1.9716,1.9669,1.9114,1.9342,2.0278,2.003,2.0202,2.0731,2.0582,2.0321,1.999,1.9788,1.9309,1.8672,1.8843,0.0,0.0,0.0,0.0,0.0,0.0,0.0,0.0,0.0,0.0,0.0,0.0,0.0,0.0,0.0,0.0,0.0,0.0,0.0,0.0,0.0,0.0,0.0,0.0,0.0,0.0,0.0,0.0,0.0,0.0,0.0,0.0,0.0,0.0,0.0,0.0,0.0,0.0,2.6497,2.7032,0.0,0.0,0.0,0.0,2.6829,2.7982,2.8825,2.9292,3.0359,3.091,3.0812,3.1202,3.1377,3.1244,3.174,3.2381,3.3182,3.3482,3.4144,3.5091,3.5332,3.5527,3.5642,3.5672,3.5421,3.4971,3.4618,3.4042,3.3365,3.3608,3.3697,3.3757,3.4154,3.4675,3.5229,0.0,0.0,0.0,0.0,0.0,0.0,0.0,0.0,1.9185,1.9443,1.9894,2.0217,2.0289,2.0256,2.0215,2.0169,2.021,2.0202,2.0113,2.0407,2.0645,2.0828,2.0811,2.0899,2.1097,2.0561,2.0365,2.0532,2.0091,2.0204,2.0855,2.0749,2.0924,2.1313,2.1361,2.1277,2.1021,2.0519,2.0021,1.9568,1.9415,1.8554,0.0,0.0,0.0,0.0,0.0,0.0,0.0,0.0,0.0,0.0,0.0,0.0,0.0,0.0,0.0,0.0,0.0,0.0,0.0,0.0,0.0,0.0,0.0,0.0,0.0,0.0,0.0,0.0,0.0,0.0,0.0,0.0,0.0,0.0,0.0,0.0,0.0,2.8025,2.8565,0.0,3.0293,2.9521,2.9218,2.9798,3.0484,3.0912,3.0962,3.1567,3.2107,3.2568,3.2696,3.3099,3.3773,3.3603,3.3966,3.4827,3.473,3.4978,3.5542,3.5814,3.599,3.6038,3.6242,3.6213,3.5968,3.6122,3.537,3.4134,3.4149,3.4312,3.4635,3.5143,3.5765,3.647,0.0,0.0,0.0,0.0,0.0,0.0,0.0,0.0,1.9401,1.988,2.0522,2.0861,2.0601,2.0479,2.0392,2.0304,2.015,2.0096,2.0146,2.034,2.0578,2.0794,2.1065,2.1337,2.1627,2.122,2.1129,2.1364,2.0984,2.1028,2.1466,2.1535,2.1653,2.1864,2.1926,2.1912,2.1874,2.142,2.1105,2.0941,2.0596,2.0157,1.9578,0.0,0.0,0.0,0.0,0.0,0.0,0.0,0.0,0.0,0.0,0.0,0.0,0.0,0.0,0.0,0.0,0.0,0.0,0.0,0.0,0.0,0.0,0.0,0.0,0.0,0.0,0.0,0.0,0.0,0.0,0.0,0.0,0.0,0.0,0.0,2.898,2.9334,3.0229,3.1157,3.2019,3.1468,3.1235,3.173,3.2168,3.2381,3.2319,3.2764,3.3278,3.3846,3.3458,3.3846,3.5088,3.4434,3.4633,3.5688,3.5527,3.5655,3.6038,3.6211,3.6367,3.6476,3.6739,3.6831,3.6816,3.7029,3.6587,3.5681,3.489,3.4752,3.5017,3.5043,3.5549,3.6317,0.0,0.0,0.0,0.0,0.0,0.0,0.0,1.9746,2.057,2.0911,2.1644,2.1819,2.1001,2.0536,2.0304,2.0304,2.0131,2.0146,2.0405,2.0426,2.0561,2.0826,2.1607,2.2199,2.254,2.2075,2.1944,2.2147,2.1809,2.1859,2.224,2.237,2.244,2.2417,2.2301,2.2356,2.2512,2.2449,2.263,2.292,2.2517,2.2184,2.1931,0.0,0.0,0.0,0.0,0.0,0.0,0.0,0.0,0.0,0.0,0.0,0.0,0.0,0.0,0.0,0.0,0.0,0.0,0.0,0.0,0.0,0.0,0.0,0.0,0.0,0.0,0.0,0.0,0.0,0.0,0.0,0.0,0.0,2.7247,2.8958,3.0225,3.0378,3.2084,3.3009,3.2436,3.2378,3.2428,3.2559,3.2992,3.3353,3.3532,3.4114,3.4486,3.4566,3.3413,3.3465,3.4846,3.401,3.4304,3.572,3.5894,3.6258,3.6693,3.6554,3.6677,3.6999,3.715,3.7298,3.7417,3.7417,3.7727,3.8014,3.613,3.5339,3.5201,3.4273,3.4313,3.5086,0.0,0.0,0.0,0.0,0.0,0.0,0.0,1.9134,1.9506,2.0182,2.0221,2.0428,2.1126,2.0796,2.0458,2.0314,2.0427,2.0561,2.0682,2.0844,2.1197,2.1856,2.2562,2.311,2.351,2.3013,2.3016,2.3538,2.3117,2.2966,2.3076,2.3113,2.3091,2.3053,2.312,2.312,2.3083,2.3061,2.3418,2.3964,2.351,2.3259,2.3207,0.0,0.0,0.0,0.0,0.0,0.0,0.0,0.0,0.0,0.0,0.0,0.0,0.0,0.0,0.0,0.0,0.0,0.0,0.0,0.0,0.0,0.0,0.0,0.0,0.0,0.0,0.0,0.0,0.0,0.0,0.0,0.0,2.9264,2.9159,3.0708,3.2044,3.2551,3.3479,3.4013,3.3839,3.3825,3.3862,3.4017,3.4391,3.4673,3.472,3.5257,3.5026,3.3853,3.4641,3.4818,3.425,3.5045,3.5792,3.643,3.5832,3.6038,3.6908,3.6336,3.6476,3.718,3.7449,3.7567,3.7626,3.7714,3.7902,3.8042,3.743,3.7337,3.7495,3.7218,3.7407,3.7926,0.0,0.0,0.0,0.0,0.0,0.0,0.0,2.0002,1.978,2.0128,2.0483,2.0844,2.1263,2.1055,2.0827,2.065,2.0795,2.091,2.0911,2.1086,2.1714,2.2867,2.3418,2.3924,2.4428,2.3979,2.3902,2.4261,2.3873,2.3681,2.3653,2.3681,2.3659,2.3631,2.3689,2.3711,2.3732,2.3653,2.4071,2.4769,2.4782,2.4678,2.4514,2.457,2.4523,2.4385,2.4057,2.3699,2.3223,2.2191,0.0,0.0,0.0,0.0,0.0,0.0,0.0,0.0,0.0,0.0,0.0,0.0,0.0,0.0,0.0,0.0,0.0,0.0,0.0,0.0,0.0,0.0,0.0,0.0,2.8819,3.0407,3.1015,3.2188,3.3114,3.3347,3.3989,3.4414,3.4515,3.4448,3.4534,3.4839,3.5085,3.5249,3.5397,3.5831,3.5507,3.42,3.5,3.5207,3.4673,3.5333,3.6122,3.6983,3.643,3.6585,3.7345,3.6892,3.6967,0.0,3.7847,3.7992,3.802,3.8205,3.8331,0.0,0.0,0.0,0.0,0.0,3.767,3.8422,0.0,0.0,0.0,0.0,0.0,0.0,0.0,2.1427,2.0713,2.0509,2.1556,2.2042,2.1271,2.1284,2.1276,2.1086,2.1181,2.1245,2.118,2.1322,2.2095,2.3648,2.405,2.4518,2.5116,2.4869,2.4679,2.4599,2.4354,2.4183,2.413,2.4204,2.4209,2.4209,2.4156,2.4219,2.4385,2.4245,2.461,2.5354,2.6022,2.61,2.5883,2.6145,2.6175,2.6036,2.6067,2.6014,2.5703,2.4534,0.0,0.0,0.0,0.0,0.0,0.0,0.0,0.0,0.0,0.0,0.0,0.0,0.0,0.0,0.0,0.0,0.0,0.0,0.0,0.0,0.0,0.0,0.0,0.0,2.9574,3.1083,3.2677,3.3457,3.374,3.3425,3.4032,3.4549,3.4731,3.4582,3.4702,3.5213,3.5279,3.5459,3.5752,0.0,0.0,0.0,0.0,3.5167,3.5539,3.5384,3.6012,3.7417,3.7238,3.7417,3.7918,3.7714,3.7743,3.802,3.8307,3.8448,3.8448,3.8694,3.8832,3.8712,3.7263,3.6809,3.687,3.6158,3.6702,3.782,0.0,0.0,0.0,0.0,0.0,0.0,0.0,2.0567,2.076,2.0874,2.1117,2.1101,2.0552,2.1211,2.1482,2.0904,2.1274,2.1564,2.166,2.1841,2.233,2.3194,2.3998,2.4531,2.4713,2.5161,2.5352,2.5243,2.5061,2.4958,2.4875,2.4958,2.4997,2.4981,2.4914,2.4914,2.4934,2.4799,2.4898,2.5203,2.5877,2.6647,2.7434,2.778,2.8004,2.8107,2.7948,2.7532,2.7103,2.7395,2.6031,2.4401,2.5171,2.4464,0.0,0.0,0.0,0.0,0.0,0.0,0.0,0.0,0.0,0.0,0.0,0.0,0.0,0.0,0.0,0.0,0.0,0.0,0.0,2.9781,3.1509,3.2901,3.3443,3.4313,3.4824,3.4611,3.4728,3.4868,3.5082,3.5082,3.5198,3.5574,3.5847,3.6038,3.6101,3.6569,0.0,3.4655,3.5984,3.6213,3.514,3.65,3.7336,3.7626,0.0,0.0,3.803,3.7411,3.7632,3.8472,3.8639,3.8722,3.8722,3.8777,3.8958,3.9175,3.8848,3.8943,3.9228,3.8973,3.9189,3.958,0.0,0.0,0.0,0.0,0.0,0.0,0.0,2.1091,2.148,2.1405,2.1225,2.1015,2.0778,2.0894,2.0991,2.1005,2.1423,2.1805,2.2068,2.2538,2.2829,2.2889,2.3797,2.4275,2.4196,2.4662,2.4828,2.4709,2.501,2.5129,2.5072,2.5468,2.5649,2.5649,2.5572,2.5551,2.5532,2.5438,2.565,2.6082,2.638,2.7094,2.7987,2.7809,2.8035,2.8425,2.8264,2.8233,2.8248,2.8252,2.7302,2.61,2.6108,2.5514,2.4811,0.0,0.0,0.0,0.0,0.0,0.0,0.0,0.0,0.0,0.0,0.0,0.0,0.0,0.0,2.7801,0.0,0.0,3.0068,3.1041,3.2294,3.3334,3.3891,3.4653,3.5115,3.485,3.4868,3.4968,3.518,3.5115,3.5166,3.5427,3.5863,3.6085,3.6085,3.68,3.6614,3.5335,3.6749,3.699,3.5815,3.7212,3.7947,3.8049,3.7738,3.7895,3.8455,3.808,3.8193,3.8722,3.8958,3.904,3.9067,3.9202,3.9425,3.9703,3.9703,3.9781,3.9926,4.0062,4.0188,4.0296,0.0,0.0,0.0,0.0,0.0,0.0,0.0,2.1563,2.1806,2.154,2.125,2.1007,2.086,2.0402,2.05,2.146,2.182,2.2167,2.2494,2.3068,2.3214,2.2781,2.3478,2.3807,2.3636,2.4028,2.4115,2.3861,2.4645,2.4996,2.4963,2.573,2.6064,2.6064,2.6177,2.6207,2.6189,2.61,2.6412,2.6963,2.6906,2.7274,2.7808,2.7255,2.7496,2.8142,2.8017,2.8338,2.8783,2.8348,2.805,2.7709,2.6844,2.6491,2.6271,2.5577,2.531,0.0,0.0,0.0,0.0,0.0,0.0,0.0,0.0,0.0,2.6723,2.7784,2.8198,2.8979,3.1077,3.1233,3.1327,3.2243,3.2939,3.3654,3.442,3.5019,3.5246,3.4983,3.4983,3.5115,3.5377,3.5231,3.5231,3.5459,3.5941,3.6195,3.6211,3.6997,3.7147,3.6507,3.746,3.7682,3.701,3.7825,3.8331,3.8476,3.8611,3.875,3.8887,3.8914,3.8942,3.8996,3.9255,3.9405,3.9432,3.9677,3.9935,4.0171,4.0238,4.0188,4.0113,4.0412,4.051,4.0576,0.0,0.0,0.0,0.0,0.0,0.0,0.0,0.0,2.0492,2.0389,2.0509,2.0331,1.9668,1.9747,2.0628,2.2538,2.2758,2.2819,2.2928,2.2998,2.3037,2.297,2.3062,2.3084,2.2989,2.3919,2.405,2.3374,2.4355,2.4801,2.4758,2.5617,2.5976,2.5951,2.6649,2.694,2.6891,2.6758,2.6742,2.6809,2.6809,2.6759,2.6691,2.6723,2.7284,2.7997,2.7863,2.7871,2.8012,2.8405,2.8184,2.7791,2.8132,2.786,2.7414,2.7388,2.6808,2.615,2.6149,2.6598,2.6863,2.6012,2.6474,2.7233,0.0,0.0,2.8999,2.9027,3.0083,3.1067,3.137,3.2231,3.3099,3.3682,3.4334,3.5,3.5698,3.5864,3.591,3.5846,3.5604,3.5619,3.6053,3.5958,3.6068,3.6492,3.6739,3.6953,3.7074,3.7449,3.7727,3.7854,3.816,3.8347,3.8383,3.8595,3.875,3.875,3.8887,3.9067,3.9245,3.9379,3.9484,3.9582,3.9651,3.9703,3.9849,3.9986,4.0196,4.0485,4.0728,4.0799,4.0752,4.0583,4.0583,4.0758,0.0,0.0,0.0,0.0,0.0,0.0,0.0,0.0,0.0,2.0278,2.027,2.0088,1.9634,1.9786,2.0241,2.1022,2.1708,2.2207,2.2511,2.2523,2.3012,2.4058,2.4129,2.4331,2.4699,2.4694,2.472,2.48,2.527,2.5438,2.5366,2.6163,2.623,2.5768,2.6478,2.6767,2.6742,2.7099,2.7227,2.7197,2.7082,2.7033,2.7018,2.7004,2.7199,2.7514,2.7757,2.8122,0.0,2.8801,2.8588,2.8301,2.871,2.8317,2.7729,2.7814,2.7582,2.7356,2.7737,2.7944,0.0,0.0,2.8896,2.9051,2.9614,3.0002,3.0303,3.0655,3.1207,3.1719,3.2052,3.2752,3.35,0.0,3.4623,3.5245,3.5914,3.6068,3.6116,3.6116,3.591,3.5957,3.6352,3.6226,3.6274,3.6662,3.7043,3.7224,3.7194,3.7772,3.8164,3.8262,3.8572,3.8794,3.8832,3.9094,3.9202,3.9202,3.9345,3.9468,3.9537,3.9668,3.9849,4.0037,4.0037,4.0138,4.0263,4.0313,4.0485,4.0752,4.0864,4.0965,4.1065,4.1041,4.1018,4.1047,0.0,0.0,0.0,0.0,0.0,0.0,0.0,0.0,0.0,0.0,2.0208,1.9968,1.9637,1.9691,1.9864,2.0158,2.0961,2.1782,2.2564,2.26,2.3192,2.4592,2.5026,2.5485,2.5953,2.51,2.5056,2.5935,2.5944,2.5866,2.5703,2.6219,2.623,2.5875,2.6521,2.6907,2.7083,2.7585,2.7745,2.7689,2.7527,2.7485,2.7476,2.743,2.7415,2.7454,2.7715,2.8132,2.8579,2.892,2.8836,2.8677,2.9047,2.8674,2.8171,2.8431,2.8701,2.893,2.916,0.0,0.0,3.1112,3.111,3.0812,3.1013,3.1291,3.1575,3.1862,3.2055,3.2284,3.2714,3.337,3.3988,3.4382,3.5108,3.5784,3.6291,3.6399,3.643,3.643,3.6027,3.6043,3.6769,3.6585,3.6616,3.7133,3.7476,3.7653,3.7594,3.8132,3.8516,3.8644,3.8931,3.9121,3.9185,3.9415,3.9563,3.9563,3.9729,3.9807,3.9833,3.9986,4.0188,4.0404,4.0404,4.0527,4.0655,4.0655,4.0823,4.1082,4.1082,4.1203,4.1368,4.1515,4.1431,4.1312,0.0,0.0,0.0,0.0,0.0,0.0,0.0,0.0,0.0,0.0,0.0,0.0,0.0,1.9206,1.9676,2.1048,2.1257,2.1972,2.3555,2.3598,2.37,2.4004,2.5201,2.589,2.591,2.4614,2.4612,2.6006,2.5873,2.567,2.5417,2.5368,2.5739,2.6504,2.71,2.7773,2.843,2.8313,2.8246,2.8174,2.8174,2.7986,2.7704,2.7908,2.8102,2.8217,2.7771,2.7622,2.7756,2.855,2.8752,2.8763,2.916,2.9144,2.9102,2.9812,3.0542,3.1029,3.0639,0.0,3.1781,3.2466,3.2619,3.2364,3.1392,3.225,3.3056,3.2418,3.2699,3.3107,3.324,3.4235,3.5062,3.5077,3.6223,3.7193,3.7358,3.7119,3.6984,3.6984,3.5922,3.5859,0.0,3.7208,3.7312,3.8278,3.8363,3.8403,3.8539,3.8583,3.8805,3.9272,3.9272,3.9432,3.9677,3.9677,3.9703,3.9703,3.9944,4.007,4.0113,4.0345,4.0558,4.0697,4.0697,4.0834,4.107,4.107,4.1284,4.1582,4.1582,4.167,4.1797,4.1923,4.1732,4.1508,0.0,0.0,0.0,0.0,0.0,0.0,0.0,0.0,0.0,0.0,0.0,0.0,0.0,0.0,0.0,0.0,2.1305,2.2008,2.2905,2.3198,2.3665,2.442,2.5974,2.683,2.683,2.6744,2.6879,2.725,2.6547,2.6149,2.6053,2.5805,2.5494,2.5153,2.6422,2.7305,2.7875,2.8499,2.867,2.8522,2.8469,2.8458,2.842,2.8306,2.8498,2.8831,0.0,2.8706,2.8639,2.8948,2.8919,2.8797,2.8976,2.898,2.9148,3.0231,3.0656,3.0899,3.1701,0.0,3.2613,3.3594,3.3722,3.3505,3.3072,3.323,3.3387,3.3252,3.3292,3.3398,3.3555,3.4594,3.5419,3.5419,3.6487,3.7358,3.7387,3.7506,3.761,3.761,3.7241,0.0,0.0,0.0,0.0,3.8084,3.8217,3.8258,3.8399,3.898,3.9398,3.9547,3.9893,4.0113,4.0087,4.0263,4.0313,4.0221,4.0412,4.0583,4.0769,4.0864,4.0942,4.1041,4.1041,4.1134,4.1307,4.1307,4.1471,4.1736,4.1736,4.1819,4.1945,4.1984,4.2009,4.203,0.0,0.0,0.0,0.0,0.0,0.0,0.0,0.0,0.0,0.0,0.0,0.0,0.0,0.0,0.0,0.0,0.0,2.2675,2.3308,2.3621,2.4061,2.4746,2.5946,2.6727,2.7007,2.7077,2.7426,2.807,2.6705,2.6234,2.656,2.5933,2.5454,2.5161,2.6128,2.6894,2.752,2.8137,2.8466,2.859,2.8384,2.8534,2.8874,2.8808,2.9045,0.0,2.954,2.9569,2.9557,2.9495,2.9461,2.9411,2.9296,2.9414,2.9728,3.0489,3.0783,3.1043,3.191,3.2244,3.2602,3.3694,3.3702,3.3575,3.3981,3.3682,3.3415,3.3774,3.3771,3.3761,3.3873,3.4822,3.5583,3.5599,3.6437,3.7214,3.7454,3.7616,3.7785,3.8026,3.7748,3.7842,0.0,0.0,0.0,3.8407,3.8427,3.8495,3.8854,3.9451,3.9833,3.9969,4.032,4.051,4.051,4.0697,4.0745,4.0721,4.0793,4.0935,4.1146,4.1146,4.1221,4.1346,4.1346,4.1453,4.1622,4.1622,4.1714,4.1909,4.1998,4.21,4.224,4.2308,4.2432,4.2512,0.0,0.0,0.0,0.0,0.0,0.0,0.0,0.0,0.0,0.0,0.0,0.0,0.0,0.0,0.0,0.0,0.0,0.0,2.4678,2.4793,2.4854,2.4936,2.5233,2.5731,2.6431,2.5797,2.6368,2.8255,2.6342,2.589,2.6805,2.5719,2.5631,2.6339,2.6204,2.6575,2.7312,2.7362,2.7756,2.8327,2.7929,2.8268,2.9044,2.9394,2.9704,2.9942,2.9946,3.0142,3.0367,3.0109,3.0249,3.0461,3.0094,3.0321,3.0734,3.0678,3.1079,3.1502,3.1374,3.1523,3.1948,3.2917,3.2731,3.2669,3.405,3.3672,3.3251,3.4005,3.4151,3.4176,3.4357,3.5012,3.5562,3.5676,3.624,3.6901,3.7582,3.7514,3.7626,0.0,0.0,0.0,0.0,0.0,0.0,3.9206,0.0,3.9131,3.9849,3.9901,4.0113,4.0517,4.0541,4.068,4.0918,4.0935,4.1006,4.1117,4.1117,4.1152,4.1232,4.1232,4.1386,4.1626,4.1604,4.1754,4.2005,4.2026,4.2055,4.2145,4.2356,4.2514,4.265,4.292,4.2995,4.2939,0.0,0.0,0.0,0.0,0.0,0.0,0.0,0.0,0.0,0.0,0.0,0.0,0.0,0.0,0.0,0.0,0.0,0.0,2.5015,2.5143,2.5225,2.5341,2.6173,2.6362,2.5775,2.6821,2.7039,2.6302,2.5691,2.5554,2.5849,2.5559,2.5442,2.5539,2.6384,2.6479,2.6081,2.7724,2.8183,2.7793,2.7586,2.8126,2.915,2.9782,3.0211,3.0493,3.049,3.0515,3.0514,3.0294,2.9996,2.988,3.0796,3.058,3.0179,3.1203,3.1753,3.2004,3.1967,3.1858,3.191,3.2546,3.2566,3.2708,3.372,3.3679,3.3731,3.4724,3.4761,3.4847,3.5578,3.5687,3.599,3.6987,3.732,0.0,3.7519,3.8269,0.0,3.8266,0.0,3.9103,3.9435,3.8933,0.0,0.0,3.9252,3.9076,3.9506,4.0054,4.0566,4.1001,4.1111,4.1249,4.1426,4.1426,4.1448,4.1471,4.156,4.1688,4.1797,4.1692,4.1736,4.188,4.1797,4.1866,4.2079,4.2163,4.2308,4.2492,4.2691,4.2825,4.292,4.3087,4.3178,4.3214,0.0,0.0,0.0,0.0,0.0,0.0,0.0,0.0,0.0,0.0,0.0,0.0,0.0,0.0,0.0,0.0,0.0,0.0,0.0,2.5383,2.5441,2.5501,2.6104,2.6342,2.6111,2.6679,2.6765,2.6347,2.568,2.5386,2.5467,2.543,2.5364,2.533,2.6396,2.6366,2.5609,2.7222,2.7727,0.0,0.0,2.7383,2.8665,2.9965,3.0095,2.9656,3.045,3.0716,3.0671,3.0556,0.0,3.0508,3.1561,3.1318,3.0785,3.1567,0.0,3.1941,3.1927,3.1752,3.1658,3.2224,3.2092,3.2154,3.3534,3.3628,3.3695,3.4611,3.5064,3.544,3.594,3.5867,3.6037,0.0,0.0,0.0,3.7269,3.8311,3.8913,0.0,3.9302,0.0,3.9961,3.9738,3.9773,0.0,3.962,3.942,3.9944,4.0419,4.0853,4.1255,4.1408,4.1604,4.1805,4.1805,4.1805,4.1805,4.1909,4.1948,4.2005,4.1923,4.1948,4.2034,0.0,4.2037,4.2187,4.2412,4.2534,4.2671,4.3013,4.3178,4.325,4.3461,4.358,4.3612,0.0,0.0,0.0,0.0,0.0,0.0,0.0,0.0,0.0,0.0,0.0,0.0,0.0,0.0,0.0,0.0,0.0,0.0,0.0,0.0,2.5571,2.5529,2.5556,2.5936,2.6701,2.5892,2.5974,2.7034,2.5869,2.5324,2.5343,2.5304,2.5456,2.5773,2.6602,2.6552,2.5887,2.6728,2.7146,2.7128,2.6041,2.6494,2.8027,0.0,2.9441,2.8486,3.0189,3.0796,3.082,3.0853,3.1186,3.166,3.2208,3.2144,3.1844,3.1845,3.1752,3.1638,3.1593,3.142,3.1362,3.1938,3.1479,3.1405,3.33,3.3495,3.3516,3.4298,0.0,3.6028,3.6078,3.5961,3.6005,3.6488,0.0,3.6755,3.7062,3.8221,3.8999,3.8889,3.9664,4.0263,4.0379,4.0263,4.0271,4.0558,4.0087,4.0045,4.0721,4.0864,4.1082,4.1448,4.1604,4.1805,4.2103,4.2124,4.2124,4.2103,4.2124,4.2118,4.2069,4.2048,4.2076,4.2166,0.0,0.0,4.2167,4.2598,4.2678,4.2625,4.3302,4.3565,4.3599,4.3926,4.4036,4.4067,0.0,0.0,0.0,0.0,0.0,0.0,0.0,0.0,0.0,0.0,2.0258,0.0,0.0,0.0,0.0,0.0,0.0,0.0,0.0,0.0,0.0,2.5595,2.5545,2.559,2.5734,2.5417,2.5376,2.5659,2.5402,2.5217,2.5064,2.5168,2.601,2.7504,2.8206,2.8151,2.7612,2.8323,2.8104,2.7177,2.6048,2.6573,2.8009,2.7699,0.0,0.0,3.0356,3.0741,3.0847,3.1114,3.1537,3.1977,3.2288,3.2238,3.2056,3.2108,3.2036,3.1855,3.16,3.1487,3.144,3.1399,3.1193,3.1308,3.2536,3.3311,0.0,0.0,3.6015,3.6827,3.7429,3.68,3.6616,3.7746,0.0,0.0,0.0,0.0,4.0048,0.0,0.0,0.0,0.0,0.0,0.0,0.0,0.0,4.0795,4.0931,4.1029,4.1261,4.1714,4.2016,4.2163,4.2103,4.2225,4.2225,4.2103,4.2225,4.2325,4.2402,4.2305,4.2348,4.251,4.2391,0.0,4.1399,4.2611,4.2632,4.2014,4.3371,4.391,4.3942,4.4162,4.4255,4.4255,0.0,0.0,0.0,0.0,0.0,0.0,0.0,0.0,0.0,0.0,2.0024,2.0233,0.0,0.0,0.0,0.0,0.0,0.0,0.0,0.0,0.0,0.0,2.5546,2.5508,2.5499,2.5343,2.5269,2.5307,0.0,2.5228,2.5154,2.521,2.5726,2.6636,2.746,2.7383,2.6776,2.8013,2.8049,2.7279,2.7006,2.7161,2.7627,0.0,0.0,0.0,3.0548,3.0693,3.0718,3.0837,3.1468,3.221,3.2188,3.2406,3.2741,3.3083,3.2876,3.2545,3.2669,3.2207,3.1776,3.1978,3.1635,3.1494,3.2442,0.0,0.0,0.0,3.6204,3.7291,3.7543,3.7041,0.0,0.0,0.0,0.0,0.0,0.0,0.0,0.0,0.0,0.0,0.0,0.0,0.0,0.0,0.0,4.1328,4.1226,4.1503,4.1831,4.2187,4.2369,4.247,4.247,4.2427,4.2387,4.2351,4.243,4.2508,4.2548,4.2568,4.2609,4.2688,4.267,0.0,4.211,4.3032,4.3118,4.2789,4.3822,4.4192,4.4177,4.4383,4.4426,4.4416,0.0,0.0,0.0,0.0,0.0,0.0,0.0,1.9365,1.9459,1.9534,1.9767,2.0002,2.0204,2.1154,2.2044,0.0,0.0,0.0,0.0,0.0,0.0,0.0,0.0,0.0,0.0,0.0,0.0,0.0,2.5241,0.0,0.0,0.0,0.0,0.0,2.6661,2.6634,2.5966,2.759,2.8048,0.0,0.0,2.7981,0.0,0.0,0.0,0.0,0.0,3.0677,3.0639,3.0759,3.1564,3.2497,3.2351,3.277,3.3454,3.4076,3.3669,3.3146,3.3679,3.2915,3.2068,3.2541,3.2078,3.173,3.2471,3.3639,0.0,0.0,3.6381,3.7631,3.7484,3.7225,3.715,0.0,3.7628,0.0,0.0,0.0,0.0,0.0,0.0,0.0,0.0,0.0,0.0,0.0,0.0,0.0,4.1635,4.2071,4.2418,4.2689,4.267,4.2707,4.2765,4.2645,4.2566,4.2588,4.2589,4.2629,4.2688,4.2765,4.2841,4.2899,4.2938,0.0,0.0,4.3404,4.3553,4.3472,4.4173,4.4397,4.4387,4.4551,4.4592,4.4578,0.0,0.0,0.0,0.0,0.0,0.0,0.0,1.9086,1.9192,1.9398,1.954,1.9734,1.9993,2.1027,2.1743,0.0,0.0,0.0,0.0,0.0,0.0,0.0,0.0,0.0,0.0,0.0,0.0,0.0,0.0,0.0,0.0,0.0,0.0,0.0,0.0,0.0,2.7112,2.8326,0.0,0.0,0.0,0.0,0.0,0.0,0.0,0.0,0.0,3.0698,3.0809,3.1535,0.0,3.2972,3.3208,3.3486,3.3889,3.4546,0.0,0.0,3.3743,3.3053,3.2179,3.2177,3.1871,3.1746,3.2301,0.0,3.4889,3.5339,3.6782,3.7949,3.7932,3.7703,3.7576,3.7666,3.8049,3.8598,0.0,0.0,0.0,0.0,0.0,0.0,0.0,0.0,0.0,0.0,0.0,0.0,4.24,4.2557,4.2751,4.2958,4.2902,4.2825,4.2711,4.2746,4.2685,4.2503,4.2568,4.2689,4.2863,4.29,4.2994,4.316,4.3178,0.0,0.0,4.3369,4.3415,4.2811,4.4088,4.4578,4.4578,4.4659,4.4738,4.477,0.0,0.0,0.0,0.0,0.0,0.0,0.0,1.8923,1.9069,1.9158,1.9441,1.9926,2.0598,2.1181,2.157,0.0,0.0,0.0,0.0,0.0,0.0,0.0,0.0,0.0,0.0,0.0,0.0,0.0,0.0,0.0,0.0,0.0,0.0,0.0,0.0,0.0,0.0,0.0,0.0,0.0,0.0,0.0,0.0,0.0,0.0,0.0,0.0,0.0,0.0,0.0,0.0,0.0,3.3574,3.4084,0.0,0.0,3.395,3.2911,3.3965,3.2967,3.1689,3.2021,3.193,3.1912,3.242,0.0,3.5134,3.5652,3.708,3.8236,3.8236,3.8121,3.7985,3.7846,3.7972,3.8326,3.8919,0.0,0.0,0.0,0.0,0.0,0.0,0.0,0.0,0.0,0.0,0.0,4.332,4.3232,4.3249,4.3424,4.3355,4.332,4.3301,4.3248,4.3195,4.316,4.3232,4.3302,4.339,4.3511,4.3528,4.3512,4.3662,0.0,0.0,4.3636,4.3629,4.2861,4.4229,4.4764,4.4751,4.4883,4.4931,4.4938,0.0,0.0,0.0,0.0,0.0,0.0,1.8603,1.8807,1.8974,1.8999,1.9368,1.9893,2.0613,2.1301,2.1611,2.1343,0.0,0.0,0.0,0.0,0.0,0.0,0.0,0.0,0.0,0.0,0.0,2.5456,0.0,0.0,0.0,0.0,0.0,0.0,0.0,0.0,0.0,0.0,0.0,0.0,0.0,0.0,0.0,0.0,0.0,0.0,0.0,0.0,0.0,0.0,0.0,3.3235,3.4036,3.4611,3.5059,3.5327,3.4239,3.323,3.4655,3.3646,3.2353,3.3033,3.2879,3.2755,0.0,0.0,3.5573,3.6258,3.753,3.8528,3.8528,3.8433,3.8289,3.8088,3.8003,3.8168,3.8723,0.0,0.0,0.0,0.0,0.0,0.0,0.0,0.0,0.0,0.0,0.0,0.0,4.3795,4.3795,4.3889,4.3793,4.3758,4.3788,4.3721,4.3658,4.3629,4.374,4.3788,4.3825,4.3986,4.3968,4.3825,0.0,0.0,0.0,4.3882,4.383,4.3081,4.4417,4.4907,4.4907,4.5103,4.5136,4.5103,0.0,0.0,0.0,0.0,0.0,0.0,0.0,1.8779,1.8913,1.8984,1.9246,1.949,1.9694,2.1375,2.1924,2.054,0.0,0.0,0.0,0.0,0.0,0.0,0.0,0.0,0.0,0.0,2.5591,2.5599,2.5602,2.5609,0.0,0.0,0.0,0.0,0.0,0.0,0.0,0.0,0.0,0.0,0.0,0.0,0.0,0.0,0.0,0.0,0.0,0.0,0.0,0.0,0.0,0.0,0.0,3.51,3.5096,3.5562,3.4974,3.4482,3.5896,3.5447,3.476,3.5556,3.4948,3.4501,0.0,3.5987,3.6285,3.7367,3.8221,3.8807,3.8807,3.8618,3.8478,3.8399,3.8236,3.8391,3.9171,0.0,0.0,0.0,0.0,0.0,0.0,0.0,0.0,0.0,0.0,0.0,0.0,4.4185,4.4383,4.4397,4.4199,4.4072,4.4001,4.4072,4.3968,4.371,4.3893,4.402,4.4091,4.4181,4.4166,0.0,0.0,0.0,0.0,4.3998,4.4006,4.3415,4.4554,4.5045,4.5114,4.5254,4.5297,4.5307,0.0,0.0,0.0,0.0,0.0,0.0,0.0,1.8732,1.8896,1.9059,1.9301,1.9785,2.0634,2.1343,2.2089,2.2926,0.0,0.0,0.0,0.0,0.0,0.0,0.0,0.0,0.0,0.0,2.5647,2.5595,2.6248,2.6833,2.7407,2.8548,2.8837,0.0,0.0,0.0,0.0,0.0,0.0,0.0,0.0,0.0,0.0,0.0,0.0,0.0,0.0,0.0,0.0,0.0,0.0,0.0,0.0,0.0,0.0,3.4894,3.4141,3.3642,3.5138,3.4357,3.3522,3.5351,3.5093,3.4706,3.5816,3.6467,3.7018,3.7674,3.8409,3.895,3.9007,3.896,3.8826,3.8569,3.852,3.8549,0.0,0.0,0.0,0.0,0.0,0.0,0.0,0.0,0.0,0.0,0.0,0.0,0.0,4.4519,4.4592,4.4537,4.4463,4.4444,4.4481,4.4576,4.4576,4.4435,4.461,4.4681,4.4661,4.4758,0.0,0.0,0.0,0.0,0.0,4.4102,4.3907,4.2534,4.4463,4.5227,4.5246,4.54,4.5448,4.5429,0.0,0.0,0.0,0.0,0.0,0.0,0.0,1.8843,1.9009,1.9156,1.9416,1.9869,2.063,2.1125,2.1765,2.2648,0.0,0.0,0.0,0.0,0.0,0.0,0.0,0.0,0.0,2.6164,2.616,2.6122,2.7034,2.7575,2.778,2.8982,2.9206,2.8648,0.0,0.0,0.0,0.0,0.0,0.0,0.0,0.0,3.0797,0.0,0.0,0.0,0.0,0.0,0.0,0.0,0.0,0.0,0.0,0.0,0.0,0.0,3.4065,3.3762,3.502,3.4491,3.4089,3.6094,3.597,0.0,3.6568,3.7182,3.753,3.749,3.8111,3.8669,3.8723,3.8731,3.877,3.8803,3.8836,3.8836,0.0,0.0,0.0,0.0,0.0,0.0,0.0,0.0,0.0,0.0,0.0,0.0,0.0,4.4745,4.477,4.4802,4.4757,4.477,4.4846,4.4931,4.4931,4.487,4.5045,4.508,4.5033,4.5159,0.0,0.0,0.0,0.0,0.0,4.4391,4.4155,4.2805,4.4656,4.539,4.54,4.5531,4.5547,4.5538,0.0,0.0,0.0,0.0,0.0,0.0,0.0,0.0,0.0,0.0,1.956,1.9763,1.9907,2.0766,2.1071,0.0,0.0,0.0,0.0,0.0,0.0,0.0,0.0,0.0,0.0,2.6913,2.6912,2.6906,2.7846,2.7899,2.7135,2.8866,2.8786,2.7254,2.8949,0.0,0.0,0.0,0.0,0.0,2.9617,3.0062,0.0,0.0,0.0,0.0,0.0,0.0,0.0,0.0,0.0,0.0,0.0,0.0,0.0,0.0,0.0,0.0,0.0,3.5572,3.5988,3.753,0.0,0.0,3.7801,3.805,0.0,3.7062,3.7598,3.819,3.8134,3.8216,3.8502,3.9039,3.9178,0.0,0.0,0.0,0.0,0.0,0.0,0.0,0.0,0.0,0.0,0.0,0.0,0.0,0.0,4.4919,4.4998,4.5114,4.5049,4.5049,4.5103,4.5114,4.508,4.5003,4.5213,4.5267,4.5203,4.5348,0.0,0.0,0.0,0.0,0.0,4.4821,4.4711,4.3933,4.5065,4.5522,4.5531,4.5648,4.5673,4.5629,0.0,0.0,0.0,0.0,0.0,0.0,0.0,0.0,0.0,0.0,1.9676,1.9868,2.0093,2.0391,2.0753,0.0,0.0,0.0,0.0,0.0,0.0,0.0,0.0,0.0,0.0,2.6015,2.6016,2.6014,2.7555,2.8196,2.8034,2.9729,2.9967,2.9037,3.0053,3.0292,0.0,0.0,0.0,0.0,3.0435,3.0538,0.0,0.0,0.0,0.0,3.1949,3.2403,0.0,0.0,0.0,0.0,0.0,0.0,0.0,0.0,3.4561,3.451,3.4589,0.0,3.6037,3.7543,3.7372,3.7231,0.0,3.8525,3.8134,3.7972,3.8633,3.9057,3.8444,3.8898,3.9368,3.9402,3.9464,0.0,0.0,0.0,0.0,0.0,0.0,0.0,0.0,0.0,0.0,0.0,0.0,0.0,0.0,4.5148,4.5213,4.5246,4.529,4.5239,4.5103,4.5203,4.5192,4.5091,4.527,4.5341,4.5286,4.5419,0.0,0.0,0.0,0.0,4.3969,4.5017,4.4863,4.4068,4.5252,4.5711,4.5676,4.5798,4.5833,4.5833,0.0,0.0,0.0,0.0,0.0,0.0,0.0,0.0,0.0,0.0,0.0,0.0,0.0,0.0,0.0,0.0,0.0,0.0,0.0,0.0,0.0,0.0,0.0,2.5898,2.6287,2.6308,2.6484,2.6893,2.824,2.8901,2.8916,2.9815,3.0013,2.9626,3.0057,3.0254,0.0,0.0,0.0,0.0,3.0725,0.0,0.0,0.0,0.0,0.0,3.2862,3.34,0.0,3.4594,3.4745,3.4653,0.0,0.0,0.0,0.0,3.4666,3.4612,3.4439,3.5021,3.5893,3.6613,3.6895,3.7205,3.8009,3.8265,3.8235,3.7913,0.0,3.8957,3.8523,3.8886,3.9335,3.9637,3.977,0.0,0.0,0.0,0.0,0.0,0.0,0.0,0.0,0.0,0.0,0.0,0.0,0.0,0.0,4.5307,4.5348,4.536,4.5419,4.5371,4.5229,4.531,4.531,4.5229,4.5419,4.5467,4.5438,4.5586,4.5643,0.0,0.0,0.0,4.4884,4.4955,4.4927,4.4886,4.5578,4.5826,4.5798,4.5912,4.5944,4.595,0.0,0.0,0.0,0.0,0.0,0.0,0.0,0.0,0.0,0.0,0.0,0.0,0.0,0.0,0.0,0.0,0.0,0.0,0.0,0.0,0.0,0.0,0.0,2.6055,2.6796,2.6797,2.7226,2.8104,2.8964,2.947,2.96,2.9743,2.9803,2.9783,2.9668,2.9667,0.0,0.0,0.0,0.0,3.0727,0.0,0.0,0.0,0.0,0.0,0.0,0.0,0.0,3.5293,3.5424,3.5293,3.5155,0.0,0.0,0.0,0.0,0.0,3.4733,3.5312,3.5909,3.5764,3.6433,3.7167,3.7364,3.7875,3.8169,0.0,0.0,3.8682,3.8568,3.8761,0.0,0.0,0.0,0.0,0.0,0.0,0.0,0.0,0.0,0.0,0.0,0.0,0.0,0.0,0.0,0.0,0.0,4.5409,4.5419,4.5429,4.5504,4.5494,4.5448,4.5448,4.5438,4.541,4.5566,4.5629,4.5629,4.5746,4.5826,0.0,0.0,0.0,4.5854,4.4993,4.5102,4.5835,4.5892,4.5937,4.5938,4.5997,4.6014,4.6019,0.0,0.0,0.0,0.0,0.0,0.0,0.0,0.0,0.0,0.0,0.0,0.0,0.0,0.0,0.0,0.0,0.0,0.0,0.0,0.0,0.0,0.0,2.5311,2.5762,2.5896,2.5896,2.6327,2.7207,2.8066,2.8886,2.9624,3.0351,3.0703,3.0664,2.9921,2.9975,3.062,0.0,0.0,3.0784,3.074,0.0,0.0,0.0,0.0,0.0,0.0,0.0,0.0,3.5501,3.5456,3.5357,3.5234,0.0,0.0,0.0,0.0,0.0,3.5598,3.6392,3.7012,3.6815,3.6981,3.7536,3.8898,3.8343,3.7724,0.0,0.0,0.0,0.0,3.9431,0.0,0.0,0.0,0.0,0.0,0.0,0.0,0.0,0.0,0.0,0.0,0.0,0.0,0.0,0.0,0.0,0.0,4.5514,4.5559,4.5568,4.5635,4.5657,4.5648,4.5607,4.5535,4.5491,4.5677,4.573,4.5688,4.5809,4.5927,0.0,0.0,4.582,4.6042,4.5784,4.5784,4.5973,4.6037,4.6081,4.6081,4.609,4.608,4.6084,0.0,0.0,0.0,0.0,0.0,0.0,0.0,0.0,0.0,0.0,0.0,0.0,0.0,0.0,0.0,0.0,0.0,0.0,0.0,0.0,0.0,2.438,2.4777,2.5213,2.5682,2.5702,2.6367,2.7695,2.8105,2.8984,3.0308,3.0702,3.0644,3.0195,3.0273,3.0482,3.0796,3.0794,3.0779,3.0736,0.0,0.0,0.0,0.0,0.0,0.0,0.0,0.0,0.0,0.0,3.5393,3.5324,3.5229,0.0,0.0,0.0,0.0,0.0,3.5437,3.6414,3.743,3.7305,3.7664,3.8256,3.8956,3.8643,3.846,0.0,0.0,0.0,0.0,0.0,0.0,0.0,0.0,0.0,0.0,0.0,0.0,0.0,0.0,0.0,0.0,0.0,0.0,0.0,0.0,0.0,0.0,0.0,4.5643,4.5643,4.5731,4.5749,4.5749,4.5794,4.5749,4.565,4.5783,4.586,4.5865,4.5954,4.6022,4.6024,0.0,4.5624,4.6102,4.5546,4.5628,4.6111,4.6141,4.6144,4.6148,4.6156,4.6145,4.6167,0.0,0.0,0.0,0.0,0.0,0.0,0.0,0.0,0.0,0.0,0.0,0.0,0.0,0.0,0.0,0.0,0.0,0.0,0.0,0.0,2.3499,2.4353,2.459,2.511,2.5996,2.5801,2.6543,2.83,2.8301,2.9199,3.0896,3.0897,3.0546,2.9922,3.0605,3.0853,3.08,3.0803,3.0769,3.0736,0.0,0.0,0.0,0.0,0.0,0.0,0.0,0.0,0.0,0.0,0.0,0.0,0.0,0.0,0.0,3.5246,3.5503,3.5903,3.5391,3.6425,3.768,3.7795,3.8317,3.8849,3.8982,3.8966,3.9175,0.0,0.0,0.0,0.0,0.0,0.0,0.0,0.0,0.0,0.0,0.0,0.0,0.0,0.0,0.0,0.0,0.0,0.0,0.0,0.0,0.0,0.0,0.0,4.5761,4.5757,4.5808,4.5854,4.5861,4.5961,4.5972,4.5866,4.5917,4.5979,4.6044,4.6126,4.6154,4.6111,4.5442,4.5557,4.6165,4.5443,4.5565,4.6245,4.6427,4.6509,4.6493,4.6506,4.6376,4.6203,0.0,0.0,0.0,0.0,0.0,0.0,0.0,0.0,0.0,0.0,0.0,0.0,0.0,0.0,0.0,0.0,0.0,0.0,0.0,0.0,2.3494,2.4354,2.5162,2.601,2.6894,2.6113,2.6543,2.8301,2.83,2.9199,3.0898,3.0898,3.0879,3.0819,3.0877,3.0853,3.0799,3.0796,3.08,3.0849,3.1617,0.0,0.0,0.0,0.0,0.0,0.0,0.0,0.0,0.0,0.0,0.0,0.0,0.0,3.5269,3.5193,3.5179,3.5354,3.6098,3.7016,3.7947,3.8632,3.8804,3.9013,3.9821,3.9471,0.0,4.0033,0.0,0.0,0.0,0.0,0.0,0.0,0.0,0.0,0.0,0.0,0.0,0.0,0.0,0.0,0.0,0.0,0.0,0.0,0.0,0.0,0.0,0.0,0.0,4.5896,4.5958,4.6018,4.608,4.6091,4.6098,4.609,4.608,4.6128,4.6181,4.6267,4.628,4.629,4.6217,4.622,4.6299,4.6215,4.6235,4.6377,4.7114,4.7409,4.7414,4.7415,4.6892,4.6191,0.0,0.0,0.0,0.0,0.0,0.0,0.0,0.0,0.0,0.0,0.0,0.0,0.0,0.0,0.0,0.0,0.0,0.0,0.0,2.2252,2.2672,2.356,2.3918,2.5002,2.6965,2.6676,2.7108,2.83,2.8847,2.9726,3.0898,3.0898,3.0898,3.0898,3.0897,3.0853,3.0806,3.0794,3.0794,3.0864,3.1721,3.1834,0.0,0.0,0.0,0.0,0.0,0.0,0.0,0.0,3.5405,3.5398,3.5369,3.5695,3.597,3.5465,3.564,3.6052,3.6416,3.7149,3.7991,3.8825,3.9433,3.993,4.0212,4.0138,4.0092,4.0446,4.0545,0.0,0.0,0.0,0.0,0.0,0.0,0.0,0.0,0.0,0.0,0.0,0.0,0.0,0.0,0.0,0.0,0.0,0.0,0.0,0.0,0.0,0.0,4.6013,4.6044,4.6068,4.6096,4.615,4.6164,4.6153,4.6162,4.6199,4.6261,4.6295,4.6301,4.6304,4.6308,4.6308,4.6308,4.6308,4.6621,4.7186,4.7985,4.7983,4.7494,4.7506,4.6954,4.6206,0.0,0.0,0.0,0.0,0.0,0.0,0.0,0.0,0.0,0.0,0.0,0.0,0.0,0.0,0.0,0.0,0.0,0.0,2.2518,2.2576,2.289,2.3483,2.3764,2.4886,2.6927,2.6974,2.7412,2.8297,2.9156,3.0014,3.0874,3.0877,3.0878,3.0897,3.0898,3.0876,3.0832,3.0807,3.0806,3.0903,3.2029,3.2297,0.0,0.0,0.0,0.0,0.0,0.0,0.0,0.0,3.5457,3.545,3.543,3.5806,3.615,3.5592,3.5971,3.6596,3.66,3.7429,3.8442,3.898,3.9854,4.0549,4.0492,4.0554,4.0633,4.0694,4.0732,0.0,0.0,0.0,0.0,0.0,0.0,0.0,0.0,0.0,0.0,0.0,0.0,0.0,0.0,0.0,0.0,0.0,0.0,0.0,0.0,0.0,0.0,0.0,4.6141,4.6162,4.6167,4.6202,4.6234,4.6234,4.594,4.5983,4.6301,4.6306,4.6308,4.6308,4.6307,4.6461,4.6715,4.6712,4.7373,4.8442,4.9009,4.8845,4.8298,4.8006,4.7351,4.6563,0.0,0.0,0.0,0.0,0.0,0.0,0.0,0.0,0.0,0.0,0.0,0.0,0.0,0.0,0.0,0.0,0.0,0.0,2.4168,2.4347,2.438,2.438,2.5216,2.604,2.6854,2.6893,2.7363,2.8309,2.9103,2.994,3.08,3.0807,3.0834,3.0897,3.0897,3.0898,3.0894,3.0832,3.0816,3.0956,3.2638,3.2791,3.2225,0.0,0.0,0.0,0.0,0.0,0.0,0.0,3.5607,3.5602,3.5519,3.5501,3.5508,3.5508,3.6131,3.6799,3.6657,3.7976,3.9359,3.9242,0.0,0.0,4.0615,4.0649,4.0707,4.0707,4.0825,4.1204,4.214,0.0,0.0,0.0,0.0,0.0,0.0,0.0,0.0,0.0,0.0,0.0,0.0,0.0,0.0,0.0,0.0,0.0,0.0,0.0,0.0,0.0,4.6266,4.6296,4.6301,4.6306,4.6307,4.6287,4.5429,4.5468,4.6308,4.6289,4.6288,4.6301,4.6301,4.6808,4.7608,4.7627,4.8597,5.0102,5.0118,5.0107,4.999,4.9129,4.8253,4.7384,0.0,0.0,0.0,0.0,0.0,0.0,0.0,0.0,0.0,0.0,0.0,0.0,0.0,0.0,0.0,0.0,0.0,0.0,2.2515,2.3064,2.3133,2.2531,2.334,2.423,2.512,2.6332,2.769,2.9131,2.8812,2.9383,3.0808,3.0852,3.0874,3.0895,3.0898,3.0898,3.0898,3.0875,3.1201,3.1815,3.2918,3.3587,3.4018,0.0,0.0,0.0,0.0,0.0,0.0,0.0,0.0,0.0,3.5655,3.6057,3.655,3.6507,3.7076,3.7836,3.8414,3.8981,0.0,4.0178,0.0,0.0,0.0,4.0828,0.0,0.0,4.1812,4.2132,0.0,0.0,0.0,0.0,0.0,0.0,0.0,0.0,0.0,0.0,0.0,0.0,0.0,0.0,0.0,0.0,0.0,0.0,0.0,0.0,0.0,0.0,4.6284,4.6307,4.6308,4.6308,4.6306,4.6306,4.6048,4.6049,4.6288,4.5679,4.5711,4.6327,4.6907,4.7288,4.7613,4.8842,4.9613,5.0082,5.0702,5.0571,4.9991,4.9737,4.9082,4.8213,0.0,0.0,0.0,0.0,0.0,0.0,0.0,0.0,0.0,0.0,0.0,0.0,0.0,0.0,0.0,0.0,0.0,0.0,0.0,2.2557,2.2644,2.1785,2.2877,2.3932,2.4858,2.5568,2.6926,2.8989,2.8835,2.9469,3.0795,3.0845,3.087,3.0892,3.0896,3.0898,3.0918,3.1249,3.1655,3.2213,3.3438,3.4212,3.4747,0.0,0.0,0.0,0.0,0.0,0.0,0.0,0.0,0.0,3.6165,3.6623,3.7096,3.737,3.8042,3.8792,3.93,3.971,0.0,4.0694,4.0897,4.1038,4.1412,0.0,0.0,0.0,0.0,0.0,0.0,0.0,0.0,0.0,0.0,0.0,0.0,0.0,0.0,0.0,0.0,0.0,0.0,0.0,0.0,0.0,0.0,0.0,0.0,0.0,0.0,0.0,4.6308,4.6307,4.6307,4.6302,4.6297,4.6295,4.5955,4.6131,4.6742,4.5875,4.5947,4.6813,4.766,4.8017,4.8145,4.9868,5.0532,5.0529,5.1053,5.0914,5.0403,5.0052,4.9595,4.9015,0.0,0.0,0.0,0.0,0.0,0.0,0.0,0.0,0.0,0.0,2.2491,0.0,0.0,0.0,0.0,0.0,0.0,0.0,0.0,0.0,2.2626,2.1829,2.3261,2.4513,2.5465,2.4782,2.5661,2.8196,2.9,2.9868,3.0804,3.0884,3.0956,3.1005,3.1006,3.1011,3.1055,3.1797,3.2146,3.2368,3.4027,3.4703,3.4825,3.5681,0.0,0.0,0.0,0.0,0.0,0.0,0.0,0.0,3.6764,3.7099,3.738,3.8095,3.8984,3.9708,3.9646,4.0262,4.0917,4.0921,4.103,0.0,4.2303,4.2491,4.2467,0.0,0.0,0.0,0.0,0.0,0.0,0.0,0.0,0.0,0.0,0.0,0.0,0.0,0.0,0.0,0.0,0.0,0.0,0.0,0.0,0.0,0.0,0.0,0.0,4.6306,4.6283,4.6261,4.6183,4.6255,4.6248,0.0,4.5445,4.596,4.7471,4.6606,4.6721,4.7641,4.8367,4.8707,4.8918,5.0501,5.1128,5.1079,5.1155,5.1142,5.0996,5.0194,4.9904,4.9782,0.0,0.0,0.0,0.0,0.0,0.0,0.0,0.0,0.0,0.0,0.0,0.0,0.0,0.0,0.0,0.0,0.0,0.0,0.0,0.0,2.1911,2.1738,2.2116,2.304,2.4549,2.5065,2.6274,2.8196,2.8445,2.9338,3.0807,3.1505,3.1822,3.1839,3.1848,3.1849,3.1848,3.2027,3.2499,3.3202,3.4277,3.5095,3.5727,3.593,3.5982,0.0,0.0,0.0,0.0,0.0,0.0,0.0,3.6181,3.7147,3.8224,3.8348,3.9485,4.0696,4.0688,4.0813,0.0,0.0,4.1585,4.2322,4.3226,4.3938,0.0,0.0,0.0,0.0,0.0,0.0,0.0,0.0,0.0,0.0,0.0,0.0,0.0,0.0,0.0,0.0,0.0,0.0,0.0,0.0,0.0,0.0,0.0,0.0,0.0,4.6303,4.6249,4.5929,4.5293,4.592,4.5887,0.0,4.5702,4.6485,4.7476,4.6593,4.7012,4.8402,4.7918,4.8057,4.872,4.9776,5.0167,5.0161,5.0848,5.1114,5.1075,5.0835,5.0783,5.0667,0.0,0.0,0.0,0.0,0.0,0.0,0.0,0.0,0.0,0.0,0.0,0.0,0.0,0.0,0.0,0.0,0.0,0.0,0.0,0.0,2.1743,2.1757,2.1772,2.2586,2.4251,2.5189,2.6301,2.7622,2.8502,2.9778,3.1436,3.1896,3.2327,3.2714,3.2727,3.2494,3.2159,3.2987,3.3379,3.3515,3.4804,3.5584,3.5991,3.5993,3.5991,3.6006,3.6007,0.0,0.0,0.0,0.0,0.0,0.0,0.0,3.8089,3.8858,3.9705,4.0527,4.0936,0.0,0.0,4.1608,0.0,4.3258,4.4124,4.4675,0.0,0.0,0.0,0.0,0.0,0.0,0.0,0.0,0.0,0.0,0.0,0.0,0.0,0.0,0.0,0.0,0.0,0.0,0.0,0.0,0.0,0.0,0.0,4.6309,4.6285,4.6243,4.6251,4.6032,4.5584,4.5994,4.5978,4.5523,4.5946,4.6808,4.8,4.7587,4.7622,4.8034,4.7996,4.7971,4.8042,4.8879,4.9213,4.9227,4.9633,5.0051,5.0375,5.0318,5.0569,5.0887,0.0,0.0,0.0,0.0,0.0,0.0,0.0,0.0,0.0,0.0,0.0,0.0,0.0,0.0,0.0,0.0,0.0,0.0,0.0,0.0,0.0,2.1807,2.1937,2.2735,2.4275,2.5216,2.6187,2.7221,2.8967,3.0744,3.2558,3.2544,3.3014,3.3851,3.4018,3.3513,3.2653,3.4258,3.4413,3.3767,3.5367,3.5992,3.5993,3.5992,3.5993,3.6014,3.6169,3.6129,3.6012,3.6168,0.0,0.0,0.0,0.0,3.7564,3.8956,3.9478,3.9751,4.0476,4.0777,4.1176,4.2337,4.3178,0.0,4.4996,4.5214,0.0,0.0,0.0,0.0,0.0,0.0,0.0,0.0,0.0,0.0,0.0,0.0,0.0,0.0,0.0,0.0,0.0,0.0,0.0,0.0,0.0,0.0,4.6277,4.6275,4.6264,4.6203,4.625,4.6189,4.5981,4.6102,4.6105,4.5955,4.6201,4.7179,4.881,4.8865,4.8462,4.7741,4.8186,4.7944,4.7332,4.7999,4.8257,4.8273,4.8345,4.8875,4.957,4.9528,5.0032,5.0784,0.0,0.0,0.0,0.0,0.0,0.0,0.0,0.0,0.0,0.0,0.0,0.0,0.0,0.0,0.0,0.0,0.0,0.0,2.4005,0.0,0.0,2.1873,2.2524,2.3382,2.4369,2.5194,2.6448,2.8128,2.9811,3.1909,3.4355,3.4355,3.4824,3.5681,3.6445,3.5878,3.4414,3.541,3.5311,3.4603,3.5603,3.6009,3.5999,3.5992,3.5993,3.611,3.6855,3.664,3.6113,3.6875,3.662,0.0,0.0,0.0,3.7336,3.7569,3.817,3.8793,3.89,0.0,4.0621,0.0,4.3611,4.4139,0.0,0.0,0.0,0.0,0.0,0.0,0.0,0.0,0.0,0.0,0.0,0.0,0.0,0.0,0.0,0.0,0.0,0.0,0.0,0.0,0.0,0.0,0.0,0.0,4.6214,4.6201,4.6212,4.6209,4.6199,4.5854,4.5071,4.5772,4.5737,4.4993,4.6445,4.8019,4.964,4.9653,4.9576,4.9395,4.7992,4.7314,4.7223,4.7267,4.7289,4.736,4.8036,4.8803,4.9509,4.9495,5.0017,5.0701,0.0,0.0,0.0,0.0,0.0,0.0,0.0,0.0,0.0,0.0,0.0,0.0,0.0,0.0,0.0,2.2459,2.2886,2.3258,2.3652,2.367,2.3104,2.1854,2.3105,2.4003,2.439,2.6178,2.7255,2.7577,3.0233,3.2363,3.4019,3.5929,3.7026,3.7422,3.7831,3.7069,3.5527,3.6872,3.6381,3.4858,3.6716,3.7166,3.6774,3.7265,3.7461,3.7578,0.0,0.0,0.0,3.841,3.7825,3.6736,3.6736,0.0,0.0,0.0,3.7578,3.8086,3.9062,4.0293,4.1699,0.0,4.4061,4.4628,4.5406,0.0,0.0,0.0,0.0,0.0,0.0,0.0,0.0,0.0,0.0,0.0,0.0,0.0,0.0,0.0,0.0,0.0,0.0,0.0,0.0,0.0,0.0,4.6201,4.6203,4.6154,4.6141,4.6138,4.6142,4.5955,4.5585,4.5914,4.5886,4.5487,4.7167,4.8341,4.9051,4.9998,5.018,4.9697,4.8933,4.8305,4.7804,4.7778,4.7766,4.78,4.8079,4.8708,4.9422,4.9365,4.9855,5.0595,0.0,0.0,0.0,0.0,0.0,0.0,0.0,0.0,0.0,0.0,0.0,0.0,0.0,0.0,0.0,0.0,2.3164,2.3436,2.3427,2.3632,2.3378,2.2493,2.3919,2.4723,2.4726,2.6855,2.7754,2.7322,3.0525,3.2652,3.3794,3.7006,3.8612,3.886,3.958,3.8798,3.7079,0.0,0.0,3.5891,3.8514,3.8788,3.7793,0.0,0.0,0.0,0.0,0.0,0.0,0.0,0.0,0.0,0.0,0.0,0.0,0.0,0.0,3.7608,0.0,0.0,4.2,4.3091,4.3851,4.4377,0.0,0.0,0.0,0.0,0.0,0.0,0.0,0.0,0.0,0.0,0.0,0.0,0.0,0.0,0.0,0.0,0.0,0.0,0.0,0.0,0.0,0.0,0.0,4.6174,4.6165,4.6123,4.6107,4.6108,4.608,4.6075,4.6071,4.6275,4.6563,4.6957,4.8199,4.8875,4.9071,5.031,5.0542,4.9973,4.9749,4.9246,4.8577,4.8381,4.8135,4.7925,4.8038,4.8481,4.9067,4.9159,4.9752,5.0511,0.0,0.0,0.0,0.0,0.0,0.0,0.0,0.0,0.0,0.0,0.0,0.0,2.0681,2.1983,2.2661,2.192,2.3373,2.4329,2.4333,2.5108,2.5177,2.4308,2.5132,0.0,2.5631,2.6576,2.7457,2.8238,3.0826,3.2967,3.4683,3.7292,3.8947,3.9845,4.2332,4.2015,3.9711,0.0,0.0,0.0,0.0,0.0,0.0,0.0,0.0,0.0,0.0,0.0,0.0,0.0,0.0,0.0,0.0,0.0,0.0,0.0,0.0,0.0,0.0,3.9231,0.0,4.2039,4.2456,0.0,0.0,0.0,0.0,0.0,0.0,0.0,0.0,0.0,0.0,0.0,0.0,0.0,0.0,0.0,0.0,0.0,0.0,0.0,0.0,0.0,0.0,0.0,0.0,4.6102,4.6122,4.6098,4.6108,4.61,4.6037,4.6011,4.6003,4.6763,4.7947,4.9514,4.9536,4.9981,5.0772,5.0789,5.0791,5.0694,4.9867,4.9481,4.9376,4.8542,4.7689,4.6942,4.7703,4.8019,4.8152,4.8928,4.9752,5.0511,0.0,0.0,0.0,0.0,0.0,0.0,0.0,0.0,0.0,0.0,0.0,0.0,0.0,2.2726,2.3209,2.3449,2.4516,2.4698,2.3566,2.4836,2.5014,2.3632,2.4907,2.5915,2.6515,2.7382,2.8245,2.9064,3.1673,3.3251,3.3954,3.7613,3.9501,3.9891,4.1944,4.2026,4.0746,4.2498,0.0,0.0,0.0,0.0,0.0,0.0,0.0,0.0,0.0,0.0,0.0,0.0,0.0,0.0,0.0,0.0,0.0,0.0,0.0,0.0,0.0,0.0,0.0,4.1979,4.2245,4.2315,0.0,0.0,0.0,0.0,0.0,0.0,0.0,0.0,0.0,0.0,0.0,0.0,0.0,0.0,0.0,0.0,0.0,0.0,0.0,0.0,0.0,0.0,0.0,0.0,4.5229,4.5684,4.5969,4.5958,4.5949,4.6196,4.6758,4.7578,4.8259,4.8806,4.9288,4.9708,5.0019,5.0469,5.0663,5.0644,5.0298,5.0173,5.0173,4.9865,4.9528,4.919,4.9487,4.9601,4.9637,4.9882,5.0167,5.0446,0.0,0.0,0.0,0.0,0.0,0.0,0.0,0.0,0.0,0.0,0.0,0.0,0.0,0.0,2.4456,2.474,2.5262,2.5077,2.3875,2.491,2.5063,2.3944,2.5277,2.6329,2.6945,2.8103,2.8967,2.9497,3.2113,3.3401,3.3498,3.749,3.9362,3.9442,4.1499,4.2071,0.0,0.0,0.0,4.1008,0.0,0.0,4.3424,0.0,0.0,0.0,0.0,0.0,0.0,0.0,0.0,0.0,0.0,0.0,0.0,0.0,0.0,0.0,3.9124,0.0,0.0,0.0,0.0,0.0,0.0,0.0,0.0,0.0,0.0,0.0,0.0,0.0,0.0,0.0,0.0,0.0,0.0,0.0,0.0,0.0,0.0,0.0,0.0,0.0,0.0,0.0,0.0,0.0,4.5142,4.5601,4.5899,4.5874,4.6131,4.6677,4.7553,4.8381,4.889,4.9148,4.9628,4.9872,4.9891,5.0346,5.0576,5.0557,5.0513,5.0523,5.0576,5.0594,5.037,5.0057,5.0385,5.0306,5.0063,5.0275,5.039,5.0401,0.0,0.0,0.0,0.0,0.0,0.0,0.0,0.0,0.0,2.5733,0.0,0.0,0.0,0.0,0.0,2.5612,2.5567,2.5533,2.543,2.5505,2.5551,2.5538,2.6417,2.6926,2.6981,2.8639,2.9526,2.9585,3.2143,3.3432,3.355,3.6924,3.8508,3.8654,4.123,4.2381,4.252,0.0,4.4034,4.2871,0.0,4.7305,4.5578,0.0,0.0,0.0,4.8893,4.8699,0.0,0.0,0.0,0.0,0.0,0.0,0.0,0.0,0.0,0.0,0.0,0.0,0.0,0.0,0.0,0.0,0.0,0.0,0.0,0.0,0.0,0.0,0.0,0.0,0.0,0.0,0.0,0.0,0.0,0.0,0.0,0.0,0.0,0.0,0.0,0.0,0.0,0.0,0.0,4.5886,4.5866,4.5886,4.5874,4.5807,4.6588,4.7418,4.8254,4.9048,4.9896,5.0715,5.0596,5.0548,5.0567,5.0514,5.05,5.05,5.05,5.05,5.05,5.0572,5.0012,4.9226,5.0153,4.9937,4.9243,5.0015,5.0356,5.0428,0.0,0.0,0.0,0.0,0.0,0.0,0.0,0.0,2.6575,0.0,0.0,0.0,2.7106,2.7381,2.723,2.6375,2.6872,2.6978,2.6372,2.6366,2.6385,2.6447,2.6744,2.749,2.8746,2.9245,3.0117,3.138,3.2744,3.404,3.5323,3.7488,3.8844,3.9504,4.0862,4.1805,4.2511,4.4263,0.0,0.0,4.7145,4.8163,0.0,0.0,0.0,0.0,0.0,4.8064,0.0,0.0,4.7778,4.8176,0.0,0.0,0.0,0.0,0.0,0.0,3.8221,0.0,0.0,0.0,0.0,0.0,0.0,0.0,0.0,0.0,0.0,0.0,0.0,0.0,0.0,0.0,0.0,0.0,0.0,0.0,0.0,0.0,0.0,0.0,0.0,0.0,0.0,0.0,4.5557,4.5602,4.491,4.549,4.5791,4.5719,4.6553,4.7089,4.7289,4.8118,4.8668,4.8863,4.9452,4.9702,4.9672,5.0244,5.0478,5.0416,5.039,5.0348,5.0359,5.0435,5.0259,4.9981,5.0252,5.0203,4.9996,5.0159,5.0679,5.1238,0.0,0.0,0.0,0.0,0.0,0.0,0.0,0.0,2.749,0.0,0.0,0.0,2.8473,2.8086,2.7605,2.71,2.752,2.7629,2.7186,2.719,2.7224,2.7311,2.7704,2.8592,2.9968,3.035,3.1223,3.2611,3.3473,3.4616,3.5997,3.77,3.8963,3.984,0.0,0.0,0.0,0.0,0.0,0.0,4.7976,0.0,0.0,4.962,5.0097,0.0,0.0,0.0,5.0439,4.9524,4.91,0.0,0.0,0.0,0.0,0.0,0.0,0.0,0.0,0.0,0.0,0.0,0.0,0.0,3.8912,3.9546,0.0,0.0,0.0,0.0,0.0,0.0,0.0,0.0,0.0,0.0,0.0,0.0,0.0,0.0,0.0,0.0,0.0,0.0,0.0,4.5128,4.5554,4.5578,4.5032,4.5472,4.5735,4.5708,4.6516,4.6934,4.6898,4.7736,4.8143,4.8116,4.8933,4.9277,4.9235,5.0054,5.0371,5.0314,5.0278,5.0243,5.0219,5.0255,5.0267,5.0267,5.0267,5.0243,5.0219,5.0163,5.0716,5.1503,0.0,0.0,0.0,0.0,0.0,0.0,0.0,0.0,0.0,0.0,2.9279,2.9256,2.9111,2.8422,2.7988,2.8084,2.8013,2.8037,2.8205,2.8104,2.8155,2.8412,2.9132,2.9994,3.096,3.1744,3.2561,3.3432,3.4325,3.5237,3.6221,3.7875,3.9103,3.998,0.0,0.0,0.0,0.0,0.0,4.6655,4.9091,5.0225,0.0,0.0,5.2582,0.0,5.2415,5.2835,5.3312,5.2309,5.024,0.0,0.0,0.0,0.0,0.0,3.8601,0.0,0.0,0.0,0.0,0.0,0.0,0.0,3.8792,3.8973,3.9459,0.0,0.0,0.0,0.0,0.0,0.0,0.0,0.0,0.0,0.0,0.0,0.0,0.0,0.0,0.0,0.0,4.5827,4.5812,4.5807,4.575,4.57,4.57,4.5698,4.569,4.5692,4.6371,4.6749,4.6754,4.7461,4.7866,4.7953,4.8689,4.9077,4.9119,4.9912,5.0236,5.0163,5.0163,5.0114,5.0057,5.0057,5.0101,5.0175,5.0175,5.0126,5.0095,5.0082,5.0691,5.1509,0.0,0.0,0.0,0.0,0.0,0.0,0.0,0.0,2.9666,2.9127,2.9557,2.986,2.9737,2.9612,2.9832,3.0537,3.0013,2.9971,3.079,2.9621,2.9522,3.0999,3.0607,3.1093,3.2687,3.2935,3.3469,3.4348,3.5226,3.6453,3.8017,3.9064,4.0018,4.0844,0.0,0.0,0.0,0.0,0.0,4.7429,4.9282,0.0,5.3013,5.3268,5.3725,5.4149,5.3426,5.324,5.3196,0.0,5.0102,4.7642,0.0,0.0,0.0,0.0,0.0,0.0,0.0,0.0,0.0,0.0,0.0,0.0,3.8642,3.8852,3.9147,0.0,0.0,0.0,0.0,0.0,0.0,0.0,0.0,0.0,0.0,0.0,0.0,0.0,0.0,0.0,0.0,4.5807,4.5812,4.5807,4.575,4.5692,4.5698,4.5648,4.5612,4.562,4.5713,4.5809,4.5853,4.5963,4.6349,4.7069,4.7804,4.8458,4.9041,4.9854,5.0114,4.9965,4.9965,4.986,4.9703,4.9797,4.9965,5.012,5.007,5.0044,5.0018,4.9965,5.0928,5.2251,0.0,0.0,0.0,0.0,0.0,0.0,0.0,0.0,3.1233,3.0796,3.1005,3.1184,3.1156,3.1172,3.1396,3.1863,3.1941,3.2023,0.0,0.0,0.0,3.2424,3.2082,3.2516,3.3824,3.3907,3.439,3.5253,3.612,3.722,3.8512,3.9387,4.0495,4.1754,4.1757,0.0,0.0,0.0,4.6903,4.9991,5.0006,0.0,5.188,5.2667,5.3429,5.4022,5.3482,5.3523,5.3669,5.2713,5.0938,0.0,0.0,4.493,4.3833,0.0,3.9694,3.9699,0.0,0.0,0.0,3.7421,0.0,0.0,0.0,3.8045,3.8303,0.0,0.0,0.0,0.0,0.0,0.0,0.0,0.0,0.0,0.0,0.0,0.0,0.0,0.0,0.0,0.0,4.5326,4.5186,4.5624,4.5618,4.5584,4.5559,4.5559,4.5559,4.5559,4.5513,4.5513,4.5559,4.5908,4.6273,4.6664,4.7463,4.8017,4.8326,4.9024,4.9275,4.9164,4.9509,4.9562,4.9457,4.9551,4.964,4.9726,4.9879,4.9912,4.99,5.0256,5.111,5.2148,2.8151,0.0,0.0,0.0,0.0,0.0,0.0,0.0,3.2737,3.2712,3.2634,3.2693,3.3052,0.0,0.0,0.0,3.4227,3.432,0.0,0.0,0.0,0.0,3.3577,3.3852,3.4725,3.4979,3.535,3.5891,3.7102,3.7973,3.8513,3.9554,4.0893,4.2402,0.0,0.0,0.0,0.0,0.0,5.211,0.0,5.0466,5.1023,5.2464,5.341,5.3941,5.3735,5.3928,5.4177,5.3457,0.0,4.9686,4.6431,4.5217,0.0,0.0,0.0,0.0,0.0,0.0,0.0,0.0,0.0,3.7619,0.0,0.0,0.0,3.798,0.0,0.0,0.0,0.0,0.0,0.0,0.0,0.0,0.0,0.0,0.0,0.0,0.0,0.0,0.0,4.4421,4.4286,4.5178,4.5217,4.5189,4.5132,4.5506,4.5726,4.5735,4.5879,4.5966,4.5966,4.6579,4.6908,4.693,4.7613,4.7931,4.7966,4.844,4.8603,4.8528,4.9084,4.9255,4.9176,4.9273,4.9273,4.9257,4.964,4.9698,4.9661,5.0305,5.0933,5.1538,2.8967,2.9688,0.0,0.0,0.0,0.0,0.0,0.0,3.3607,3.3478,3.3506,3.4065,0.0,0.0,0.0,0.0,0.0,0.0,3.7313,0.0,0.0,0.0,0.0,0.0,3.5635,3.6425,3.6524,3.5906,3.8324,3.9165,3.8533,4.0172,4.1465,0.0,4.2405,0.0,0.0,0.0,4.8108,0.0,5.0992,5.2278,0.0,5.526,5.5592,5.5606,5.5404,5.4848,5.4183,0.0,5.2246,4.9657,0.0,4.5587,0.0,0.0,0.0,0.0,0.0,0.0,0.0,0.0,4.0372,0.0,0.0,0.0,3.8577,3.6456,0.0,0.0,0.0,0.0,0.0,0.0,0.0,0.0,0.0,0.0,0.0,0.0,0.0,0.0,0.0,0.0,4.3273,4.4268,4.424,4.4172,4.4162,4.5637,4.6511,4.655,4.7258,4.7629,4.7629,4.7671,4.7949,4.846,4.8439,4.8678,4.9209,4.9273,4.9139,4.8846,4.899,4.8906,4.8695,4.8873,4.8942,4.8959,4.9257,4.9286,4.9188,4.9281,4.9826,5.054,2.9787,3.0439,0.0,0.0,0.0,0.0,0.0,3.3619,3.4798,3.4347,3.5121,0.0,0.0,0.0,0.0,0.0,0.0,3.9443,0.0,0.0,0.0,0.0,0.0,0.0,0.0,0.0,3.75,3.6655,3.8772,3.963,3.9349,4.0547,4.1832,0.0,4.3105,0.0,4.9597,0.0,5.0473,0.0,0.0,0.0,0.0,5.4696,5.467,5.5015,5.5308,5.5141,5.469,0.0,5.257,0.0,0.0,0.0,0.0,0.0,0.0,0.0,0.0,0.0,0.0,0.0,0.0,0.0,0.0,0.0,3.7878,0.0,0.0,0.0,0.0,0.0,0.0,0.0,0.0,0.0,0.0,0.0,0.0,0.0,0.0,0.0,0.0,0.0,0.0,0.0,4.3045,4.3273,4.3852,4.5069,4.5971,4.6522,4.7382,4.7799,4.7732,4.8083,4.8346,4.8515,4.8357,4.8371,4.8527,4.8366,4.8217,4.8118,4.8529,4.8642,4.855,4.8678,4.8696,4.866,4.8714,4.8837,4.903,4.9425,4.9692,4.9936,3.0402,0.0,0.0,0.0,0.0,0.0,3.3062,3.4413,3.5493,3.5507,0.0,0.0,3.8781,3.9606,0.0,0.0,0.0,4.2084,0.0,0.0,4.122,0.0,0.0,0.0,0.0,0.0,0.0,3.7909,3.9412,4.0189,4.0254,4.1072,4.2385,4.4031,0.0,4.6493,5.0796,0.0,0.0,5.5659,5.517,5.5392,5.5855,5.4436,5.4054,5.4341,5.5033,5.5076,5.4795,5.4338,5.3033,0.0,4.9484,0.0,0.0,0.0,0.0,0.0,4.4314,0.0,0.0,0.0,0.0,0.0,0.0,0.0,0.0,0.0,0.0,0.0,0.0,0.0,0.0,0.0,0.0,0.0,0.0,0.0,0.0,0.0,0.0,0.0,0.0,0.0,0.0,4.18,4.1794,4.2208,4.3206,4.4367,4.5513,4.6637,4.7571,4.8131,4.8232,4.8653,4.8758,4.8618,4.8415,4.8226,4.8066,4.7878,4.7773,4.7756,4.8274,4.8476,4.8457,4.8495,4.8457,4.84,4.8286,4.8401,4.8697,4.9215,4.9266,4.9182,3.0734,3.1005,0.0,0.0,0.0,3.3788,3.461,3.4728,3.5361,0.0,0.0,0.0,0.0,0.0,0.0,0.0,0.0,4.5638,4.4039,0.0,4.3015,0.0,0.0,3.9987,0.0,0.0,0.0,0.0,4.0619,4.1054,4.1071,4.1957,4.3244,4.4855,4.4787,4.6698,4.9929,4.9702,5.1594,5.4796,5.5421,5.6019,5.6492,0.0,5.4877,5.4199,5.4937,0.0,0.0,5.4724,5.3798,0.0,0.0,0.0,0.0,0.0,0.0,0.0,0.0,0.0,0.0,4.4109,0.0,0.0,0.0,0.0,3.8148,0.0,0.0,0.0,0.0,0.0,0.0,0.0,0.0,0.0,0.0,0.0,0.0,0.0,0.0,0.0,0.0,0.0,0.0,4.0504,4.0512,4.0858,4.1805,4.3672,4.554,4.7315,4.827,4.9105,4.9817,4.9594,4.9374,4.9174,4.8974,4.8731,4.8476,4.8532,4.8458,4.8288,4.842,4.8438,4.8287,4.8246,4.8207,4.8187,4.8052,4.8012,4.8032,4.805,4.8048,4.8048,0.0,0.0,0.0,0.0,0.0,3.4327,3.4628,3.6047,0.0,0.0,0.0,0.0,0.0,0.0,4.5502,0.0,0.0,4.6332,4.5908,4.5244,0.0,0.0,0.0,4.353,0.0,0.0,0.0,0.0,0.0,4.2812,4.2829,4.3072,4.3808,4.4903,0.0,4.6602,0.0,0.0,0.0,0.0,0.0,5.6416,5.6581,0.0,0.0,5.4768,5.4928,5.4814,0.0,5.4765,5.4027,5.2957,5.2318,5.128,5.0062,4.8868,4.8386,0.0,0.0,0.0,4.7012,4.5867,0.0,0.0,0.0,0.0,0.0,0.0,0.0,0.0,0.0,0.0,0.0,0.0,0.0,0.0,0.0,0.0,0.0,0.0,0.0,0.0,0.0,0.0,0.0,3.9183,3.9209,3.9653,4.069,4.2459,4.4304,4.6218,4.7701,4.882,4.9562,4.9399,4.9176,4.8872,4.8715,4.8532,4.8363,4.8382,4.8363,4.8306,4.8363,4.8343,4.8287,4.8286,4.8557,4.8972,4.8853,4.9037,4.9274,4.8286,4.7925,4.7925,3.1091,0.0,0.0,0.0,0.0,0.0,0.0,0.0,0.0,0.0,4.1567,0.0,4.5113,0.0,4.6896,0.0,4.7291,4.7412,4.7307,4.665,0.0,4.8475,4.6469,0.0,0.0,0.0,0.0,0.0,0.0,4.4157,4.4132,4.4075,4.4504,4.5319,0.0,4.6511,4.8866,0.0,5.1827,0.0,0.0,5.7164,0.0,0.0,5.5926,5.4596,0.0,5.4652,5.4398,5.4626,5.4298,5.3739,5.3392,5.286,5.2142,5.122,5.086,5.0536,4.9559,4.9283,0.0,4.6771,4.6238,0.0,4.3488,0.0,0.0,0.0,0.0,0.0,0.0,0.0,0.0,0.0,0.0,0.0,0.0,3.4241,0.0,0.0,0.0,0.0,0.0,0.0,3.7074,3.752,3.7557,3.8141,0.0,0.0,4.2992,4.5484,4.707,4.8344,4.9349,4.9176,4.8942,4.8659,4.8476,4.8343,4.8267,4.8209,4.819,4.819,4.819,4.819,4.8208,4.848,4.8859,4.9309,4.9416,4.9702,4.9915,4.8949,4.8387,4.8055,0.0,0.0,0.0,0.0,3.4127,0.0,0.0,0.0,3.9849,0.0,4.39,4.5031,4.7657,4.7936,4.8009,4.8181,4.8824,0.0,4.8321,4.7588,0.0,0.0,4.7107,4.7083,4.8898,0.0,0.0,0.0,0.0,0.0,4.5029,4.4985,4.5377,4.6095,4.6078,0.0,4.7313,4.9622,5.1162,5.2376,5.6231,5.8154,5.8631,5.7737,5.5834,5.3754,5.4511,5.4207,5.3579,5.4409,5.4608,5.4357,5.3586,5.3176,5.2765,5.1907,5.156,5.1231,5.0305,5.0046,4.9454,4.6999,0.0,0.0,0.0,0.0,4.3578,0.0,0.0,0.0,0.0,0.0,0.0,0.0,0.0,0.0,0.0,0.0,0.0,0.0,0.0,0.0,0.0,3.5711,3.5731,3.5688,3.5688,3.6407,0.0,0.0,4.1545,4.4947,4.6255,4.7582,4.9035,4.8864,4.8712,4.8513,4.8287,4.8187,4.8187,4.807,4.7992,4.7992,4.7992,4.801,4.8119,4.8819,4.9159,4.9244,4.9766,4.9983,4.9997,4.9925,4.9316,4.8452,3.1119,3.2794,3.4371,0.0,3.5893,3.6821,0.0,0.0,0.0,0.0,4.5058,4.6895,4.9529,4.9816,5.0108,5.0836,4.9981,0.0,0.0,0.0,0.0,4.9597,4.8662,4.893,5.0683,4.9254,0.0,4.9117,0.0,0.0,4.6825,4.6115,4.5892,4.6115,0.0,0.0,4.8118,4.9919,5.2485,5.5511,5.6977,5.7635,0.0,0.0,5.6037,5.4301,5.4511,5.4423,5.4239,5.4369,5.4376,5.4285,5.399,5.381,5.3553,5.2605,5.2252,5.1916,5.0949,5.0747,5.049,4.914,4.8808,4.8532,0.0,0.0,0.0,0.0,0.0,0.0,0.0,0.0,0.0,0.0,0.0,0.0,0.0,0.0,0.0,3.2811,0.0,0.0,0.0,3.4659,3.4925,3.5519,3.5555,3.5972,0.0,0.0,0.0,4.159,4.3155,4.4506,4.566,4.6783,4.7294,4.7273,4.7798,4.805,4.805,4.8012,4.7992,4.7992,4.7992,4.8338,4.8903,4.9081,4.9819,5.0806,5.0846,5.1138,5.1394,5.0298,4.9676,4.9392,3.1292,0.0,0.0,3.6265,0.0,0.0,3.9962,0.0,0.0,4.5829,4.6823,0.0,5.0296,5.0605,5.0866,5.1402,5.0662,0.0,0.0,0.0,0.0,5.1101,5.0371,5.075,5.25,5.1202,0.0,5.0664,0.0,0.0,4.8066,4.7508,4.7012,4.6644,0.0,4.7402,4.7877,5.0144,5.3192,5.6581,5.7199,0.0,0.0,5.7494,5.6493,5.5491,5.5081,5.4707,5.439,5.4324,5.4236,5.4165,5.4073,5.3963,5.3757,5.3236,5.2991,5.2578,5.1218,5.0905,5.0741,4.9795,4.9594,4.9524,4.9139,4.9048,4.866,0.0,0.0,0.0,0.0,0.0,0.0,0.0,0.0,0.0,0.0,0.0,0.0,0.0,0.0,0.0,0.0,3.3526,3.3737,3.42,3.4218,3.472,0.0,0.0,0.0,4.0763,4.2687,4.4236,4.5442,4.6778,4.7417,4.7335,4.7749,4.7927,4.7868,4.7868,4.7788,4.7705,4.8148,4.8527,4.8955,4.9662,5.0434,5.1194,5.1351,5.164,5.1831,5.0982,5.0449,5.009,0.0,0.0,0.0,0.0,0.0,0.0,0.0,4.3373,0.0,4.8487,0.0,4.8826,5.0741,5.0864,5.0913,5.1235,0.0,5.1165,5.1136,5.1337,5.1807,5.2571,5.193,5.2327,5.3959,5.3261,0.0,0.0,0.0,0.0,4.912,4.884,4.8262,4.7448,0.0,0.0,0.0,5.0541,5.3557,5.6454,5.7111,5.8289,5.9454,5.7793,5.7033,5.6758,5.5955,5.5058,5.429,5.4367,5.4222,5.3963,5.3944,5.3812,5.3656,5.3636,5.3558,5.3105,5.1503,5.1057,5.0817,4.9797,4.9519,4.9541,4.955,4.9479,4.9222,4.8561,4.8341,4.8066,0.0,0.0,0.0,0.0,0.0,0.0,0.0,0.0,0.0,0.0,0.0,0.0,0.0,0.0,3.2695,3.2589,3.2573,0.0,0.0,0.0,0.0,4.1044,4.3087,4.4875,4.6365,0.0,4.7907,4.7747,4.7809,4.7814,4.7799,4.7799,4.7728,4.7661,4.8492,4.883,4.892,5.0322,5.0928,5.1042,5.1547,5.1715,5.169,5.169,5.1343,5.0719,0.0,0.0,0.0,0.0,0.0,4.1719,4.4251,4.4247,4.4953,4.7761,4.8106,4.9317,5.2473,5.1614,5.1429,5.2983,5.2536,0.0,0.0,0.0,0.0,5.2674,5.256,5.2944,5.3984,5.3847,5.3705,0.0,0.0,0.0,5.0825,4.9378,4.855,4.8281,0.0,0.0,5.0085,5.1836,0.0,5.644,5.7065,5.7848,5.8595,5.8152,5.7467,5.6705,5.6555,5.5471,5.4203,5.4708,5.4409,5.3813,5.3638,5.3559,5.3499,5.3334,5.3272,5.3136,5.2608,5.2448,5.2083,5.0602,5.0237,5.0055,4.9419,4.8764,4.8435,4.8946,4.8605,4.8132,4.7889,0.0,0.0,0.0,0.0,0.0,0.0,0.0,0.0,0.0,0.0,0.0,0.0,0.0,0.0,0.0,0.0,0.0,0.0,0.0,0.0,0.0,4.0698,0.0,0.0,0.0,4.6327,4.6513,4.7101,4.7727,4.8375,4.8375,4.8713,4.9297,4.9446,4.9896,5.0502,5.0771,5.1173,5.1569,5.1779,5.1808,5.169,5.169,5.1694,5.1674,0.0,0.0,0.0,0.0,0.0,0.0,0.0,4.5438,0.0,4.8968,4.9085,4.9721,5.1824,5.1363,5.1467,5.2854,5.2665,5.2509,5.2645,5.3468,5.399,5.4051,5.4041,0.0,5.5283,5.4893,5.4667,5.4613,0.0,0.0,0.0,0.0,0.0,4.9879,0.0,5.0933,0.0,0.0,0.0,5.6303,5.6935,5.7882,5.8797,5.8256,5.7679,5.7172,5.7172,5.6293,5.5115,5.502,5.4443,5.3716,5.3559,5.3439,5.3316,5.3212,5.3106,5.2864,5.2287,5.2134,5.1952,5.1148,5.0966,5.0769,5.0013,4.9852,4.9615,4.8758,4.8652,4.8561,4.804,4.611,0.0,0.0,0.0,0.0,0.0,0.0,0.0,0.0,0.0,0.0,0.0,0.0,0.0,0.0,0.0,0.0,0.0,0.0,0.0,0.0,0.0,0.0,0.0,0.0,0.0,4.6409,4.7308,4.8141,4.891,4.8998,4.9195,4.9519,5.0002,5.0396,5.0725,5.1137,5.15,5.1808,5.1733,5.1708,5.169,5.1538,5.1513,5.1607,0.0,3.6844,0.0,0.0,4.1406,0.0,4.5512,4.6653,4.806,5.0115,5.0152,5.0283,5.1083,5.1246,5.167,5.2611,5.2743,5.3182,5.4145,5.4994,5.5519,5.5566,5.5565,5.585,5.6489,5.5888,5.5523,0.0,0.0,0.0,0.0,0.0,0.0,0.0,0.0,0.0,0.0,0.0,5.5574,5.6428,5.7083,5.8119,5.9215,5.8466,5.8032,5.7835,5.7835,5.7062,5.5988,5.5567,5.4732,5.3818,5.3494,5.3295,5.3148,5.3085,5.2915,5.2611,5.19,5.171,5.1673,5.1492,5.1456,5.1296,5.0711,5.0954,5.079,4.906,4.8912,4.8949,4.8288,4.6855,0.0,0.0,0.0,0.0,0.0,0.0,0.0,0.0,0.0,0.0,0.0,0.0,0.0,0.0,0.0,0.0,0.0,0.0,0.0,0.0,0.0,4.1146,4.3063,0.0,4.5888,0.0,4.7714,4.8704,4.9519,4.9585,4.9674,4.9822,5.0519,5.0762,5.0724,5.139,5.1708,5.1758,5.1607,5.1582,5.1589,5.1436,5.1376,5.135,0.0,0.0,0.0,0.0,0.0,0.0,4.6402,4.7644,4.8684,4.9591,5.0387,5.1187,5.1998,5.2131,5.2576,5.3585,5.3662,5.4102,5.5104,5.5928,5.6403,5.6483,5.6421,5.6411,5.6508,5.6438,5.6352,0.0,0.0,0.0,0.0,0.0,0.0,0.0,0.0,0.0,0.0,5.4315,5.589,5.7318,5.7884,5.8592,5.929,5.9121,5.887,5.8586,5.8586,5.7439,5.6008,5.6605,5.5754,5.4275,5.3347,5.3042,5.2959,5.2721,5.2635,5.259,5.2435,5.2412,5.2231,5.1507,5.1325,5.1289,5.1239,5.0714,5.0369,5.0895,4.9876,4.8962,4.906,4.8187,4.6915,0.0,0.0,0.0,0.0,0.0,0.0,0.0,0.0,0.0,0.0,0.0,0.0,0.0,0.0,0.0,0.0,0.0,0.0,4.077,0.0,4.1395,4.4649,4.5635,4.6165,4.6253,4.8014,4.9302,5.0215,5.009,5.0498,5.1292,5.126,5.1244,5.1244,5.1444,5.1454,5.1376,5.1607,5.1538,5.1359,5.1564,5.1582,5.1479,0.0,0.0,0.0,0.0,0.0,0.0,0.0,4.8347,4.9648,5.0515,5.1376,5.183,5.163,5.2529,5.331,5.3759,5.4282,5.5017,5.6015,5.6836,5.7284,5.7326,5.7805,5.8041,5.799,5.8032,5.8028,0.0,0.0,0.0,0.0,0.0,0.0,0.0,0.0,5.4949,5.4867,5.5936,5.6954,5.7899,5.8065,5.854,5.9101,5.904,5.884,5.8574,5.8574,5.8018,5.7228,5.6971,5.5787,5.4369,5.3866,5.3602,5.3362,5.2758,5.2563,5.2531,5.2521,5.2498,5.2426,5.21,5.2009,5.1882,5.1411,5.1411,5.1357,5.0705,5.0071,4.9641,4.9731,4.9031,4.7835,0.0,0.0,0.0,0.0,0.0,0.0,0.0,0.0,0.0,0.0,0.0,0.0,0.0,0.0,0.0,0.0,0.0,0.0,4.0273,0.0,4.1743,4.4637,4.5563,4.6495,4.7421,4.8766,4.9862,5.0769,5.0734,5.0963,5.1376,5.1307,5.1298,5.1281,5.135,5.135,5.1324,5.141,5.1436,5.1428,5.1454,5.1479,5.1505,3.9275,0.0,4.148,0.0,4.4873,4.6343,4.7476,4.8954,5.0369,5.1528,5.2414,5.2692,5.2052,5.3256,5.413,5.4216,5.4777,5.5643,5.6871,5.7474,5.7914,5.8161,5.8747,0.0,5.864,5.8937,5.8908,5.8592,5.8854,0.0,0.0,0.0,0.0,0.0,5.5969,5.644,5.6581,5.7311,5.7693,5.7859,5.8276,5.8484,5.8608,5.8808,5.8716,5.8465,5.8465,5.8164,5.7661,5.724,5.6122,5.4828,5.4263,5.3964,5.3644,5.2799,5.2531,5.2498,5.2498,5.2475,5.2452,5.2498,5.2475,5.2307,5.1774,5.2082,5.2172,5.1031,5.0615,5.0456,5.0456,4.98,4.8829,4.7497,0.0,0.0,0.0,0.0,0.0,0.0,0.0,3.9765,3.9992,0.0,0.0,0.0,0.0,0.0,0.0,0.0,0.0,0.0,0.0,0.0,0.0,4.5952,4.7082,4.8135,4.9424,5.0409,5.1105,5.1132,5.1185,5.1246,5.1246,5.1246,5.1246,5.1246,5.1246,5.1246,5.1298,5.1324,5.1394,5.135,5.1402,5.1454,4.0444,4.1294,4.2537,4.4271,4.5423,4.6688,4.8419,4.9496,5.0692,5.2372,5.34,5.3941,5.3871,5.4596,5.5107,5.5173,5.5194,5.5937,5.7679,5.7783,5.818,0.0,0.0,5.8621,5.7825,5.8593,5.8553,5.7626,0.0,0.0,5.6191,0.0,5.5125,5.6569,5.6364,5.6656,5.7332,5.8065,5.7834,5.7056,5.8578,5.8556,5.7726,5.8583,5.8693,5.8393,5.8393,5.7637,5.6749,5.7517,5.7078,5.5892,5.4317,5.3808,5.3639,5.2762,5.2498,5.2498,5.2498,5.2405,5.2335,5.2475,5.2405,5.2335,5.2457,5.248,5.248,5.2462,5.1828,5.1285,5.1285,5.0637,5.0093,5.0053,0.0,0.0,0.0,0.0,0.0,0.0,4.1368,4.1441,4.1933,0.0,0.0,0.0,0.0,0.0,0.0,0.0,0.0,4.0407,4.2245,0.0,4.5186,4.7176,4.8083,4.7922,4.994,5.0954,5.1105,5.1246,5.122,5.1105,5.1105,5.1105,5.1105,5.1105,5.1105,5.1105,5.1246,5.122,5.1132,5.1402,5.1402,5.1324,4.209,4.2639,4.346,4.5231,4.6796,4.7826,4.786,4.9604,5.1342,5.2518,5.3455,5.4433,5.5602,5.5934,5.5814,0.0,5.5742,5.6579,0.0,5.8315,5.9008,5.9888,6.0465,6.0638,6.0331,6.0039,5.9988,6.0183,0.0,0.0,0.0,5.8141,5.777,5.7481,5.7277,5.7487,5.797,5.7635,5.7573,5.7678,5.809,5.7993,5.7687,5.8361,5.8526,5.8393,5.8305,5.7918,5.7439,5.7606,5.7389,5.6727,5.5051,5.4538,5.4284,5.2902,5.2498,5.2475,5.2382,5.2335,5.2287,5.2246,5.2198,5.2198,5.2335,5.2428,5.2498,5.2498,5.2299,5.2118,5.2118,5.1448,5.0882,5.0792,4.9622,0.0,0.0,0.0,0.0,0.0,4.353,4.2152,0.0,4.226,0.0,0.0,0.0,0.0,0.0,0.0,0.0,0.0,4.368,0.0,4.7299,4.8592,4.9459,4.9957,5.0699,5.1105,5.1246,5.1272,5.1272,5.122,5.1132,5.1105,5.1079,5.0998,5.0972,5.0972,5.1025,5.1052,5.1105,5.1298,5.1402,5.1428,4.2956,4.3318,4.3932,4.5725,4.7228,4.8135,4.8002,4.9886,5.1771,5.3039,5.3652,5.4662,5.6408,5.656,0.0,5.5741,5.6465,5.7332,5.8221,5.9045,5.9888,6.0753,6.1295,6.1388,6.1026,0.0,0.0,6.0909,6.0289,5.9927,5.9794,5.9246,5.8772,5.838,5.8154,5.8341,5.8763,5.7935,5.7538,5.7454,5.7379,5.7225,5.7121,5.7793,5.8163,5.8305,5.8174,5.795,5.7697,5.7577,5.7455,5.7096,5.5728,5.5124,5.4581,5.2969,5.2475,5.2405,5.2311,5.2216,5.2126,5.2102,5.2078,5.2054,5.2174,5.2293,5.234,5.234,5.234,5.234,5.234,5.1943,5.1576,5.1483,5.0816,5.023,5.0096,0.0,0.0,0.0,0.0,0.0,0.0,4.3346,0.0,0.0,0.0,0.0,0.0,0.0,0.0,4.2785,4.5615,0.0,4.867,4.9581,5.0283,5.0774,5.0945,5.1105,5.122,5.122,5.122,5.122,5.1132,5.1105,5.1079,5.0945,5.0891,5.0891,5.0891,5.0945,5.1052,5.1185,5.1298,5.1428,4.3156,4.3465,0.0,0.0,4.6929,0.0,4.868,5.028,5.2019,5.3763,5.4004,5.4661,5.6405,5.6598,5.6571,5.6506,0.0,0.0,0.0,5.9852,6.0682,6.1564,6.1539,6.1103,6.0305,6.0961,6.09,6.0078,5.994,5.9872,5.9843,5.8727,5.8591,5.9253,5.9005,5.9197,5.9624,5.8706,5.7634,5.6594,5.6519,5.6326,5.6195,5.699,5.7654,5.8174,5.8042,5.7815,5.7577,5.7455,5.7313,5.7043,5.6174,5.545,5.4599,5.3041,5.2459,5.2287,5.2287,5.2096,5.1932,5.2054,5.198,5.1932,5.2054,5.2102,5.2102,5.2102,5.2102,5.2102,5.2102,5.2102,5.2102,5.2102,5.1473,5.0886,5.0617,0.0,0.0,0.0,0.0,0.0,0.0,4.4438,4.4873,0.0,0.0,0.0,0.0,0.0,4.4663,4.4644,4.7797,4.9447,4.9311,5.018,5.063,5.0657,5.0801,5.0972,5.1105,5.1105,5.1105,5.1105,5.1079,5.1079,5.1052,5.0918,5.0863,5.0863,5.0891,5.0891,5.0918,5.1052,5.1185,5.1298,0.0,0.0,4.4857,4.5983,4.7453,4.8551,4.8774,5.0289,5.2007,5.3691,5.3979,5.4646,5.635,5.652,5.6508,5.6434,5.7244,5.8133,5.8968,5.979,6.0606,6.1487,6.1458,6.1324,6.111,6.0649,6.0235,5.9876,6.0498,6.0702,6.0561,6.0281,6.0041,5.9888,5.9873,5.9757,5.9451,5.7945,5.7055,5.6519,5.5714,5.5669,5.6175,5.6817,5.7542,5.8174,5.7927,5.7745,5.7577,5.7455,5.7313,5.6953,5.5595,5.5051,5.4707,5.3711,5.2893,5.2287,5.2174,5.2029,5.1882,5.1815,5.1858,5.1907,5.1932,5.2029,5.2102,5.2102,5.2102,5.2102,5.2102,5.2102,5.2078,5.1956,5.177,5.1117,4.961,4.8179,0.0,0.0,4.5463,4.519,4.5935,4.6189,4.6389,0.0,0.0,0.0,0.0,4.7837,4.748,4.616,4.831,4.9466,4.9457,5.0361,5.0873,5.0981,5.1025,5.1132,5.1246,5.1246,5.1211,5.1079,5.0936,5.0793,5.0729,5.0582,5.0526,5.0526,5.062,5.0657,5.0702,5.0981,5.1105,5.1158,4.3968,4.4834,4.5737,4.6635,4.7911,4.893,4.9335,5.0864,5.246,5.3766,5.4323,5.5086,5.6352,5.6494,5.648,5.6409,5.7574,5.8496,5.8937,6.0079,6.0968,6.1434,6.1382,6.1347,6.1349,6.086,6.0517,6.0345,6.076,6.0916,6.08,6.066,6.048,6.0222,6.0148,5.9915,5.9433,5.7721,5.6814,5.6406,5.5004,5.5089,5.6037,5.6347,5.714,5.8065,5.7792,5.7673,5.7577,5.7363,5.7264,5.6989,5.5776,5.5111,5.4653,5.3839,5.2948,5.2174,5.2054,5.1907,5.1808,5.1715,5.174,5.1808,5.1808,5.1864,5.1914,5.1914,5.1914,5.1914,5.1914,5.1914,5.1889,5.1833,5.1362,5.0485,4.9103,4.8015,0.0,4.699,4.6271,4.6196,4.7208,4.7119,4.7026,4.721,4.7464,0.0,4.8605,4.9185,4.9028,4.8057,4.9307,5.0045,5.0161,5.0653,5.0972,5.1105,5.1025,5.1079,5.1193,5.1158,5.1034,5.0883,5.0766,5.0612,5.0492,5.0425,5.0415,5.0415,5.0481,5.0547,5.0612,5.0811,5.0981,5.1105,4.477,4.5615,4.649,4.7368,4.8237,4.9116,4.9978,5.1576,5.3008,5.3874,5.4743,5.5584,5.6393,5.6473,5.6515,5.6587,5.7998,5.8879,5.8879,6.0456,6.1393,6.1398,6.1329,6.1291,6.1289,6.1219,6.1099,6.0972,6.0861,6.0788,6.0753,6.0512,6.0389,6.0328,6.0072,5.9817,5.9486,5.7818,5.691,5.642,5.4779,5.4897,5.6061,5.5969,5.6779,5.795,5.7697,5.7601,5.7528,5.7264,5.7116,5.688,5.6041,5.5207,5.4332,5.3514,5.2696,5.2054,5.1932,5.1808,5.169,5.169,5.169,5.169,5.169,5.169,5.169,5.169,5.169,5.169,5.169,5.169,5.169,5.169,5.0693,4.9666,4.8932,0.0,4.6945,4.753,4.6863,4.6847,4.8073,4.7829,4.7638,4.7666,4.8131,4.8727,4.9416,4.9668,4.9802,4.9802,5.0307,5.0657,5.0819,5.0846,5.09,5.1008,5.105,5.105,5.1025,5.105,5.0879,5.0575,5.0575,5.0492,5.0387,5.0359,5.0331,5.0331,5.0387,5.0481,5.0575,5.063,5.0828,5.1079,4.4961,4.5695,4.6559,4.7439,4.8305,4.9153,4.9979,5.1582,5.298,5.3813,5.468,5.5512,5.6325,5.6412,5.6675,5.7356,5.8273,5.881,5.881,6.0429,6.1371,6.1322,6.1314,6.127,6.1219,6.1089,6.0971,6.0827,6.0812,6.0697,6.0552,6.0444,6.0299,6.0129,5.9861,5.9647,5.9417,5.8203,5.7544,5.723,5.6062,5.6079,5.6816,5.6687,5.7143,5.7815,5.7649,5.7528,5.7406,5.7239,5.6736,5.6047,5.5164,5.4338,5.3478,5.2442,5.2064,5.1932,5.1925,5.1808,5.169,5.169,5.169,5.169,5.169,5.169,5.169,5.169,5.169,5.169,5.169,5.169,5.169,5.169,5.0769,4.9811,4.9075,0.0,4.8566,4.8089,4.8756,4.932,4.9561,4.9533,4.9551,4.974,4.9825,4.9962,5.0223,5.0279,5.0279,5.0279,5.0477,5.0547,5.0471,5.0592,5.0657,5.0702,5.145,5.1433,5.0702,5.1485,5.1304,5.0425,5.0425,5.0341,5.0217,5.0092,5.0051,5.008,5.0302,5.0397,5.0471,5.0764,5.0891,5.0918,4.5611,4.6025,4.6713,4.8024,4.8573,4.9297,5.0605,5.2259,5.3471,5.3855,5.5041,5.5981,5.6358,5.6375,5.6677,5.7476,5.8284,5.894,5.9363,6.0585,6.1278,6.1245,6.1219,6.1164,6.1089,6.096,6.0853,6.08,6.0704,6.0591,6.0499,6.0328,6.0129,5.9941,5.973,5.949,5.9159,5.8125,5.7573,5.7293,5.6248,5.6307,5.6978,5.6758,5.7143,5.7768,5.7577,5.7437,5.7363,5.7257,5.6903,5.6375,5.5548,5.4665,5.3749,5.281,5.2198,5.1808,5.1808,5.1758,5.169,5.169,5.169,5.169,5.169,5.169,5.169,5.169,5.169,5.169,5.169,5.169,5.169,5.169,5.0744,0.0,0.0,4.9362,4.9451,4.8732,5.012,5.1132,5.1132,5.0828,5.0691,5.0778,5.05,5.0313,5.0415,5.0769,5.0776,5.032,5.0826,5.1063,5.0978,5.1481,5.1719,5.1736,5.2188,5.2142,5.1719,5.1734,5.1422,5.0847,5.0476,5.0235,5.0109,5.004,5.0011,4.9993,5.0138,5.0274,5.0415,5.0554,5.0737,5.0891,4.617,4.6464,4.707,4.8554,4.8983,4.9626,5.1167,5.283,5.3891,5.3875,5.5338,5.6364,5.6364,5.631,5.6686,5.7682,5.8327,5.9105,6.0145,6.0807,6.1137,6.1155,6.1109,6.1031,6.0971,6.0861,6.0777,6.0741,6.0578,6.0485,6.0444,6.0207,5.9972,5.9777,5.9595,5.9327,5.8908,5.8134,5.7691,5.7442,5.6679,5.668,5.7165,5.6965,5.7214,5.7673,5.7461,5.7363,5.7313,5.7188,5.6953,5.6606,5.5916,5.4935,5.3895,5.3243,5.2391,5.169,5.169,5.169,5.169,5.169,5.169,5.1744,5.1922,5.1976,5.2029,5.2208,5.2225,5.2225,5.2225,5.2225,5.2172,5.1993,0.0,0.0,0.0,5.0054,5.0254,5.0112,5.1454,5.2364,5.2364,5.1904,5.1604,5.1575,5.1153,5.0869,5.0823,5.1379,5.1356,5.0685,5.0991,5.124,5.1431,5.205,5.2479,5.2671,5.2874,5.2857,5.2636,5.2056,5.1616,5.1263,5.0501,5.0149,5.0051,4.9993,5.0011,4.9993,5.0022,5.0206,5.0397,5.0425,5.0637,5.0891,4.6284,4.6947,4.7805,4.8723,4.9504,5.0321,5.1263,5.2818,5.3871,5.3812,5.5277,5.6271,5.6219,5.6206,5.6871,5.8483,5.8607,5.9318,6.0988,6.1051,6.102,6.1012,6.102,6.0955,6.0823,6.0812,6.0717,6.0525,6.0512,6.045,6.0308,6.0167,5.9956,5.9696,5.9436,5.914,5.8805,5.8542,5.8329,5.8127,5.805,5.7914,5.7742,5.7719,5.7594,5.7431,5.7406,5.7313,5.7188,5.7079,5.6523,5.5815,5.5522,5.4379,5.3153,5.298,5.234,5.169,5.169,5.169,5.169,5.169,5.169,5.1886,5.2643,5.2822,5.2993,5.368,5.3823,5.3823,5.3823,5.3823,5.3617,5.2929,0.0,0.0,5.2217,5.136,5.1262,5.2909,5.2936,5.2852,5.2852,5.2701,5.2554,5.2436,5.2384,5.2243,5.2093,5.2127,5.2114,5.2046,5.0799,5.0436,5.1127,5.1308,5.1795,5.2523,5.3336,5.3301,5.2523,5.2572,5.2137,5.1263,5.0501,5.0189,5.016,5.0051,5.0011,4.9993,5.0149,5.0274,5.0415,5.0547,5.0702,5.0891,4.6946,4.7315,4.7977,4.9395,4.9903,5.0391,5.1269,5.2783,5.3825,5.3798,5.5213,5.6219,5.6209,5.616,5.6808,5.8482,5.8602,5.9301,6.0973,6.1021,6.099,6.0938,6.0903,6.0835,6.0734,6.0667,6.0578,6.0499,6.0422,6.0352,6.0298,6.0122,5.9864,5.9524,5.9364,5.9043,5.8617,5.8486,5.8353,5.8197,5.8106,5.7973,5.7792,5.7697,5.7249,5.6643,5.6545,5.6446,5.6248,5.5747,5.5908,5.6176,5.5587,5.4587,5.3455,5.2447,5.1922,5.169,5.169,5.169,5.169,5.169,5.169,5.1779,5.2083,5.2554,5.2983,5.326,5.3689,5.4001,5.4001,5.4001,5.3868,5.3522,0.0,5.2874,5.3185,5.3125,5.331,5.4003,5.4221,5.4325,5.4325,5.3686,5.3229,5.3186,5.2645,5.2296,5.2218,5.2188,5.2442,5.2942,5.1925,5.1752,5.2528,5.3038,5.3449,5.3742,5.4098,5.4081,5.3725,5.332,5.268,5.1825,5.1082,5.0495,5.008,5.0022,5.0011,5.0011,5.0051,5.0206,5.0415,5.0453,5.0665,5.0891,4.7469,4.7966,4.8696,4.9889,5.0332,5.07,5.1288,5.2754,5.3789,5.377,5.519,5.6182,5.6149,5.609,5.6745,5.8384,5.852,5.9225,6.0901,6.0959,6.0908,6.0869,6.0812,6.0741,6.0635,6.0552,6.0472,6.045,6.0337,6.0264,6.0186,5.9994,5.9696,5.9363,5.9215,5.8885,5.8465,5.8331,5.8219,5.8129,5.795,5.7815,5.7721,5.7601,5.7091,5.6497,5.6423,5.6161,5.5772,5.5173,5.54,5.5811,5.515,5.4374,5.3403,5.2083,5.169,5.169,5.169,5.169,5.169,5.169,5.169,5.1762,5.2011,5.2501,5.3054,5.351,5.4028,5.4447,5.4723,5.4759,5.4634,5.4242,5.4153,5.4053,5.3916,5.418,5.4459,5.4688,5.4914,5.5066,5.5066,5.4352,5.3873,5.3873,5.3297,5.2912,5.2912,5.2912,5.3184,5.3736,5.3218,5.3201,5.3753,5.4029,5.4287,5.4512,5.4512,5.4512,5.4477,5.3736,5.2977,5.2153,5.1425,5.0683,5.0011,5.0011,5.0011,4.9993,5.0051,5.0206,5.0415,5.0453,5.0637,5.0891,4.7764,4.8953,5.0098,5.0104,5.082,5.1389,5.1317,5.2734,5.3774,5.3722,5.5158,5.6149,5.602,5.6003,5.6645,5.8258,5.8331,5.9064,6.0871,6.0869,6.08,6.08,6.0722,6.0642,6.0499,6.0499,6.0431,6.0313,6.0298,6.0205,5.9994,5.9779,5.9559,5.929,5.8965,5.8658,5.8371,5.8111,5.7997,5.7973,5.7697,5.7601,5.7601,5.7437,5.7313,5.7188,5.7188,5.6663,5.595,5.5674,5.505,5.4353,5.4088,5.3492,5.2751,5.1922,5.169,5.169,5.169,5.169,5.169,5.169,5.169,5.1904,5.2733,5.2911,5.3358,5.4884,5.5223,5.5455,5.624,5.6401,5.6078,5.5148,5.4896,5.473,5.4514,5.4291,5.4395,5.5112,5.4961,5.4797,5.4797,5.4606,5.4512,5.4512,5.4512,5.4512,5.4512,5.4512,5.4512,5.4512,5.4512,5.4512,5.4512,5.377,5.3787,5.4512,5.4512,5.4512,5.4494,5.3753,5.2977,5.2153,5.1442,5.07,5.0011,5.0011,5.0011,4.9993,5.0149,5.0302,5.0415,5.0547,5.0729,5.0891,4.8379,4.8836,4.9568,5.0748,5.1164,5.1514,5.2068,5.3054,5.393,5.4459,5.547,5.6101,5.6007,5.6005,5.6626,5.8188,5.8402,5.9125,6.0742,6.0788,6.0704,6.0585,6.0578,6.0499,6.0366,6.0366,6.0289,6.0167,6.0106,6.006,5.9994,5.9751,5.9508,5.929,5.8965,5.8658,5.8393,5.8219,5.8106,5.7973,5.7815,5.7673,5.7601,5.7437,5.6969,5.6355,5.6355,5.5774,5.4916,5.4219,5.4119,5.4136,5.3437,5.3064,5.2751,5.1922,5.169,5.169,5.169,5.169,5.169,5.169,5.169,5.1904,5.2733,5.3296,5.3974,5.4991,5.5651,5.6115,5.6347,5.6318,5.6136,5.5702,5.5525,5.5325,5.5045,5.4927,5.4925,5.5031,5.4917,5.4797,5.4797,5.4606,5.4512,5.4512,5.4512,5.4512,5.4512,5.4512,5.4512,5.4512,5.4512,5.4512,5.4512,5.4287,5.4287,5.4512,5.4512,5.4512,5.4494,5.4287,5.377,5.3011,5.2188,5.1459,5.0735,5.0218,5.0051,5.0132,5.0189,5.0341,5.0547,5.0602,5.0729,5.0891,4.9288,4.9562,5.0114,5.1164,5.1326,5.1573,5.2383,5.3174,5.3992,5.48,5.5571,5.604,5.5999,5.598,5.658,5.8156,5.8957,5.9763,6.07,6.066,6.0559,6.0472,6.045,6.038,6.0313,6.025,6.0167,6.0072,6.0026,5.9982,5.9902,5.9614,5.9364,5.9177,5.8803,5.8486,5.8219,5.8042,5.7927,5.7834,5.7649,5.7553,5.7504,5.7363,5.6973,5.6428,5.6102,5.5455,5.458,5.3681,5.3329,5.3207,5.2666,5.2472,5.234,5.1833,5.169,5.169,5.169,5.169,5.169,5.169,5.169,5.1904,5.2733,5.3242,5.3885,5.4973,5.5598,5.5999,5.6265,5.6235,5.6123,5.5861,5.5706,5.5531,5.5229,5.5126,5.5022,5.4948,5.4762,5.4686,5.4686,5.4575,5.448,5.4367,5.4367,5.4303,5.4093,5.4126,5.4093,5.3946,5.4011,5.4126,5.4321,5.4321,5.423,5.408,5.4374,5.4356,5.408,5.4374,5.4098,5.3356,5.2563,5.1774,5.1045,5.0304,5.0051,5.0149,5.0246,5.0369,5.0547,5.0675,5.0819,5.0891,5.023,5.0621,5.1136,5.1346,5.1336,5.1597,5.247,5.323,5.4006,5.4881,5.557,5.6005,5.599,5.5933,5.655,5.8165,5.9777,6.0685,6.0673,6.0565,6.0458,6.0389,6.0323,6.0264,6.0264,6.0152,6.0057,5.9979,5.9998,5.9902,5.9757,5.9456,5.9178,5.8965,5.8572,5.8242,5.7973,5.7721,5.7625,5.7577,5.7313,5.7289,5.7406,5.7239,5.7188,5.708,5.6283,5.5522,5.4756,5.3713,5.2744,5.1907,5.1907,5.1815,5.174,5.1715,5.1769,5.1822,5.1797,5.1851,5.1904,5.1904,5.1904,5.2101,5.284,5.3054,5.351,5.5009,5.5285,5.549,5.6083,5.6169,5.6039,5.5735,5.5549,5.5401,5.5199,5.493,5.478,5.4797,5.4606,5.4512,5.4512,5.448,5.4399,5.4207,5.4175,5.3913,5.3433,5.3583,5.3517,5.3145,5.3315,5.36,5.3948,5.398,5.3815,5.3408,5.4149,5.4115,5.3425,5.4167,5.4132,5.346,5.2597,5.1808,5.1149,5.0338,5.0011,5.0051,5.0302,5.0415,5.0471,5.0764,5.0891,5.0891,4.9921,4.9605,4.9706,5.1078,5.1261,5.1721,5.3207,5.3534,5.4144,5.5562,5.5904,5.5977,5.5924,5.5962,5.6618,5.816,5.9773,6.0667,6.0552,6.0472,6.0389,6.0323,6.0156,6.006,6.006,6.0026,5.9979,5.9918,5.9855,5.9772,5.9633,5.9346,5.9081,5.8825,5.8529,5.8242,5.7997,5.7834,5.7697,5.7601,5.7412,5.7363,5.7406,5.7239,5.7188,5.708,5.6283,5.5522,5.4665,5.3099,5.2342,5.2054,5.2054,5.2054,5.1987,5.1882,5.2305,5.2763,5.2669,5.3064,5.3484,5.3484,5.3484,5.3538,5.3724,5.4259,5.4973,5.5937,5.6069,5.6012,5.6162,5.5982,5.5753,5.5566,5.5383,5.5187,5.4917,5.4842,5.4749,5.4575,5.4512,5.4512,5.4512,5.4367,5.4207,5.4045,5.3915,5.3683,5.3416,5.3433,5.3433,5.3349,5.355,5.3583,5.3533,5.3963,5.3894,5.3408,5.4149,5.4115,5.3425,5.4167,5.4425,5.4184,5.2822,5.2101,5.1873,5.0545,5.0051,5.016,5.0331,5.0453,5.0575,5.0819,5.0891,5.0891,5.0475,5.0207,5.0177,5.1092,5.1566,5.2239,5.3456,5.3979,5.4649,5.5846,5.6005,5.5998,5.5943,5.5924,5.6549,5.8112,5.928,6.0098,6.048,6.0342,6.0241,6.0216,6.0076,5.9998,5.995,5.9918,5.9888,5.9839,5.9826,5.9669,5.9455,5.9215,5.8944,5.864,5.8334,5.8065,5.7792,5.7673,5.7528,5.7388,5.7313,5.7289,5.7307,5.7232,5.7188,5.708,5.6283,5.5522,5.4756,5.3833,5.3448,5.3333,5.3333,5.3259,5.3153,5.3078,5.3271,5.3516,5.3447,5.3724,5.4001,5.4001,5.4287,5.4554,5.4554,5.4902,5.541,5.6158,5.6253,5.6169,5.5982,5.5839,5.5619,5.5383,5.5217,5.5035,5.4811,5.4717,5.4606,5.4512,5.4512,5.4448,5.4289,5.3996,5.3749,5.3617,5.3517,5.3298,5.2888,5.2973,5.2939,5.2782,5.2956,5.311,5.3145,5.3433,5.3326,5.2902,5.3974,5.4115,5.3425,5.4009,5.4239,5.4188,5.3004,5.23,5.1888,5.0905,5.0391,5.0217,5.0359,5.0481,5.0585,5.0637,5.0655,5.0655,5.1176,5.1084,5.1026,5.1162,5.1914,5.2743,5.3482,5.4319,5.5149,5.5907,5.5989,5.5981,5.5971,5.6116,5.6733,5.805,5.8872,5.9639,6.042,6.0207,6.0072,6.0072,5.9979,5.9918,5.9853,5.9788,5.9793,5.9809,5.9776,5.9582,5.9234,5.9081,5.8782,5.8403,5.8115,5.7839,5.7577,5.7455,5.7313,5.7188,5.7188,5.7188,5.7188,5.7188,5.7188,5.708,5.6283,5.5522,5.4907,5.4907,5.4834,5.4742,5.4699,5.4525,5.434,5.4323,5.4265,5.425,5.425,5.4313,5.4394,5.4394,5.492,5.5419,5.5392,5.5365,5.5516,5.6055,5.6123,5.6039,5.5735,5.5695,5.5561,5.5229,5.5066,5.493,5.478,5.4623,5.448,5.4416,5.4367,5.419,5.3898,5.3583,5.3315,5.3144,5.311,5.2868,5.2359,5.2483,5.2428,5.2175,5.2354,5.2551,5.2799,5.2903,5.2757,5.2403,5.3688,5.3925,5.3221,5.3703,5.3915,5.3864,5.3064,5.2365,5.1751,5.1158,5.0629,5.0218,5.0223,5.0324,5.0474,5.0425,5.0415,5.0415,5.1058,5.0595,5.03,5.1058,5.1869,5.2673,5.3475,5.425,5.5032,5.5892,5.5943,5.5895,5.5836,5.7049,5.7915,5.8011,5.9374,6.0246,6.0323,6.0079,5.9934,5.9934,5.9734,5.9649,5.965,5.9633,5.9686,5.9809,5.9636,5.9365,5.9043,5.8942,5.8593,5.8065,5.802,5.7792,5.7431,5.7406,5.7313,5.7188,5.7188,5.7188,5.7188,5.7188,5.7188,5.708,5.6283,5.5522,5.4907,5.4907,5.4882,5.484,5.4681,5.4589,5.4539,5.4421,5.4779,5.5212,5.5212,5.5625,5.6079,5.6079,5.6151,5.6213,5.6093,5.6047,5.6055,5.5957,5.585,5.5735,5.5706,5.5625,5.5419,5.5083,5.5022,5.49,5.4575,5.4512,5.4367,5.4078,5.3749,5.3533,5.35,5.3332,5.3144,5.2938,5.2764,5.2589,5.2409,5.2409,5.2409,5.2354,5.2499,5.2535,5.248,5.292,5.3025,5.2822,5.3332,5.3143,5.2465,5.3161,5.35,5.3415,5.2687,5.2315,5.2111,5.0788,5.0269,5.0237,4.9787,4.9767,5.004,5.0285,5.0415,5.0415,5.1081,5.0853,5.0753,5.1128,5.2233,5.3189,5.349,5.4628,5.5537,5.5895,5.5895,5.5826,5.5756,5.6276,5.7001,5.7915,5.8509,5.9054,5.955,5.9735,5.9855,5.9885,5.9719,5.9616,5.9616,5.9491,5.9455,5.951,5.9364,5.9158,5.8941,5.8654,5.8331,5.7997,5.7768,5.7577,5.7406,5.7313,5.7239,5.7188,5.7188,5.7188,5.7188,5.7188,5.7188,5.7152,5.679,5.6464,5.6174,5.6174,5.6125,5.6068,5.5956,5.5829,5.579,5.6186,5.6152,5.6081,5.6527,5.6527,5.6401,5.6401,5.6346,5.6235,5.6077,5.5964,5.5897,5.5822,5.5735,5.5695,5.5607,5.5443,5.5264,5.5053,5.4948,5.4793,5.4543,5.4353,5.4078,5.3716,5.3349,5.3111,5.3111,5.2903,5.2711,5.264,5.2535,5.248,5.2409,5.2409,5.2409,5.2409,5.2445,5.248,5.2409,5.2499,5.2605,5.2605,5.2659,5.2771,5.2926,5.3061,5.3111,5.3094,5.2893,5.2539,5.2117,5.1768,5.1401,5.1086,5.0916,5.0673,5.0376,5.0195,5.0114,5.0143]}]]